GFSGL_con_mucape_000.txt.gz
CAPE
1292 116 121 248 130 23 6 0 0 0 0 72 121 79 12 0 33 151 139 192 101 120 167 134 116 106 72 39 0 0 0 0 0 0 0 0 0 0 0 0 0 16 112
1197 325 308 445 417 200 57 29 5 16 12 0 0 0 0 1 47 65 139 227 240 110 166 85 72 95 87 76 43 0 0 0 0 0 0 0 0 0 0 0 1 9 54
1252 532 415 559 552 166 97 46 14 8 5 0 0 0 0 3 18 47 46 121 260 154 122 108 105 146 127 134 109 71 14 11 1 0 0 0 0 0 0 1 0 0 20
1060 714 702 469 187 97 75 39 19 20 15 1 0 0 55 0 13 57 90 262 353 232 115 83 177 293 230 145 136 110 83 18 16 0 0 0 0 0 0 0 0 0 0
1037 881 827 464 376 75 31 31 24 40 39 12 4 88 52 45 46 273 317 148 110 79 113 174 157 160 228 191 143 113 70 30 18 0 1 0 0 0 0 0 0 0 0
1196 1112 885 431 381 115 92 91 128 120 220 52 79 162 159 30 211 83 67 41 41 15 13 16 34 121 159 221 158 130 117 56 19 31 11 1 2 6 0 0 0 0 0
1462 1108 567 468 277 213 229 267 279 251 216 172 123 235 38 160 95 154 89 65 56 22 7 4 19 39 90 108 110 46 46 35 59 42 21 15 23 26 27 0 0 5 0
1357 944 472 515 352 340 342 339 323 336 370 440 468 256 278 161 195 303 177 90 60 32 8 18 0 6 32 55 18 0 0 0 0 0 3 6 9 14 6 0 0 6 0
1214 505 486 573 619 455 410 368 418 425 514 640 471 61 151 284 227 252 121 38 35 6 0 9 1 0 0 0 0 0 0 0 0 0 2 12 1 0 3 2 0 0 0
1217 770 469 543 525 408 396 461 489 609 746 643 478 295 234 205 167 77 74 16 10 11 11 10 0 0 0 0 0 0 0 0 0 0 6 10 1 5 5 2 1 6 11
1094 568 371 646 604 481 553 732 846 906 842 648 414 57 124 160 85 65 26 25 23 11 4 3 0 0 0 0 0 0 0 0 0 0 3 8 2 3 3 12 119 96 4
659 452 493 459 543 738 920 1226 1074 924 754 352 113 35 115 159 140 66 48 20 2 0 0 0 0 0 0 2 2 0 0 0 0 1 7 1 0 0 1 150 233 90 6
630 707 513 209 61 39 661 1196 1038 698 434 171 59 203 226 132 75 42 2 1 0 0 0 0 0 0 0 2 0 0 0 0 0 0 0 7 0 0 1 176 248 231 179
773 509 139 18 0 70 715 661 461 455 303 133 175 144 58 34 17 0 0 2 0 1 0 0 0 0 1 1 0 0 0 0 0 0 0 0 6 0 0 103 237 459 199
163 69 2 14 130 455 442 580 466 370 195 65 13 24 37 0 0 0 0 0 1 15 4 34 5 6 4 2 0 0 0 0 0 0 0 1 0 0 0 2 205 305 322
32 27 3 166 358 586 665 400 355 178 102 51 73 73 5 7 0 0 0 0 3 17 1 0 0 0 0 0 0 0 0 1 0 0 0 1 18 12 0 0 5 168 84
33 140 141 282 768 425 287 300 191 46 75 74 83 48 21 0 0 0 0 6 14 11 0 0 0 0 0 0 0 0 0 1 0 0 0 0 3 12 0 0 0 1 7
108 310 424 282 208 163 183 186 120 88 56 21 1 0 0 0 0 0 0 1 16 0 0 0 0 0 0 0 0 0 2 5 3 0 0 0 0 0 0 0 0 0 0
243 182 175 212 221 217 261 155 99 102 86 51 7 0 0 0 0 0 0 5 6 0 0 0 0 0 0 0 0 0 0 0 0 0 0 0 0 0 0 2 0 0 10
66 92 170 284 283 195 129 66 64 45 27 1 0 0 0 0 0 0 0 0 0 0 0 0 0 0 0 0 0 0 0 0 0 0 0 0 0 0 0 1 0 0 0
92 84 41 77 87 107 77 67 43 2 0 0 0 12 6 0 0 0 0 0 0 0 0 0 0 0 0 0 0 0 0 0 0 0 0 0 0 0 0 0 1 23 8
181 209 129 114 138 96 95 19 17 16 8 9 8 2 1 0 0 0 0 0 0 0 0 0 0 0 0 0 0 0 0 0 0 0 0 0 0 0 0 0 0 1 9
120 64 97 120 117 54 17 23 25 31 35 17 22 12 3 0 0 0 0 0 0 0 0 0 0 0 0 0 0 0 0 0 0 0 0 0 0 0 0 0 0 0 0
2 25 67 20 9 47 60 43 35 30 19 13 19 1 1 0 0 0 0 0 0 0 0 0 0 0 0 0 0 0 0 0 0 0 0 0 0 0 0 0 0 0 0
0 0 0 0 0 0 0 3 3 3 0 11 2 1 0 0 0 0 0 0 0 0 0 0 0 0 0 0 0 0 0 0 0 0 0 0 0 0 0 0 0 0 0
0 0 0 0 0 0 0 0 0 0 0 2 0 0 0 0 0 0 0 0 0 0 0 0 0 0 0 0 0 0 0 0 0 0 0 0 0 0 0 0 0 0 0

GFSGL_con_mucape_003.txt.gz
CAPE
1704 1821 1401 999 0 11 44 40 21 0 0 0 0 0 0 0 0 0 0 0 0 52 58 79 86 89 80 52 35 17 0 0 0 0 0 0 0 0 0 0 0 0 0
1659 1738 1333 435 17 133 47 10 0 0 0 0 6 6 0 0 0 0 0 0 25 40 67 59 63 72 62 83 78 68 63 46 0 0 0 0 0 0 0 0 0 0 0
1497 1618 1300 689 125 162 201 24 1 0 0 0 0 0 0 0 0 0 0 16 23 53 83 87 76 86 56 82 126 111 110 78 33 13 0 0 0 0 0 0 0 0 0
1533 1595 1454 1033 270 463 459 256 31 22 8 0 0 0 0 0 0 0 0 19 58 106 109 114 72 61 71 72 114 121 126 89 41 36 0 0 0 0 0 0 0 0 0
1560 1639 1636 1246 629 630 622 273 62 29 17 13 7 0 0 0 0 8 22 101 110 71 61 39 31 36 85 66 76 87 85 80 61 44 12 0 0 0 0 0 0 0 0
1493 1687 1735 1343 620 791 434 100 22 26 31 13 35 24 0 0 17 18 85 70 47 31 18 0 0 0 0 60 188 214 171 98 52 30 10 0 0 0 0 0 0 0 0
1578 1596 1707 951 487 664 318 210 22 44 49 44 74 106 3 2 13 16 28 26 50 42 27 18 0 0 5 11 32 75 94 76 79 31 2 0 0 0 5 4 0 0 0
1540 1535 1580 1029 523 581 347 345 161 183 158 160 140 141 207 171 83 88 45 98 63 55 19 13 0 0 0 5 49 10 0 0 0 0 0 0 0 0 15 27 1 3 12
1371 1382 1069 603 701 458 465 317 329 354 390 334 248 280 420 285 70 167 50 96 27 10 0 5 0 0 17 15 9 0 0 0 0 0 0 0 0 19 18 3 5 4 0
1402 1334 1274 749 514 446 534 369 452 471 496 495 450 495 410 269 347 65 48 39 8 0 9 10 0 0 10 2 0 0 0 0 0 0 0 0 0 0 0 10 4 0 0
1810 1621 1339 874 503 418 429 381 435 280 405 595 617 592 449 296 56 94 35 46 9 0 8 0 0 0 0 3 1 0 0 0 0 0 0 0 0 0 0 0 3 3 0
1791 1548 1308 705 544 459 341 308 193 6 68 242 470 410 269 40 111 72 45 42 4 0 0 0 0 0 0 1 1 2 1 0 0 0 0 0 0 0 0 0 7 5 12
1488 1317 828 573 434 327 175 45 68 25 0 279 176 113 58 142 133 93 59 3 0 0 0 0 0 0 0 0 0 2 0 0 0 0 0 0 0 0 0 0 0 52 120
1045 943 646 583 526 255 6 54 185 218 351 189 118 135 195 131 96 26 0 0 0 0 0 0 3 7 7 2 0 0 0 0 0 0 0 0 0 5 1 0 0 6 139
541 398 228 170 96 44 44 342 572 433 197 174 163 84 74 20 0 0 0 0 0 0 0 1 27 12 3 13 1 0 0 0 0 0 0 0 0 5 5 0 0 4 148
124 126 70 11 38 19 2 330 534 429 252 131 15 11 6 0 0 0 0 0 0 0 6 15 11 0 2 0 0 0 0 0 0 0 0 0 0 0 8 0 0 0 120
24 41 0 10 3 39 456 496 428 126 84 26 14 6 0 0 0 0 0 0 0 0 17 12 0 0 0 0 0 0 0 0 0 0 0 0 0 0 6 0 0 0 4
0 1 0 33 111 141 105 305 127 72 3 0 1 0 0 0 0 0 0 0 0 0 2 0 0 0 0 0 0 0 0 0 0 0 0 0 0 0 0 1 6 0 0
203 238 262 208 222 256 255 145 85 39 16 17 9 0 0 0 0 0 0 0 0 0 5 0 0 0 0 0 0 0 0 0 0 0 0 0 0 0 0 1 4 0 30
160 126 115 183 210 207 146 74 61 71 32 22 4 0 0 0 3 1 0 0 0 0 0 0 0 0 0 0 0 0 0 0 0 0 0 0 0 0 0 0 17 14 27
7 4 129 271 226 204 174 132 113 65 64 37 6 0 7 12 15 13 0 0 0 0 0 0 0 0 0 0 0 0 0 0 0 0 0 0 0 0 0 0 0 5 14
68 138 170 195 141 172 114 78 47 38 16 3 17 23 13 12 6 7 0 0 0 0 0 0 0 0 0 0 0 0 0 0 0 0 0 0 0 0 0 0 0 0 0
128 79 50 25 71 90 79 61 32 15 16 31 40 42 8 6 1 0 0 0 0 0 0 0 0 0 0 0 0 0 0 0 0 0 0 0 0 0 0 0 0 0 0
0 0 0 4 50 55 40 18 11 21 49 23 26 33 3 5 0 0 0 0 0 0 0 0 0 0 0 0 0 0 0 0 0 0 0 0 0 0 0 0 0 0 0
0 0 0 0 0 0 12 17 9 8 0 5 13 8 8 0 0 0 0 0 0 0 0 0 0 0 0 0 0 0 0 0 0 0 0 0 0 0 0 0 0 0 0
0 0 0 0 0 0 0 0 0 0 0 0 0 0 0 0 0 0 0 0 0 0 0 0 0 0 0 0 0 0 0 0 0 0 0 0 0 0 0 0 0 0 0

GFSGL_con_mucape_006.txt.gz
CAPE
1409 1536 1578 1921 1830 135 0 0 0 0 0 0 0 0 0 0 0 0 0 0 0 0 23 42 37 48 59 69 51 30 18 0 0 0 0 0 0 0 0 0 0 0 0
1506 1607 1498 1649 1549 736 0 0 3 15 0 0 0 0 0 0 0 0 0 0 0 0 38 44 61 50 36 50 62 56 41 29 42 0 0 0 0 0 0 0 0 0 0
1560 1553 1684 1453 1427 989 95 18 18 72 0 0 0 0 0 0 0 0 0 0 0 0 27 40 50 58 27 6 0 20 59 66 74 45 0 0 0 0 0 0 0 0 0
1473 1547 1667 1578 1460 1108 398 59 80 13 0 0 0 0 0 0 0 0 0 0 0 0 24 49 29 16 5 5 0 0 25 29 49 37 4 0 1 0 0 0 0 0 0
1412 1366 1540 1602 1521 1289 811 142 119 6 0 2 0 0 0 0 0 0 0 0 0 32 38 19 0 0 22 27 16 31 0 17 37 19 1 0 0 0 0 0 0 0 0
1391 1323 1347 1407 1528 1391 621 294 266 199 141 38 23 1 1 0 0 0 0 5 26 33 10 0 0 2 6 2 23 63 88 82 91 38 0 1 0 1 0 0 3 3 4
1412 1380 1345 1328 1371 1069 154 46 576 561 363 113 43 12 5 13 19 12 23 22 18 19 18 0 5 0 12 3 0 4 34 53 93 178 3 5 8 0 7 13 10 9 11
1443 1449 1424 1415 1313 1058 292 10 369 475 104 64 86 97 37 94 139 113 144 66 45 32 25 15 11 4 5 0 0 6 11 17 6 0 0 0 1 6 12 7 12 0 13
1412 1490 1495 1432 1415 899 280 18 121 508 250 147 153 156 119 152 195 243 85 98 30 26 24 0 0 1 1 0 0 0 0 0 0 0 0 0 0 0 0 0 0 0 17
1315 1428 1504 1560 1515 965 557 99 65 359 444 237 256 134 160 206 273 124 122 38 38 0 0 0 0 0 0 0 0 0 0 0 0 0 0 0 0 0 0 0 22 13 0
1188 1337 1559 1478 1605 1052 436 264 236 390 459 238 87 18 31 24 83 182 79 74 30 0 0 0 0 0 0 0 0 4 0 0 0 0 0 0 0 0 0 0 7 0 0
1220 1455 1411 1322 1300 759 441 346 397 356 241 67 32 33 5 1 123 70 108 64 45 18 9 0 0 0 0 0 2 0 0 0 0 0 0 0 0 0 0 2 1 0 9
1405 1384 1152 1090 865 536 413 273 190 34 29 20 72 48 55 168 97 93 130 99 64 33 0 0 0 0 0 1 8 0 0 0 0 0 0 0 0 0 0 0 0 0 3
1105 902 855 767 571 414 278 148 89 30 0 17 91 139 185 100 81 116 93 53 7 0 0 0 0 0 0 14 1 4 0 0 0 0 0 0 0 0 0 0 0 0 0
597 575 527 591 506 341 217 175 3 1 64 132 147 156 142 99 46 26 6 0 0 0 0 0 0 0 4 7 0 0 0 0 0 0 0 0 0 0 0 0 1 0 0
212 134 136 152 150 63 13 51 11 87 133 136 146 116 74 18 9 0 0 0 0 0 0 0 0 5 2 0 0 0 0 0 0 0 0 0 0 0 0 0 1 0 0
63 57 38 20 1 3 0 0 0 9 198 175 75 37 0 5 0 0 0 0 0 0 0 0 0 0 0 0 0 0 0 0 0 0 0 0 0 0 0 0 0 22 0
0 5 38 31 12 0 6 16 123 140 78 16 16 0 0 0 0 0 0 0 0 0 0 0 0 0 0 0 0 0 0 0 0 0 0 0 0 0 0 0 8 6 0
0 3 1 22 105 178 160 113 170 110 28 19 6 0 0 0 0 0 0 0 0 0 0 0 0 0 0 0 0 0 0 0 0 0 0 0 0 0 0 0 11 28 27
207 198 200 171 118 138 183 133 110 72 52 38 7 3 0 0 0 0 0 0 0 0 0 0 0 0 0 0 0 0 0 0 0 0 0 0 0 0 0 0 0 6 3
121 55 52 67 127 108 76 80 65 54 39 11 9 0 0 0 0 1 6 3 0 0 0 0 0 0 0 0 0 0 0 0 0 0 0 0 0 0 0 0 0 0 0
29 12 62 136 144 95 95 87 65 44 24 1 0 0 0 4 1 1 0 0 0 0 0 0 0 0 0 0 0 0 0 0 0 0 0 0 0 0 0 0 0 0 0
90 71 48 24 23 59 116 97 51 33 6 0 0 13 29 28 4 0 0 0 0 0 0 0 0 0 0 0 0 0 0 0 0 0 0 0 0 0 0 0 0 0 0
64 34 22 0 22 55 83 70 10 0 2 4 15 35 30 34 3 0 0 0 0 0 0 0 0 0 0 0 0 0 0 0 0 0 0 0 0 0 0 0 0 0 0
31 0 0 0 0 0 3 8 0 3 21 38 7 20 44 33 8 0 0 0 0 0 0 0 0 0 0 0 0 0 0 0 0 0 0 0 0 0 0 0 0 0 0
0 0 0 0 0 0 5 8 1 0 0 0 1 15 18 14 9 0 0 0 0 0 0 0 0 0 0 0 0 0 0 0 0 0 0 0 0 0 0 0 0 0 0

GFSGL_con_mucape_009.txt.gz
CAPE
2082 2552 2518 2250 1925 1821 1702 1625 274 334 275 308 329 123 81 48 65 168 226 97 100 226 482 529 567 637 373 413 370 247 155 113 112 0 8 22 0 43 35 54 29 0 0
2435 2502 2125 1902 1710 1526 1656 1281 356 26 210 205 242 194 147 103 145 270 228 0 153 306 311 526 539 398 605 576 300 371 351 238 142 134 153 51 106 112 119 178 68 0 0
2296 2036 1893 1374 1117 1538 1462 862 136 205 168 78 174 228 187 199 360 438 327 109 232 334 380 479 467 606 622 305 287 174 141 500 191 136 98 46 57 118 139 183 105 28 2
1979 2062 1845 1358 1381 1113 1282 946 169 150 336 215 153 277 272 324 290 169 19 155 291 289 399 485 556 511 409 242 184 249 220 195 151 149 96 66 69 244 135 113 51 22 12
2388 2189 1973 1365 1028 1242 1313 1011 284 0 57 61 125 134 217 158 30 46 125 277 493 497 458 669 586 359 87 45 52 85 198 190 107 96 90 82 73 75 124 79 46 23 76
2562 2276 1925 1572 1147 1120 1237 1031 453 198 2 11 1 87 253 65 0 0 36 360 549 634 617 584 426 22 1 0 0 34 77 144 159 699 191 142 230 149 123 31 11 3 3
2434 2204 1881 1594 1152 1172 1231 1044 732 289 109 0 0 24 421 380 8 0 0 216 495 532 604 529 227 68 24 55 4 0 15 4 44 200 142 158 128 81 26 13 10 17 15
2298 2212 1924 1571 1091 1053 1085 1111 874 336 222 12 43 227 643 455 67 23 35 181 415 547 474 325 212 172 127 9 26 48 78 79 83 37 28 17 6 1 6 18 9 0 2
2227 2302 2128 1654 1151 1168 1223 1176 730 475 167 176 312 185 294 310 28 27 79 112 200 368 470 180 63 60 0 0 0 6 59 57 5 0 0 0 0 0 0 0 0 21 12
2155 2285 2225 1627 1386 1321 1390 1400 715 287 38 115 199 417 368 929 84 126 111 133 108 145 184 30 0 0 0 0 0 0 37 49 4 0 0 0 1 1 0 12 1 15 29
2219 2242 1951 1513 1433 1464 1461 1297 810 296 124 60 277 560 258 281 330 74 36 281 67 78 138 44 9 0 0 0 0 1 5 0 0 0 0 0 0 0 2 3 2 13 53
1919 1824 1392 1455 1416 1296 1388 1232 655 362 193 65 65 61 80 196 6 18 34 80 45 117 232 58 0 0 0 0 0 0 0 0 0 0 0 0 0 0 0 0 0 2 8
1612 1274 1306 1274 1191 1277 1330 719 301 187 49 16 30 70 112 118 72 44 105 36 67 52 59 12 0 0 0 0 0 0 0 0 0 0 0 0 0 0 0 0 0 2 1
1082 1188 1019 972 912 734 439 333 376 143 56 37 88 217 380 351 178 81 27 33 40 46 25 3 0 0 0 0 3 5 1 0 0 0 0 0 0 0 0 0 0 0 0
912 720 645 635 551 338 249 143 93 91 81 99 135 477 515 377 142 49 49 42 13 3 0 0 0 0 1 0 2 4 0 0 0 0 0 0 0 0 0 0 0 0 0
601 402 212 90 156 204 160 72 45 46 82 79 87 124 42 53 24 18 10 0 0 0 0 0 0 1 1 0 0 0 0 0 0 0 0 0 0 0 0 0 0 6 0
616 332 86 35 147 51 9 0 0 0 0 7 41 25 36 41 31 1 0 0 0 0 0 0 0 0 0 0 0 0 0 0 0 0 0 0 0 0 0 0 0 10 15
489 16 7 7 18 0 0 0 0 6 15 43 48 25 13 0 0 0 0 0 0 0 0 0 0 0 0 0 0 0 0 0 0 0 0 0 0 0 0 0 1 8 4
53 6 17 27 55 65 91 46 64 95 109 65 45 17 7 0 0 0 0 0 0 0 0 0 0 0 0 0 0 0 0 0 0 0 0 0 0 0 0 0 0 0 0
169 31 32 101 75 80 82 107 104 105 83 27 0 0 0 0 0 0 0 0 0 0 0 0 0 0 0 0 0 0 0 0 0 0 0 0 0 0 0 0 0 0 0
358 149 96 199 226 193 166 155 131 23 5 0 0 0 0 0 0 0 0 0 0 0 0 0 0 0 0 0 0 0 0 0 0 0 0 0 0 0 0 0 0 0 0
51 114 240 261 244 210 207 113 95 97 38 25 7 1 0 0 0 0 0 0 0 0 0 0 0 0 0 0 0 0 0 0 0 0 0 0 0 0 0 0 0 0 0
85 120 182 198 270 92 167 275 248 144 66 49 21 0 0 0 5 6 1 0 0 0 0 0 0 0 0 0 0 0 0 0 0 0 0 0 0 0 0 0 0 0 0
90 74 61 73 119 156 235 241 192 12 26 19 8 0 2 16 23 6 0 0 0 0 0 0 0 0 0 0 0 0 0 0 0 0 0 0 0 0 0 0 0 0 0
17 27 31 34 38 83 58 95 73 23 21 26 6 7 11 13 19 2 0 0 0 0 0 0 0 0 0 0 0 0 0 0 0 0 0 0 0 0 0 0 0 0 0
0 0 0 0 0 0 0 5 10 4 9 19 8 9 23 32 29 5 0 0 0 0 0 0 0 0 0 0 0 0 0 0 0 0 0 0 0 0 0 0 0 0 0

GFSGL_con_mucape_012.txt.gz
CAPE
2449 3018 2941 2715 2845 3153 3158 2857 2293 1603 1191 942 881 359 493 216 199 330 215 39 114 118 37 180 356 481 164 63 62 64 69 58 38 1 4 44 38 133 128 139 98 85 57
2984 3207 2837 2943 2890 2852 3601 2886 2746 1871 1007 1006 819 714 368 248 218 321 142 4 20 17 111 312 424 275 417 472 176 196 117 121 100 115 101 29 278 399 91 185 154 65 73
2669 2366 2461 2770 2801 3175 3108 2759 1537 1297 788 780 718 666 447 320 242 280 332 224 126 83 219 364 412 470 474 216 246 137 90 78 132 91 106 79 31 40 162 444 161 351 92
1988 2368 3066 2930 2897 2805 3006 2392 1090 775 464 156 420 273 257 499 467 269 319 358 153 107 334 485 514 595 330 362 230 286 247 167 217 127 157 96 124 264 104 114 66 50 43
2635 2424 2877 3193 2853 2530 3017 1927 1003 820 529 202 98 166 147 414 209 731 485 180 153 329 426 515 587 785 433 218 149 254 210 150 154 107 91 67 113 99 220 74 58 68 300
2991 2760 3206 3658 3174 2733 2972 1661 749 776 601 243 233 104 24 97 1 20 115 156 279 482 673 727 702 333 208 31 0 0 1 109 135 116 75 134 331 183 120 98 105 60 58
2923 2969 3109 3413 3262 2992 2815 1746 1152 891 879 569 313 265 173 47 0 11 2 53 229 503 822 1040 928 414 232 356 140 52 0 6 0 106 162 201 200 157 274 269 85 26 11
3049 3088 3145 3180 3059 2676 2170 1842 1436 1155 1192 924 507 326 136 64 36 27 0 128 343 718 1053 1059 1114 867 740 455 370 157 121 169 168 107 171 136 126 46 15 9 12 30 15
2781 3003 3001 2957 2824 2516 1917 1166 1139 1112 1218 1040 525 303 187 344 92 122 92 380 400 1090 1107 746 694 534 240 57 48 103 128 117 11 0 0 0 0 0 0 9 5 24 33
2619 2922 3021 3021 2835 2272 1996 1715 1294 1186 1172 899 584 311 412 481 259 252 124 217 1005 319 326 806 161 86 58 0 0 32 39 89 87 41 23 15 1 12 3 25 22 80 93
2526 2903 3169 3172 2776 2426 2280 1541 1363 1378 1020 676 638 806 269 358 585 132 51 367 468 399 527 710 199 65 3 0 0 0 42 6 0 0 4 4 1 19 41 55 39 27 13
2992 3020 3195 2624 2147 1933 1833 1388 1596 1360 1052 872 842 881 641 416 135 102 79 102 94 614 734 378 111 73 4 0 0 0 0 0 0 7 15 0 6 11 7 2 0 2 1
2895 2938 2024 1924 1543 1547 1395 1369 1618 1169 1146 740 757 356 113 324 233 20 16 6 32 201 523 212 76 29 0 0 0 0 0 0 10 5 0 0 3 2 0 16 13 33 128
2162 1584 1468 1552 1403 1324 1184 1107 1254 819 782 942 561 359 264 399 416 192 24 18 44 75 96 66 9 0 0 0 0 0 0 2 2 0 0 0 0 0 0 0 0 0 26
1646 1843 1520 1200 1239 1059 712 621 741 693 430 666 259 25 293 280 521 344 220 270 267 111 83 84 29 106 94 74 26 9 5 4 1 0 0 0 0 0 0 0 0 14 18
1558 1507 1349 1208 1113 821 409 340 260 41 73 53 90 143 117 136 179 61 51 71 39 11 0 36 44 56 47 47 24 16 2 0 0 0 0 0 0 0 0 0 0 12 11
1240 1159 609 534 714 530 306 125 38 0 0 0 76 58 62 24 36 51 52 30 0 0 0 5 8 13 20 10 2 0 0 0 0 0 0 0 0 0 0 0 0 3 13
1099 414 687 564 489 433 448 522 142 102 70 0 7 23 17 27 27 7 0 0 0 0 0 0 5 7 4 0 0 0 0 0 0 0 0 0 0 0 0 0 0 0 12
795 457 250 144 103 75 209 198 201 143 440 34 8 9 3 0 0 0 0 0 0 0 0 0 0 0 0 0 0 0 0 0 0 0 0 0 0 0 0 0 0 0 0
132 11 14 142 231 489 593 501 417 486 540 193 12 0 0 0 0 0 0 0 0 0 0 0 0 0 0 0 0 0 0 0 0 0 0 0 0 0 0 0 0 0 1
121 195 55 381 283 233 223 211 215 286 276 270 243 70 0 16 8 11 6 0 0 0 0 0 0 0 0 0 0 0 0 0 0 0 0 0 0 0 0 0 0 0 0
281 202 142 103 134 151 179 206 252 259 249 245 199 1 0 0 34 18 4 0 0 0 0 0 0 0 0 0 0 0 0 0 0 0 0 0 0 0 0 0 0 0 0
170 147 197 278 255 107 182 251 285 302 265 216 120 49 0 0 21 17 10 0 0 0 0 0 0 0 0 0 0 0 0 0 0 0 0 0 0 0 0 0 0 0 0
170 194 236 210 139 126 146 212 243 70 201 99 47 38 37 22 24 15 13 8 0 0 0 0 0 0 0 0 0 0 0 0 0 0 0 0 0 0 0 0 0 0 0
158 140 130 133 109 86 162 142 165 40 30 47 42 42 39 34 32 14 30 13 6 3 0 0 0 0 0 0 0 0 0 0 0 0 0 0 0 0 0 0 0 0 0
38 18 11 5 3 5 9 19 22 31 32 40 42 31 34 47 49 44 40 27 12 10 5 0 0 0 0 0 0 0 0 0 0 0 0 0 0 0 0 0 0 0 0

GFSGL_con_mucape_015.txt.gz
CAPE
3581 3696 3833 3711 3851 4517 4317 4078 3805 2606 2670 1907 1950 1123 668 926 373 429 512 293 409 545 298 95 156 390 66 29 42 46 29 27 32 20 26 137 934 675 487 379 146 312 84
3060 3814 3886 4009 3961 3808 4364 4249 4189 3441 2714 2356 2032 1410 1112 850 777 660 459 226 198 133 101 646 306 93 1474 1490 258 847 289 281 19 530 190 45 392 590 832 1060 163 52 77
2811 3043 3697 3691 4136 3873 4406 4276 4181 3661 3144 1741 1717 1115 1202 597 401 496 867 888 770 576 513 914 730 959 1423 574 1105 454 72 325 226 83 75 103 33 148 263 275 505 223 215
1798 2101 3089 3737 3765 3893 4382 4290 4343 4014 3034 1692 1906 1458 1008 351 426 276 586 597 945 776 857 960 859 1021 1427 1365 971 1371 1052 506 295 86 97 90 95 84 251 175 125 41 96
2401 2431 2942 3741 3980 4128 4119 4437 4395 3657 2711 1965 1760 1415 887 460 265 75 503 571 965 913 783 925 1014 1054 555 594 607 996 1387 408 131 99 107 70 121 164 165 164 99 83 62
3370 3204 3519 4338 4131 4172 4404 4527 4369 3764 2785 2092 1564 1118 460 209 65 96 533 597 754 1009 1098 1257 1357 796 418 168 153 92 50 173 528 172 89 103 338 207 144 150 88 30 19
3969 4528 4299 4818 4753 4784 4624 4542 4130 3722 2411 1792 1311 801 458 176 256 192 70 247 652 720 866 1444 1223 545 412 667 470 164 119 53 11 167 325 399 422 425 505 408 318 93 8
4608 4476 4761 4835 5073 4932 4553 4347 3739 2676 1829 1703 1316 946 591 553 510 345 228 79 247 303 784 1371 1556 1502 1155 722 722 254 435 751 420 112 300 387 478 365 122 65 76 27 31
4439 4584 4673 4739 4768 4779 4271 3805 2849 2164 1815 1270 1055 1192 894 861 811 471 171 22 110 297 530 1286 1518 1323 284 130 69 222 590 632 174 4 14 1 0 0 1 1 8 23 26
3906 3859 4359 4452 4606 4203 3782 3163 2827 2245 1552 1594 1255 1065 1026 776 471 233 11 330 729 579 627 1408 279 213 204 112 63 158 290 338 182 194 160 16 14 19 6 31 50 59 50
2911 3007 3634 3816 4184 4108 3652 2891 2463 2136 1409 1144 1078 1017 927 913 773 241 69 175 160 165 169 1019 991 372 65 15 4 32 187 58 183 1 4 50 185 195 30 148 404 87 29
3708 3664 3754 4074 3356 3115 3084 2569 2033 1496 1301 1248 1058 836 1168 1413 539 252 41 104 157 207 430 931 502 209 138 60 0 0 0 0 0 0 25 37 71 9 7 18 146 82 13
3959 4254 3999 3467 2721 2650 2413 2055 1391 1239 1255 1014 740 1384 1439 883 1304 183 159 73 42 72 317 162 178 151 57 15 0 0 0 0 0 48 82 10 0 2 89 40 72 148 128
3739 2958 2683 2563 2098 1721 1652 1500 1205 1196 893 1020 1069 1198 1079 874 139 342 75 12 7 10 20 98 60 22 3 0 0 0 0 1 24 9 0 0 0 0 0 0 0 0 0
2265 1761 2159 1951 1446 1015 937 855 853 726 801 1073 840 1107 735 615 555 188 62 99 259 149 229 317 77 100 128 108 25 28 21 81 38 8 0 0 0 0 0 0 0 0 1
2120 1764 1574 1412 991 801 671 556 606 346 497 382 332 312 154 29 34 28 64 117 101 141 137 288 217 187 316 200 336 173 209 39 18 5 0 0 0 0 0 0 0 0 8
2157 2148 1569 1393 1125 1127 953 811 427 135 207 300 6 0 1 16 3 48 83 70 47 34 25 57 56 92 181 322 246 28 20 8 3 0 0 0 0 0 0 0 0 0 0
1542 697 1012 990 785 615 526 380 316 160 31 1 0 0 10 0 1 14 23 40 2 0 0 0 26 75 39 34 8 2 0 1 0 0 0 0 0 0 0 0 0 0 0
1024 874 826 664 468 189 295 401 153 97 111 38 0 0 0 5 0 2 0 0 4 28 19 4 1 2 2 1 0 0 0 0 0 0 0 0 0 0 0 0 0 0 0
801 350 184 307 124 94 215 154 150 139 221 136 3 0 0 0 0 0 0 0 0 0 1 0 0 0 0 0 0 0 0 0 0 0 0 0 0 0 0 0 0 0 0
357 149 1 179 106 280 313 264 180 181 192 261 113 21 5 0 29 41 20 18 5 3 2 0 0 0 0 0 0 0 0 0 0 0 0 0 0 0 0 0 0 0 0
194 206 71 211 134 173 121 116 145 143 127 143 85 42 34 18 92 20 35 19 17 11 2 0 0 0 0 0 0 0 0 0 0 0 0 0 0 0 0 0 0 0 0
205 113 139 111 200 69 143 193 177 161 165 154 65 19 35 63 43 101 44 23 16 16 5 0 0 0 0 0 0 0 0 0 0 0 0 0 0 0 0 0 0 0 0
148 118 152 409 287 310 146 133 301 67 102 87 20 68 15 15 30 88 39 40 22 12 11 4 0 0 0 0 0 0 0 0 0 0 0 0 0 0 0 0 0 0 0
138 178 136 211 116 138 143 120 120 84 50 28 16 34 39 31 19 44 39 25 21 5 21 6 0 0 0 0 0 0 0 0 0 0 0 0 0 0 0 0 0 0 0
62 42 49 82 92 76 71 73 80 81 50 43 49 49 41 25 17 33 35 16 23 33 19 18 9 0 0 0 0 0 0 0 0 0 0 0 0 0 0 0 0 0 0

GFSGL_con_mucape_018.txt.gz
CAPE
3887 3803 3954 3945 3965 3565 3886 3275 2995 3075 2296 2356 2118 1525 1211 1045 1328 845 527 592 481 857 690 770 671 1029 455 429 525 453 316 228 169 50 49 184 228 239 107 191 219 149 86
3681 3550 3837 3983 3965 4038 3502 3988 3593 3121 3153 2468 2026 1517 1173 850 1000 635 402 307 532 596 684 654 659 384 958 1085 854 763 731 256 319 317 302 265 443 716 679 575 223 56 74
3340 3286 3534 3473 3695 3672 4042 3458 3983 3422 2681 1758 2105 1527 998 852 669 457 460 437 227 440 510 612 379 697 1044 905 916 721 560 428 537 194 95 56 165 72 20 102 87 331 144
3023 3061 3154 3302 3370 3366 3607 3977 3797 3699 2975 2444 1915 1627 998 924 597 458 425 553 642 604 792 769 842 916 1102 1253 992 1104 861 717 311 213 90 51 189 29 48 35 2 31 46
2394 2673 2982 3276 3367 3481 3519 3873 3779 3930 3500 2907 1905 1798 1187 857 621 471 487 584 705 655 727 698 662 970 844 848 892 926 847 291 171 84 93 126 97 163 86 62 43 35 11
1857 2407 2758 3065 3444 3384 3781 3580 4121 3973 3830 3084 2296 1742 1428 869 403 267 436 599 772 798 651 843 696 838 623 315 153 155 102 103 140 62 10 83 111 134 101 66 36 11 0
2330 2462 2567 3025 3393 3590 3598 3878 3835 3987 3940 3204 2436 2057 1603 989 413 292 135 571 783 935 744 833 185 351 434 423 230 148 106 63 27 18 12 32 145 190 129 62 44 24 0
2697 3023 3056 3386 3657 3779 3748 3806 4047 4085 3995 3436 2575 2283 1879 1388 949 577 358 275 575 746 319 218 157 423 250 243 203 404 238 170 79 82 103 61 197 256 181 35 6 0 0
3440 3950 3913 4544 4447 4301 4234 4309 4285 4290 3974 2979 2631 2495 2413 1578 1030 864 556 440 425 387 275 59 245 246 602 183 142 215 117 125 311 157 125 172 192 93 13 10 3 0 0
3597 4157 4576 4929 5096 4906 4903 4765 4640 3630 3189 3045 2926 2533 2176 1222 1033 824 650 433 570 407 752 475 91 487 670 371 168 205 240 204 282 273 183 45 49 44 32 35 30 28 17
4103 4760 4741 4978 4992 5082 5068 4172 3283 3415 3304 2776 2524 1832 1734 1507 765 524 467 363 284 413 413 488 346 441 203 203 131 233 180 66 23 145 153 5 0 41 86 126 92 54 66
4683 4592 4756 4925 4372 4515 4242 3337 2522 2961 3146 2428 2069 1317 1400 900 518 504 610 521 281 155 320 412 768 712 428 203 79 60 55 0 0 0 0 0 13 36 12 6 15 11 4
4150 4445 4607 4606 4179 3460 3205 2709 2717 2246 2522 2216 1628 1528 914 1648 1136 674 580 326 176 158 316 133 103 110 160 96 76 45 0 0 0 0 1 14 5 0 0 0 16 105 200
4600 4426 3536 3349 3111 2855 2434 2623 2397 2553 1850 1161 990 1298 1422 1460 957 540 282 204 86 15 12 44 13 48 47 14 2 0 0 1 19 121 22 0 4 0 0 0 0 0 0
3353 3089 3169 2994 2743 2303 2016 2415 1950 1637 972 1051 936 942 1123 1142 671 625 408 190 40 12 18 189 79 70 34 45 31 27 22 29 41 68 54 6 0 0 0 0 0 0 0
2628 2726 2121 1692 1632 2040 1866 1277 893 635 633 619 760 786 498 438 252 71 32 2 11 72 123 749 403 294 177 184 228 168 74 52 31 46 29 0 0 0 0 0 0 0 0
1924 1930 1419 1648 1502 959 699 603 406 295 393 387 369 404 187 67 1 0 0 0 38 76 254 429 356 299 332 117 60 24 32 40 28 13 1 4 0 0 0 0 0 0 0
2998 1798 1785 1523 1358 1296 1071 899 489 107 165 303 228 3 0 0 0 0 0 0 11 3 4 12 94 380 246 432 63 17 11 7 0 0 0 0 0 0 0 0 0 0 0
1586 998 1519 1143 1016 1034 893 679 420 237 194 0 0 0 0 0 0 0 0 0 10 42 18 22 69 18 14 6 7 0 0 0 0 0 0 0 1 0 0 0 0 0 0
778 781 805 893 452 672 538 585 274 404 59 0 6 0 0 0 0 0 0 0 0 31 45 28 2 0 0 0 0 0 0 0 0 0 0 0 0 0 0 0 0 0 0
883 563 253 615 349 201 269 279 217 172 241 48 46 0 0 0 0 0 0 2 33 50 56 23 9 0 0 2 0 0 0 0 0 0 0 0 0 0 0 0 0 0 0
500 470 121 218 266 854 612 488 339 196 137 91 78 48 0 3 21 105 5 10 30 13 33 30 0 0 3 0 0 0 0 0 0 0 0 0 0 0 0 0 0 0 0
125 70 33 178 68 52 47 154 268 117 45 102 51 11 17 21 112 49 41 34 3 7 2 13 0 0 0 0 0 0 0 0 0 0 0 0 0 0 0 0 0 0 0
259 43 22 173 324 131 421 388 54 34 92 72 51 43 33 105 40 25 21 11 2 2 1 24 7 0 0 0 0 0 0 0 0 0 0 0 0 0 0 0 0 0 0
59 48 78 160 96 95 135 58 104 68 78 107 122 132 91 36 28 23 28 25 7 7 7 4 2 0 0 0 0 0 0 0 0 0 0 0 0 0 0 0 0 0 0
72 51 44 80 31 26 61 131 70 79 37 69 91 91 73 75 22 23 19 16 10 12 21 19 7 3 0 0 0 0 0 0 0 0 0 0 0 0 0 0 0 0 0

GFSGL_con_mucape_021.txt.gz
CAPE
2651 2319 2794 3035 2556 2335 2684 2031 1682 1491 1009 1101 1077 992 672 515 404 586 389 128 352 124 270 105 171 54 56 16 39 0 0 15 8 0 0 0 19 0 7 6 3 5 10
2959 2752 2492 2866 2958 2496 2181 2291 2014 1507 1413 1266 1057 1155 845 569 528 639 405 191 95 397 177 149 46 118 53 7 54 57 103 43 0 0 23 34 24 35 33 35 27 48 29
3044 3035 2892 2648 3003 2859 2375 2327 2613 1976 1741 1357 1409 1066 914 660 369 569 445 252 237 261 295 216 57 30 48 127 131 100 207 108 59 65 15 12 11 0 0 4 0 14 25
3162 3049 2960 2902 2888 2960 2967 2387 2625 2858 2115 1677 1256 1143 903 684 445 515 490 367 174 149 221 373 224 57 31 319 350 332 148 122 99 91 93 34 30 19 17 0 0 4 2
2944 3050 2826 2887 2969 2998 2963 3144 2582 2711 2887 2161 1674 1189 806 608 511 496 426 378 241 300 267 274 131 215 373 406 458 224 195 137 82 79 53 2 0 1 17 0 0 0 0
2693 2825 2814 2654 2855 2838 2979 2971 3292 2860 2939 2827 2387 1889 1412 1043 778 653 448 381 307 371 358 354 323 426 483 358 364 95 75 31 22 44 20 0 0 23 30 15 1 0 0
1994 2616 2677 2642 2700 2755 2809 2887 3149 3336 3122 3221 2944 2597 2122 1823 1576 1392 1232 849 395 377 368 458 504 464 198 164 91 92 58 12 28 38 17 5 0 3 69 69 39 14 6
1696 2155 2453 2531 2556 2715 2837 2998 2956 3359 3261 3390 3340 3146 2840 2458 2239 2087 1795 1194 660 374 585 714 577 302 177 95 91 68 53 59 67 83 51 1 43 110 104 64 42 26 8
1408 1572 2092 2301 2546 2606 2896 2881 3137 3058 3365 3424 3408 3293 3112 2775 2461 2198 1640 1148 1323 904 356 365 295 161 61 149 79 64 50 77 115 64 96 141 169 141 145 144 38 29 6
1281 1762 1933 2131 2378 2761 2940 3027 3135 3297 3542 3580 3452 3298 3455 2843 2288 1794 1107 811 682 777 517 158 267 154 40 135 130 81 93 128 136 76 78 76 45 25 26 36 34 19 26
1836 2072 2391 2725 2808 3120 3142 3286 3621 3700 3681 3632 3508 3436 3004 2323 1915 1387 1124 675 345 202 249 224 140 67 84 189 163 124 146 167 92 17 7 3 0 0 0 18 16 36 23
3665 3194 4407 4111 4105 4125 3922 3975 3753 3290 3650 3508 3519 2519 2283 1752 1227 1050 614 269 251 372 399 125 164 194 214 231 238 174 92 71 23 0 0 0 0 0 2 3 0 0 8
3807 4131 4425 4463 4580 4374 4275 3761 3220 3741 3709 2393 2596 2108 1787 1214 977 555 438 487 564 447 179 144 219 139 201 177 196 225 94 43 0 0 0 0 0 6 2 2 0 0 0
3899 3938 3938 3906 3928 4039 4004 3212 3336 3106 2321 1846 1789 2020 1396 768 697 671 664 712 570 316 170 73 106 40 4 19 49 43 17 0 0 0 12 16 0 0 0 0 0 0 0
3700 3703 3621 3525 3446 3381 3256 2998 2664 2074 1749 1594 1913 988 681 805 729 594 453 457 26 96 38 1 10 0 1 1 10 14 8 26 28 14 26 22 0 0 0 0 0 0 0
3325 2629 2840 3015 2987 2894 2750 2268 1817 1493 1382 1081 881 787 783 659 497 272 16 3 0 0 0 0 46 86 71 88 73 90 99 41 41 23 13 3 0 0 0 0 0 0 0
2291 2503 2705 2546 2183 2378 1520 1407 1280 1313 853 790 776 755 662 406 370 42 23 0 0 0 0 15 217 153 50 112 148 107 87 91 81 49 0 0 0 0 0 0 0 0 0
2120 2178 2094 1569 1217 1426 1406 1077 701 538 504 503 455 480 307 110 0 0 0 0 0 0 0 0 0 2 0 0 0 0 0 0 0 4 0 0 0 0 0 0 0 0 0
1328 1203 996 897 644 580 638 545 243 238 290 249 198 182 5 0 0 0 0 0 0 0 0 0 0 0 0 0 0 0 0 0 0 0 0 0 0 0 0 0 0 0 0
1649 1467 1238 1022 995 834 713 472 70 9 13 5 7 2 0 0 0 0 0 0 0 0 0 0 1 1 0 0 0 0 0 0 0 0 0 0 0 0 0 0 0 0 0
1024 784 1562 1078 1101 842 701 453 287 178 11 0 0 0 0 0 0 0 0 0 0 0 0 0 0 0 0 0 0 0 0 0 0 0 0 0 0 0 0 0 0 0 0
526 648 506 274 182 76 29 78 62 87 55 50 44 25 2 0 0 0 0 0 0 3 3 0 0 0 0 0 0 0 0 0 0 0 0 0 0 0 0 0 0 0 0
309 239 97 121 100 114 144 60 38 72 66 71 73 36 45 6 0 0 0 0 0 8 5 8 2 0 0 0 0 0 0 0 0 0 0 0 0 0 0 0 0 0 0
72 73 75 43 57 69 56 51 42 47 74 82 56 60 42 24 5 0 7 15 10 12 11 6 2 0 0 0 0 0 0 0 0 0 0 0 0 0 0 0 0 0 0
42 45 100 77 69 56 45 59 48 40 33 18 29 34 17 23 12 6 18 11 4 3 4 6 3 0 0 0 0 0 0 0 0 0 0 0 0 0 0 0 0 0 0
62 60 64 47 40 26 34 50 24 19 50 51 28 48 43 18 0 2 0 0 1 8 10 0 0 0 0 0 0 0 0 0 0 0 0 0 0 0 0 0 0 0 0

GFSGL_con_mucape_024.txt.gz
CAPE
1753 1752 1796 1639 1340 1722 1921 1887 1556 1370 1157 805 751 598 533 490 380 328 317 264 214 33 140 80 30 17 9 19 8 1 9 10 4 26 2 0 0 0 0 13 2 0 1
2031 2039 2032 1939 1830 1633 1779 2167 2222 1720 1383 1203 959 764 675 602 521 380 353 346 292 75 26 172 170 41 80 38 8 24 8 2 8 10 30 28 26 30 2 13 10 0 0
2027 2064 2308 2350 2225 1901 1671 1752 2201 2310 1515 1433 1194 834 814 745 623 495 310 279 330 122 156 101 83 106 43 69 16 24 61 129 77 63 77 50 47 55 30 16 0 0 0
2284 2063 2041 2367 2610 2349 2025 1789 1829 2193 2038 1541 1463 1301 936 759 709 623 447 286 337 251 54 167 196 86 36 12 35 163 120 100 85 46 40 34 34 35 29 13 1 0 0
2432 2474 2259 2183 2425 2657 2435 2119 1926 2137 2115 1960 1493 1398 1285 1140 985 793 593 398 338 340 166 181 217 245 284 122 29 128 45 61 58 29 27 14 11 22 7 15 12 1 0
2586 2630 2629 2536 2401 2441 2642 2581 2317 2064 2442 2195 2012 1717 1551 1506 1369 1113 888 711 639 504 298 240 172 198 191 93 228 128 99 79 68 21 6 2 2 7 0 0 15 14 0
2627 2752 2727 2703 2686 2650 2608 2695 2797 2590 2217 2637 2721 2670 2398 2138 1953 1713 1463 1298 1160 1061 885 497 335 233 260 221 273 133 53 90 74 6 3 0 31 55 0 12 28 24 0
2499 2713 2827 2721 2672 2714 2775 2761 2727 2905 2799 2532 2485 2624 2701 2620 2405 2196 2060 2024 1710 1354 1380 990 520 300 430 363 143 124 48 61 82 51 25 8 60 70 101 98 78 54 34
2193 2509 2716 2699 2592 2659 2693 2723 2732 2831 2981 2906 2880 2838 2741 2699 2785 2775 2575 2284 2372 1583 1379 930 454 514 494 230 146 37 94 104 114 95 104 102 100 91 51 40 70 76 8
1885 1976 2514 2566 2521 2512 2619 2587 2660 2736 2953 2971 3048 3123 3192 3222 3279 3243 2972 2653 2065 1264 799 648 426 479 511 235 83 18 72 75 59 98 88 35 36 31 17 0 0 0 1
1689 1820 1959 2476 2478 2472 2499 2641 2666 2751 2847 2965 3027 3195 3209 3490 3490 3315 2982 2459 1683 1011 795 248 65 160 163 52 17 73 89 101 143 121 58 4 0 0 0 0 0 0 0
1367 1550 1641 2008 2319 2331 2420 2647 2675 2824 2771 2866 2954 2764 3259 3241 3372 2692 2056 1450 965 587 84 61 52 89 28 43 63 113 101 113 146 96 18 0 0 0 0 0 0 3 3
1220 1248 1565 1770 1996 2330 2557 2750 2735 2817 2735 2635 2353 2543 2907 2891 1839 1442 1111 784 318 130 212 338 86 28 53 115 160 161 134 149 104 21 0 0 0 0 0 0 0 0 0
1639 1819 2621 2860 3073 2903 2798 2722 2687 2777 2930 2528 2057 2740 2001 1624 1310 962 648 323 256 298 282 267 120 43 35 6 9 6 58 39 2 0 0 0 5 13 0 0 0 0 0
3059 3169 3327 3076 2979 2870 2731 2662 2708 2602 2371 2438 2387 1711 1277 1124 1003 587 472 481 513 574 483 319 103 2 7 0 0 0 9 0 0 4 8 1 4 0 0 0 0 0 0
2773 3147 3265 3325 3454 3404 3129 2578 1906 1457 932 1538 1227 1221 1195 735 555 621 563 460 411 186 181 115 1 0 0 0 0 0 0 30 18 10 0 0 0 0 0 0 0 0 0
2912 3470 3599 2964 2420 1950 1175 730 1031 1270 951 954 996 601 573 522 557 378 67 11 0 0 0 0 0 0 8 0 0 1 1 15 41 22 40 24 3 0 0 0 0 0 0
2203 2218 1482 727 685 530 714 853 1079 874 904 609 575 634 533 320 285 8 0 0 0 0 0 0 0 0 0 0 0 0 0 0 0 0 13 2 0 0 0 0 0 0 0
1390 1568 1390 1331 1246 1019 936 805 796 983 582 483 476 367 185 150 53 0 0 0 0 0 0 0 0 0 0 0 0 0 0 0 0 0 0 0 0 0 0 0 0 0 0
1166 1135 1017 934 929 910 839 677 504 407 259 228 219 117 18 0 0 0 0 0 0 0 0 0 0 0 0 0 0 0 0 0 0 0 0 0 0 0 0 0 0 0 0
793 642 519 411 372 439 446 271 102 127 153 44 40 20 0 0 0 0 0 0 0 0 0 0 0 0 0 0 0 0 0 0 0 0 0 0 0 0 0 0 0 0 0
653 1126 741 668 518 429 310 57 52 6 1 0 0 0 1 0 0 0 0 0 0 0 0 0 0 0 0 0 0 0 0 0 0 0 0 0 0 0 0 0 0 0 0
317 551 531 560 585 807 799 664 356 359 82 9 19 6 6 0 0 0 0 0 0 0 0 1 5 1 0 0 0 0 0 0 0 0 0 0 0 0 0 0 0 0 0
59 109 142 129 75 75 71 50 113 267 190 74 82 53 43 40 4 1 0 0 0 5 18 11 5 2 0 0 0 0 0 0 0 0 0 0 0 0 0 0 0 0 0
68 89 57 9 18 14 25 37 41 97 109 115 72 52 14 42 16 1 10 12 31 32 16 11 4 1 1 0 0 0 0 0 0 0 0 0 0 0 0 0 0 0 0
96 104 93 62 25 31 24 23 24 8 57 64 61 48 30 42 28 35 39 31 45 43 17 10 3 1 0 0 0 0 0 0 0 0 0 0 0 0 0 0 0 0 0

GFSGL_con_mucape_027.txt.gz
CAPE
952 1106 1123 1089 1096 1082 1051 929 1079 1330 1259 1333 1187 933 1166 1128 845 492 147 65 62 49 27 0 0 0 0 1 1 0 0 0 0 7 7 12 12 0 0 0 2 0 0
938 976 962 1024 1177 1305 1177 1118 1198 1441 1301 1317 1142 901 915 995 671 456 296 175 93 68 6 40 45 23 4 3 7 4 0 0 8 19 0 24 15 10 9 1 7 10 3
978 1132 1124 1105 1087 1123 1340 1471 1491 1575 1607 1242 1249 1028 768 704 585 587 557 498 307 164 146 0 22 102 118 21 22 19 0 2 28 23 40 34 46 34 32 17 11 11 3
1170 1294 1338 1393 1394 1290 1170 1241 1469 1472 1635 1619 1323 1266 1197 1157 766 685 701 637 548 372 227 110 33 31 70 38 30 9 0 8 45 14 15 38 28 11 7 14 1 7 18
1357 1536 1518 1547 1593 1553 1463 1365 1346 1479 1499 1832 1891 1613 1355 1376 1174 906 785 736 667 557 452 372 262 135 189 149 129 55 13 35 49 13 13 21 40 5 9 5 2 3 6
1534 1682 1708 1777 1857 1848 1775 1632 1525 1430 1489 1500 1723 1974 1734 1478 1449 1449 1244 1066 1039 943 816 650 476 330 182 199 199 251 65 40 44 5 0 18 32 1 3 14 5 0 8
1797 1800 1777 1736 1843 2069 2119 1993 1822 1697 1595 1580 1476 1594 1838 1778 1645 1489 1334 1297 1399 1375 1246 994 808 643 274 86 97 163 65 66 9 15 32 29 27 5 10 25 16 30 44
1953 2017 2072 1948 1906 1907 2065 2210 2126 1951 1839 1876 1759 1649 1696 1848 1857 1704 1652 1872 2032 1960 1567 1415 1016 764 173 142 145 155 176 97 60 42 29 26 11 16 48 40 91 35 16
2043 2111 2197 2282 2196 2116 2080 2138 2217 2214 2069 1966 1920 1840 1854 1904 2061 2320 2458 2513 2422 1992 1982 1509 1248 698 448 157 323 302 157 5 24 60 80 89 94 93 55 13 1 1 0
2125 2191 2307 2364 2320 2288 2275 2251 2256 2319 2422 2193 2138 2152 2091 2118 2265 2470 2593 2629 2781 2804 2320 1695 1210 853 284 179 302 138 24 47 3 57 44 72 31 11 14 5 0 0 0
1979 2198 2252 2428 2409 2338 2319 2282 2359 2389 2459 2686 2406 2390 2455 2533 2606 2750 2931 3135 3149 2832 2217 1582 892 636 360 403 351 141 16 42 64 43 61 44 9 0 0 0 0 0 0
1419 1712 2077 2222 2482 2423 2365 2460 2491 2554 2625 2825 2713 2855 2855 2878 3013 3117 3392 3330 3223 2582 1657 1164 672 429 169 49 72 23 6 19 57 50 45 21 0 0 0 0 0 0 0
1268 1392 1553 1845 2318 2391 2383 2408 2427 2489 2555 3167 2876 3143 2753 2897 3083 3161 2753 2683 2040 1355 896 387 63 15 0 2 1 1 40 67 56 62 22 0 0 0 0 0 0 0 0
997 1270 1370 1441 1939 2195 2305 2361 2491 2620 2618 2704 2657 2302 2543 2463 2702 2081 1833 1621 1122 724 135 95 124 103 3 0 0 4 36 9 48 52 0 0 0 0 0 0 0 0 0
1024 941 1100 1249 1549 1930 2145 2341 2550 2662 2563 2324 2148 1719 1883 1738 1821 1468 1336 911 639 222 145 160 383 59 3 0 0 0 0 0 5 0 0 0 0 0 1 0 0 0 0
1877 1409 1669 1534 1656 1904 2051 2463 2610 2481 2300 1814 1290 784 581 443 1125 1117 903 589 320 284 276 535 417 73 0 0 0 0 0 0 0 4 3 0 0 0 0 0 0 0 0
2167 2298 2147 1891 1724 2146 2099 2049 2225 2249 1446 918 927 416 385 294 619 676 472 421 486 511 484 317 122 39 0 0 0 0 0 8 17 14 0 0 0 4 0 0 0 0 0
237 192 841 1553 1977 2197 2022 1685 1283 830 496 28 288 374 568 598 456 384 378 309 77 0 7 1 0 0 0 0 0 0 0 0 0 0 0 0 0 0 0 0 0 0 0
208 76 357 642 495 501 518 245 138 6 27 4 218 239 286 300 296 172 11 0 0 0 0 0 0 0 0 0 0 0 0 0 0 0 0 0 0 0 0 0 0 0 0
0 133 239 61 94 2 0 0 0 9 110 436 402 211 233 148 28 0 0 0 0 0 0 0 0 0 0 0 0 0 0 0 0 0 0 0 0 0 0 0 0 0 0
367 418 377 225 55 56 210 621 574 592 458 440 485 359 190 98 0 0 0 0 0 0 0 0 0 0 0 0 0 0 0 0 0 0 0 0 0 0 0 0 0 0 0
321 478 562 538 396 347 425 458 395 361 387 369 261 130 65 24 0 0 0 0 0 0 0 0 0 0 0 0 0 0 0 0 0 0 0 0 0 0 0 0 0 0 0
499 415 324 243 238 217 153 152 184 207 139 87 46 49 2 0 0 0 0 0 0 0 0 0 0 0 0 0 0 0 0 0 0 0 0 0 0 0 0 0 0 0 0
65 126 204 184 264 271 149 110 150 70 62 72 69 25 5 5 2 2 0 0 0 0 0 0 2 3 3 1 0 0 0 0 0 0 0 0 0 0 0 0 0 0 0
6 20 30 49 67 87 110 135 131 177 114 91 60 67 64 46 25 5 0 0 0 0 0 6 22 14 7 3 1 0 0 0 0 0 0 0 0 0 0 0 0 0 0
32 22 50 32 26 30 43 74 79 74 57 63 53 39 50 33 13 5 1 0 0 0 13 17 19 20 10 9 0 0 0 0 0 0 0 0 0 0 0 0 0 0 0

GFSGL_con_mucape_030.txt.gz
CAPE
806 787 762 743 753 718 743 826 884 867 950 711 996 1092 1194 1304 1148 940 777 531 173 4 0 0 0 0 0 0 0 0 0 0 0 2 2 13 2 12 2 0 2 12 0
849 969 912 824 801 777 776 830 874 957 956 672 905 1095 1064 1308 1146 1074 985 682 229 5 7 0 0 0 0 0 0 0 0 0 0 42 5 4 13 8 0 3 0 0 0
605 975 1009 923 848 842 836 831 909 996 987 866 1194 1177 1322 1269 1063 1074 1097 767 352 270 130 8 0 0 5 0 0 0 0 0 0 0 10 11 18 15 7 0 4 0 7
518 768 922 1009 977 1019 1020 981 927 978 1028 819 1162 1238 1326 1264 1008 987 992 850 588 561 493 313 93 35 54 54 34 1 0 2 0 7 17 23 20 26 10 21 14 7 12
637 725 879 900 932 984 1068 1158 1190 1115 1081 1063 953 1401 1380 1292 1188 978 887 885 696 750 716 624 533 463 298 125 69 10 3 0 1 14 15 11 9 0 19 9 13 2 1
789 859 971 1067 1067 1080 1059 1032 1123 1280 1259 1203 1074 1191 1544 1272 1285 1361 1258 1292 968 1037 896 883 960 815 465 318 187 103 87 53 17 18 29 33 55 24 6 12 10 7 0
955 1024 1164 1236 1308 1353 1365 1271 1141 1171 1313 1287 1274 1099 1142 1463 1394 1394 1397 1433 1443 1503 1382 1259 1287 980 731 434 293 146 75 93 93 22 64 49 103 99 23 0 0 1 0
1148 1186 1428 1503 1490 1536 1580 1529 1424 1303 1282 1378 1373 1396 1243 1267 1571 1761 1705 1653 1652 1651 1507 1527 1796 1442 974 803 426 66 4 42 52 86 69 116 83 17 21 25 7 1 10
1409 1422 1598 1730 1716 1732 1822 1853 1759 1588 1442 1466 1426 1508 1558 1464 1366 1529 1714 1775 1817 1863 1702 2114 1975 1751 1255 871 580 164 8 21 64 31 4 11 46 39 51 51 11 2 0
1727 1746 1802 1797 1714 1682 1810 1990 2053 1985 1835 1685 1730 1662 1695 1704 1605 1447 1515 1719 1911 1901 2155 2520 2232 1803 1276 1061 606 304 33 98 40 21 22 43 31 12 0 0 3 0 0
1655 1882 1951 1977 1949 1817 1792 1859 1951 2153 2155 1954 1868 1816 1819 1892 1932 1831 1657 1719 1887 2265 2589 2676 2544 1739 1024 818 441 198 35 58 12 6 19 12 2 3 3 0 0 0 0
1586 1821 1962 2118 2202 2159 2162 2125 2098 2180 2296 2352 2208 2004 1922 1998 2077 2092 1971 2067 2254 2451 2709 2754 2059 1152 953 480 253 254 123 20 8 19 3 10 4 1 0 0 0 0 0
1074 1645 1973 2142 2369 2395 2393 2248 2213 2332 2434 2426 2332 2343 2256 2995 2131 2318 2344 2414 2471 2790 2718 2388 1538 938 592 215 148 34 17 11 13 3 12 6 1 0 0 0 0 0 0
776 1091 1393 1968 2228 2457 2393 2321 2277 2381 2444 2443 2461 2330 2550 2948 2486 2271 2426 2169 1913 2132 2031 1692 788 526 66 2 1 0 0 0 5 16 11 3 0 0 0 0 0 0 0
1420 1047 951 1293 1641 2248 2463 2406 2367 2369 2364 2446 2428 2435 2752 2531 1935 1742 1356 1327 876 793 672 494 227 41 30 4 1 0 0 0 2 0 4 0 0 0 0 0 0 0 0
1985 1831 1319 1177 1346 1974 2258 2253 2314 2294 2332 2342 2328 2365 2008 1383 746 292 52 90 324 373 404 41 25 32 5 0 0 0 0 0 0 0 0 0 0 0 0 0 1 0 0
210 1517 2146 1547 1191 1393 1742 1984 1877 2253 2387 2425 2271 2028 967 737 453 4 1 40 196 327 69 31 17 10 0 0 0 0 0 0 0 0 0 0 0 0 0 0 0 0 0
61 270 765 1436 1809 1583 1462 1580 1478 1412 2101 2207 2040 1010 443 79 111 0 1 336 336 187 21 69 61 38 0 0 0 0 0 0 0 0 0 0 0 0 0 0 0 0 0
24 55 328 521 823 992 1087 1383 1455 1323 1352 737 526 298 117 48 1 187 403 388 262 240 232 280 159 14 0 0 0 0 0 0 0 0 0 0 0 0 0 0 0 0 0
255 170 134 190 222 376 429 736 755 676 637 503 7 2 43 105 148 234 112 238 313 267 23 0 0 0 0 0 0 0 0 0 0 0 0 0 0 0 0 0 0 0 0
167 90 23 0 0 3 4 0 2 53 0 0 0 0 254 377 289 123 166 54 3 0 0 0 0 0 0 0 0 0 0 0 0 0 0 0 0 0 0 0 0 0 0
175 161 71 0 3 3 0 0 0 3 17 7 262 358 416 305 166 39 0 0 0 0 0 0 0 0 0 0 0 0 0 0 0 0 0 0 0 0 0 0 0 0 0
320 271 281 198 134 104 147 46 79 174 243 346 402 320 250 97 16 0 0 0 0 0 0 0 0 0 0 0 0 0 0 0 0 0 0 0 0 0 0 0 0 0 0
109 123 68 71 135 174 220 278 227 214 332 300 365 284 186 109 77 34 2 0 0 0 0 0 0 0 0 0 0 0 0 0 0 0 0 0 0 0 0 0 0 0 0
55 24 32 46 105 73 41 15 3 21 34 61 112 105 126 83 88 44 43 21 0 0 0 0 0 2 0 1 1 0 0 0 0 0 0 0 0 0 0 0 0 0 0
10 9 41 15 20 14 40 60 60 48 57 41 41 22 39 53 48 44 34 12 2 0 0 0 6 12 17 7 1 1 0 0 0 0 0 0 0 0 0 0 0 0 0

GFSGL_con_mucape_036.txt.gz
CAPE
3062 3300 3261 2858 2913 3191 3492 3773 3840 3234 3654 3013 3097 2547 2445 2625 2952 3123 2813 2219 2029 1811 1040 644 968 807 118 90 107 63 40 11 0 0 0 272 347 292 30 117 166 134 106
2895 3458 3329 3107 3231 3003 3356 3496 3955 3839 3549 3551 3289 3047 2764 2499 2872 3143 2891 2226 2153 1968 1600 1086 885 689 810 913 232 930 404 355 58 220 208 116 587 428 584 626 172 51 43
2653 2362 2577 2681 2778 3342 3721 3588 3725 3905 4026 2811 3334 3979 3141 2825 3141 3140 2918 2753 2414 2172 1856 1591 1208 826 1072 477 453 367 286 254 405 155 70 263 60 296 532 600 485 277 100
1815 2113 2908 3113 3265 3287 3587 3712 3792 3949 4064 3886 3941 4077 3663 3116 2876 2960 2848 2821 2784 2419 2187 1856 1508 986 1250 941 491 699 626 357 538 307 177 110 252 346 303 158 207 354 90
2553 2074 2920 3338 3573 3566 3603 3831 3849 3990 3917 4033 4079 4075 4083 3164 2380 3445 3390 2880 3192 2812 2439 2177 1759 1308 644 839 597 1331 1575 738 277 438 400 226 243 182 331 216 125 92 371
2802 2835 3057 3580 3804 3786 3821 3947 4116 4075 4023 4122 4080 4136 4066 3048 1777 1606 2706 3248 3512 3288 3301 2743 2425 1130 749 493 422 508 1276 1730 1640 391 402 599 1107 579 256 243 44 229 90
2748 3169 3412 3840 3946 4072 4067 4156 4165 4118 4112 4183 4141 4188 4183 4087 1996 1376 1632 2898 3297 3650 3704 2923 2319 1889 1242 1349 773 709 811 880 653 1538 1251 1322 988 934 903 571 590 329 293
3115 3269 3522 3714 3959 4106 4202 4133 4185 4206 4106 4166 4177 4237 4221 4090 2611 1692 1433 2832 3519 3842 3579 3356 3411 3065 2426 1636 1591 959 942 1008 799 606 1067 1072 1564 986 858 667 582 611 481
3184 3410 3595 3663 3345 3581 4190 4235 3907 3630 3882 3796 3602 4297 4312 4162 2608 2215 1579 2431 2696 3806 3753 3452 3605 3520 2477 1487 1748 1746 1270 1156 798 389 281 252 516 255 396 355 259 414 168
3130 2948 3472 3605 3758 3803 4166 4267 4126 3648 3559 3220 3372 4215 3754 4292 2888 2240 1913 2304 2610 2479 3667 3970 2165 2752 2264 1660 1641 2465 1978 1756 1488 811 500 295 214 139 0 275 234 155 94
2287 2358 3217 3801 4035 4031 4360 4279 4053 3934 3508 3975 4075 4145 4291 3986 4000 2442 1937 2573 2666 2861 2630 3029 2969 1764 1664 1643 1406 1751 1611 1849 1421 1397 629 511 496 360 176 110 370 215 40
2594 2594 3577 3937 3053 2919 4330 4429 4322 4074 4169 4242 3970 3428 3771 4001 2871 2777 2313 1732 1954 2862 2956 2741 2752 1908 1580 1413 1372 1576 1616 1116 1024 892 721 462 466 285 216 211 379 150 0
2993 3615 3406 3413 3388 3808 4137 4000 3523 3983 3246 3577 3525 3164 3258 3239 4019 2698 2398 2246 1612 1929 2728 2574 2211 1671 1492 1215 1297 1520 1507 651 613 731 514 448 225 219 403 103 29 31 14
3167 3371 3551 3720 3604 3512 3378 3501 3373 3342 3335 3104 3243 2916 3403 3648 3906 3698 2457 2145 2027 1493 1600 1872 1713 1490 1299 1050 1190 1394 819 249 484 512 262 315 316 94 43 3 1 0 0
3297 3334 3457 3385 3512 3721 3822 3415 3345 3672 3028 3293 3434 3526 3236 3596 3625 3388 2625 2265 1889 1747 1611 1515 1479 1347 1359 788 600 375 144 313 236 298 247 160 62 21 8 4 1 2 7
2831 2683 2556 2582 3035 3201 3343 3592 2888 2782 2789 2747 2598 2368 2951 2749 2810 2923 2595 2329 1704 1580 1610 1632 1316 1220 908 388 77 27 54 174 279 279 183 156 47 10 5 8 1 3 19
1866 2224 2233 1494 1782 2060 2637 2939 3112 2674 2636 2691 2781 2736 2639 2515 2593 2612 2408 2053 1820 1544 1545 1657 1369 1151 373 2 0 0 18 139 367 298 118 75 44 20 2 22 11 13 10
750 193 1059 1152 1320 1469 1687 1601 2168 1929 1761 2188 1483 2425 2532 2410 2427 2353 2337 2074 1880 1665 1701 1635 1098 613 69 16 11 5 14 100 206 131 65 38 27 7 29 9 22 10 2
1068 918 485 657 723 509 589 864 739 949 958 878 938 1120 1399 1633 929 1785 1905 1281 1160 1576 1240 820 276 132 39 13 17 31 134 96 141 63 29 11 7 42 21 2 5 0 0
636 98 275 529 588 287 369 165 7 178 333 507 606 929 735 893 714 841 724 323 0 84 278 80 77 73 102 68 91 86 86 6 11 14 4 17 40 8 1 2 0 0 0
601 408 194 629 488 57 80 161 148 19 97 313 571 426 294 372 386 25 0 0 0 27 199 175 176 270 182 314 232 132 43 4 6 3 24 29 8 0 0 0 0 0 0
614 665 462 333 266 100 67 46 31 54 14 11 17 79 3 0 0 0 0 4 19 40 134 217 307 322 256 153 169 21 4 5 9 14 10 2 0 0 0 0 0 0 0
668 673 717 531 243 17 91 93 26 3 3 0 0 0 0 0 0 3 0 8 47 50 70 106 363 210 86 18 4 1 3 6 0 0 0 0 0 0 0 0 0 0 0
756 674 529 225 152 277 176 10 0 2 7 9 0 5 3 0 3 15 11 11 41 66 36 31 10 1 0 0 0 0 0 0 0 0 0 0 0 0 0 0 0 0 0
152 125 110 183 263 231 161 73 74 63 7 40 22 42 102 150 26 18 12 0 0 0 0 0 0 0 0 0 0 0 0 0 0 0 0 0 0 0 0 0 0 0 0
13 21 11 20 15 31 36 109 106 77 76 56 63 85 58 19 24 10 16 6 0 5 6 0 0 0 0 0 0 0 0 0 0 0 0 0 0 0 0 0 0 0 0

GFSGL_con_mucape_039.txt.gz
CAPE
4189 4162 4170 4211 4119 4352 4092 4149 4112 4082 4442 3871 4099 3650 3884 3950 4040 4261 3843 3582 3470 3117 2655 2675 2295 2165 229 166 122 103 70 40 7 0 2 807 824 317 116 74 177 624 91
3655 4175 4143 4197 4104 4164 4278 4157 4315 4402 4246 4498 4487 4178 4155 3909 4068 4231 3771 2558 3576 3070 2678 2463 1970 927 2126 1918 409 1823 615 920 99 1797 748 526 1326 1613 1177 1408 531 5 131
3264 3371 4040 4067 4156 4061 4253 4291 4371 4410 4447 4256 4296 4470 4365 4059 4027 4301 4188 3817 3692 3478 3194 2898 2229 1968 2496 786 864 724 458 731 760 431 302 310 322 613 921 1389 1372 1082 200
2596 2918 3582 4060 4013 4031 4126 4387 4307 4481 4481 4338 4364 4493 4462 4384 4129 4036 4115 4184 3890 3610 3452 3233 2798 2348 2175 2477 1787 1609 1482 1004 890 621 322 138 198 925 356 235 980 784 418
3057 3205 3556 4094 4250 4225 4180 4312 4339 4456 4471 4514 4448 4453 4659 4448 3687 4054 3836 4084 4203 3918 3793 3617 3209 2523 1645 1936 1331 1519 1378 1267 417 426 484 383 249 800 710 487 539 1074 962
3368 3219 3611 4140 4340 4379 4413 4375 4547 4472 4532 4575 4607 4500 4581 4343 2914 2509 3084 3967 4303 4295 4022 4022 3609 1958 1430 900 839 631 1122 2076 1483 705 758 921 2393 1385 617 342 692 768 111
3194 3902 3758 4194 4308 4488 4576 4612 4536 4591 4614 4624 4605 4612 4587 4635 3045 2351 2107 3619 4021 4172 4210 4204 3749 2590 1957 2066 879 531 349 703 960 2071 1750 1771 2382 2060 2014 1812 1512 793 580
3831 3544 4101 4101 4381 4505 4638 4660 4699 4688 4659 4672 4673 4721 4716 4593 3607 2631 2076 2861 3493 3997 4002 4113 4330 3616 3031 2648 2554 1334 1251 1154 987 876 1785 1953 2056 2116 1361 1595 1473 1345 857
3777 4007 3834 4343 4402 4625 4653 4649 4705 4707 4711 4649 4716 4746 4754 4696 3688 3258 2436 2574 3039 3451 3815 4024 4185 4152 3002 1953 2801 2630 1998 1511 655 844 836 779 550 463 608 1038 423 515 168
3799 4119 4295 4440 4534 4640 4720 4872 4837 4748 4670 4476 4530 4684 4335 4740 4046 3459 3050 2758 2868 3095 3556 3829 3112 3585 3181 2435 2439 2826 2532 1683 1398 1111 1036 813 422 301 307 916 534 185 541
3395 3893 4437 4551 4690 4618 4733 4919 4907 4769 4364 4666 4613 4631 4713 4436 4712 3731 3315 2813 3017 3045 3175 3333 3721 2776 2963 2636 2052 2803 2444 2110 1185 1213 1209 1052 522 645 336 285 477 173 168
3641 3892 4270 4578 4239 4042 4850 4917 5033 4877 4781 4779 4716 4646 4585 4707 3794 3980 3514 3059 2717 3120 3203 3108 3318 2991 2544 2564 2310 1997 2004 1608 1517 1177 1079 859 577 413 540 327 287 383 539
4355 4596 4623 4741 4717 4565 4774 4991 4591 4783 4222 4400 4056 4392 4356 4138 4724 3789 3479 3287 2924 2634 3134 2669 2461 2397 2391 2157 2095 2018 1760 1512 1273 1161 933 502 400 286 254 438 749 891 573
4630 4866 4792 4875 4801 4653 3952 3959 3861 3644 3723 3499 3674 3741 3479 3877 3920 4121 3353 3340 3087 2808 2488 2185 1916 1891 2103 2011 1817 1617 1504 1425 1014 725 455 317 302 208 175 152 188 125 17
3739 3654 3974 3762 3990 4462 4259 3620 3594 4062 3267 3647 3489 3256 3356 3557 3409 3130 3399 3735 2881 2827 2539 2394 2156 1528 1554 1712 1586 1417 1029 1014 743 334 222 106 162 116 132 141 133 91 2
3576 3560 3485 3450 3879 3767 3972 3959 3249 3100 3090 2892 2815 2886 2864 2672 2741 2567 2546 2845 2996 2867 2772 2538 2193 1925 1448 1400 1351 1130 740 544 391 135 320 103 97 106 73 158 68 56 32
3196 3412 2615 2366 2669 3202 3079 3105 3232 2834 2744 2523 2538 2556 2556 2472 2416 2561 2534 2561 2847 2911 2732 2450 2265 2026 1728 1378 1434 1012 491 293 149 271 144 59 56 99 71 81 10 57 55
1763 1730 1758 2103 2448 2516 2408 2390 2463 2638 2758 2383 1656 1639 1424 1257 1598 2354 2665 2386 2254 2320 2169 2046 1729 1779 1563 1264 1183 1018 318 112 95 188 7 47 110 65 7 63 53 105 64
1490 987 1097 1248 1271 881 819 743 704 579 348 273 209 129 263 407 649 1117 1430 1781 1750 1516 1561 1628 1311 1001 739 481 588 306 240 94 90 112 139 208 46 32 38 50 72 31 26
470 399 586 1007 826 936 589 379 100 77 18 9 6 19 119 224 336 494 480 736 699 508 812 1049 764 52 4 9 15 115 147 126 122 151 109 110 176 162 95 51 31 12 0
508 782 679 987 329 305 295 387 207 74 84 61 3 58 54 19 61 62 27 301 396 512 90 28 21 27 13 59 128 96 147 90 175 160 96 183 161 120 43 23 12 5 1
784 533 441 416 350 312 221 135 174 227 50 6 10 4 0 18 16 18 14 22 4 8 17 43 78 59 61 95 72 61 68 60 106 121 55 51 61 19 6 2 2 0 0
311 484 553 489 385 195 294 135 57 13 4 2 1 11 6 14 6 4 2 13 67 74 112 42 85 95 93 80 58 67 74 71 56 65 8 16 15 4 0 0 0 0 0
110 73 121 202 263 217 183 59 2 0 0 3 4 20 9 28 18 0 0 34 35 19 123 14 39 122 153 106 153 75 87 82 18 8 6 1 0 0 0 0 0 0 0
0 35 99 70 99 82 123 20 32 96 28 13 7 5 6 12 2 0 1 2 46 41 87 133 100 107 70 67 41 5 4 0 1 0 0 0 0 13 0 0 0 0 0
1 16 26 24 29 1 0 1 0 0 4 4 5 6 4 6 14 12 30 14 5 14 7 3 8 33 30 14 0 0 0 0 0 0 0 0 0 0 0 0 0 0 0

GFSGL_con_mucape_042.txt.gz
CAPE
3514 3569 3495 3565 3267 2972 2684 2913 3488 2859 4182 3152 3883 3436 3395 3351 3352 3774 3062 3066 3499 2891 2607 2482 2120 1394 1103 1325 932 1054 994 857 582 474 1365 1392 1038 371 179 350 347 450 36
3781 3784 3594 3600 3834 3562 3055 2945 3210 3788 3239 4178 3766 3488 3312 3224 3452 3317 3301 2368 3213 2974 2435 2474 2376 1537 1686 1794 2029 1102 961 1237 1025 1283 1384 1288 1361 998 1052 1196 487 138 571
3590 3887 3882 3788 3779 3832 3694 3145 3264 3188 3812 3138 3932 3867 3240 3304 3304 3461 3227 2952 2166 3182 2945 2323 2112 1829 1642 913 1332 1368 1246 1538 1887 914 1123 1492 1466 1261 973 982 1394 812 685
3219 3624 3759 4005 3917 3908 3856 3924 3372 3617 3243 3698 3540 3501 3703 3405 3360 3275 3392 3481 3115 2663 3268 2888 2403 1922 1523 1744 1196 1028 1259 1336 1008 1306 916 737 1381 1043 886 673 897 895 637
2508 3239 3355 3640 3998 3909 3912 3998 4079 3725 3803 3531 3664 3858 3619 3650 3483 3337 3259 3394 3437 3059 2951 3138 2814 2290 1637 1527 1589 1637 915 1228 1277 655 711 887 847 1247 515 604 544 438 578
2967 2946 3233 3523 3648 3995 3870 3862 4007 4165 4014 4123 3917 3615 3820 3683 3389 3150 3039 3306 3416 3409 3188 3072 2977 2589 2129 1586 1477 1277 1413 863 644 528 608 544 683 984 1129 583 357 534 173
3134 3480 3478 3672 3868 4002 4030 4024 3938 4126 4152 4174 4180 4054 3743 3819 3485 3282 2975 3230 3293 3404 3402 3253 3099 2897 2394 1981 1598 1307 908 960 698 740 592 1008 1707 1495 1410 1272 1079 711 345
3994 3448 3937 4110 3949 4121 4145 4106 4164 4088 4218 4173 4213 4185 4024 3829 3587 3458 3140 2795 3132 3226 3338 3378 3247 3037 2804 2311 1952 1570 1138 598 540 849 1016 834 1384 1814 1247 1489 1227 867 605
3299 4110 3523 4176 4076 4159 4243 4182 4177 4253 4214 4324 4266 4266 4247 4115 3746 3582 3428 3016 2800 2971 3236 3267 3258 3189 3031 2579 2177 1829 1425 1051 567 384 666 1326 1159 919 1289 793 692 300 220
3339 3312 4151 3549 4190 4209 4264 4341 4351 4346 4349 4270 4268 4285 4147 4246 3958 3818 3548 3288 2734 2689 2848 3075 3086 3119 3142 3006 2394 2092 1699 1228 943 614 400 433 418 548 609 778 497 247 154
3557 3647 3790 4295 3871 4287 4360 4480 4443 4402 4387 4386 4360 4367 4380 4222 4211 4012 3787 3522 3255 2820 2678 2680 2757 2841 3087 3199 2913 2354 2088 1853 1389 999 677 398 364 642 699 468 410 296 183
3443 4155 4298 4512 4056 3934 4489 4625 4561 4537 4471 4428 4440 4440 4449 4429 4213 4109 4030 3921 3532 3328 3004 2677 2554 2710 2760 2890 3042 2848 2382 2020 1787 1462 1105 844 700 801 568 281 204 261 159
4908 5037 4547 4664 4561 4241 4597 4567 4609 4649 4534 4500 4383 4402 4330 4257 4517 4141 3984 3855 3839 3679 3358 3085 2743 2618 2740 2742 2693 2811 2752 2478 1910 1629 1301 1188 973 845 310 219 136 194 117
4984 5401 4989 4826 4698 4562 4377 4442 4439 4424 4593 4541 4469 4319 4090 4360 4289 3971 3984 3876 3841 3693 3647 3415 3153 2655 2345 2422 2389 2551 2589 2435 2092 1796 1595 1237 959 582 163 146 168 120 132
5129 4949 5009 4648 4534 4727 4347 4067 4329 4391 4211 4426 4269 3835 3930 4014 3447 3526 3487 3424 3438 3652 3694 3499 3284 3097 2890 2441 2130 2047 1886 2169 1909 1652 1396 806 1110 612 133 78 54 99 77
4799 4522 4300 3946 4437 4296 4540 3988 3316 3612 3296 3194 3188 3240 3288 3121 2998 2925 3091 3132 3016 2837 2794 3100 2908 2739 2657 2457 2349 2170 1757 1578 1920 1370 979 684 1029 380 57 78 73 61 50
5057 4842 4018 3588 4018 4326 4442 4380 3968 3191 3096 3077 2964 2892 2868 2789 2928 2970 2851 2667 2727 2689 2365 2403 2554 2692 2759 2717 2547 2256 1930 1548 1486 1069 904 695 530 253 83 29 54 45 32
3193 3038 3638 3833 3229 3546 3933 3869 3937 3318 2989 2752 2629 2481 2384 2291 2057 1522 1176 1321 1770 2358 2331 2191 1794 1711 1761 1806 1714 1566 1080 740 912 809 527 290 312 58 79 22 9 15 31
2686 2503 2454 2284 2324 2445 2765 2637 2612 2616 2675 2547 2249 1116 310 0 1 1 155 341 572 927 1256 1375 1293 1368 937 681 665 439 451 342 330 185 0 2 62 48 41 48 27 63 48
1111 1225 1891 1484 1121 1210 1009 656 619 515 298 195 91 0 0 10 0 0 0 0 0 123 353 435 504 595 298 210 110 60 73 7 11 7 78 85 53 61 3 20 56 64 1
633 794 682 881 731 788 585 196 169 142 316 372 5 0 0 0 0 0 1 5 6 0 17 22 49 69 4 5 0 0 44 37 17 54 66 96 80 67 61 59 44 34 0
845 902 685 208 483 488 652 611 514 220 98 8 6 1 0 1 4 7 1 2 12 12 11 34 29 25 18 11 29 37 49 29 58 81 87 78 82 39 24 15 31 7 0
405 412 510 392 256 62 71 69 31 38 0 0 3 3 5 18 14 4 13 10 20 45 65 29 8 2 0 13 1 2 7 23 42 56 33 27 31 56 18 20 1 3 2
138 167 88 26 42 48 57 14 0 0 5 12 6 3 14 17 17 1 5 46 54 12 20 68 6 1 9 12 21 4 4 9 3 14 24 23 10 4 0 0 0 0 0
26 19 15 40 22 10 2 0 0 3 1 9 26 6 14 17 13 12 38 47 25 37 96 46 46 27 29 14 8 22 15 11 27 31 3 2 4 6 3 0 0 0 0
31 13 1 2 4 0 0 0 0 0 0 5 12 9 4 4 0 0 0 0 1 25 57 134 126 77 118 51 11 27 24 13 6 1 1 0 2 0 0 0 0 0 0

GFSGL_con_mucape_045.txt.gz
CAPE
1887 1720 2064 1954 1545 1349 2166 1279 1279 1732 1944 1427 2191 1950 2133 2208 2323 1985 2119 2538 2540 2319 2050 1709 1516 1424 510 134 187 95 0 6 0 5 145 86 132 189 20 18 45 94 21
2179 2162 2042 2334 2292 1613 1579 2214 1081 1859 1716 2403 2553 2362 2537 2267 2234 2599 2523 2357 2320 2414 2292 1890 1799 1560 1172 187 686 141 125 168 10 0 495 472 150 69 52 146 86 70 68
2308 2337 2356 2295 2518 2427 1897 1540 2250 1332 2245 1943 2611 2651 2469 2503 2615 2349 2525 2453 2097 2224 2297 2065 1748 1666 1427 1055 520 697 577 143 480 128 454 319 332 302 299 191 143 114 201
2268 2564 2635 2642 2591 2628 2536 2237 1484 2182 1984 2577 2187 2650 2553 2449 2360 2511 2405 2520 2466 1864 2375 2499 2225 1853 1593 1443 1021 403 605 786 679 676 185 340 546 743 233 216 280 420 219
2436 2688 2790 2894 2750 2720 2714 2852 2662 1938 2376 2212 2518 2427 2838 2546 2451 2381 2638 2578 2493 2314 1732 2436 2547 2405 2099 1620 1221 786 383 504 731 340 406 298 123 576 624 278 199 184 419
1945 2558 2852 2999 3077 2919 3003 2913 3063 2976 2363 2696 2586 2458 2610 2919 2720 2637 2497 2612 2696 2644 2516 2020 2433 2646 2671 2413 1798 1054 598 222 157 764 422 267 356 194 462 403 251 302 351
1664 1948 2655 2977 3100 3170 3187 3247 3193 3251 3279 2902 2894 2895 2698 2789 2974 2995 2880 2664 2619 2779 2802 2727 2406 2384 2710 2687 2445 2057 1454 898 238 61 506 473 221 296 288 370 254 122 88
1851 1927 1987 2779 2967 3090 3195 3243 3267 3272 3375 3520 3308 3190 3121 2973 2957 3067 3195 3087 2792 2672 2825 2860 2803 2633 2542 2708 2673 2470 2088 1721 1333 809 178 154 394 266 346 376 341 159 157
2396 2535 2370 2705 2880 3029 3097 3282 3289 3266 3267 3350 3564 3489 3438 3385 3316 3157 3279 3250 3172 2942 2854 2916 2967 2941 2855 2741 2795 2676 2435 2207 1860 1554 1166 535 179 834 773 779 446 170 204
2612 2898 3128 2966 3133 3100 3278 3303 3421 3388 3380 3370 3430 3557 3492 3523 3547 3531 3368 3390 3046 2981 2951 2924 2993 3115 3162 3130 2805 2703 2658 2369 2174 1823 1615 1223 708 432 607 277 268 219 313
2493 2545 3239 3344 3370 3476 3347 3540 3556 3592 3565 3590 3582 3584 3702 3642 3658 3718 3664 3626 3316 3056 2906 2796 2777 2812 3079 3250 3241 2939 2520 2233 2134 2049 1863 1409 944 640 706 417 195 196 335
2454 2810 2809 3477 3055 3460 3639 3695 3818 3756 3753 3682 3750 3829 3785 3831 3873 3873 3867 3881 3756 3582 3326 3139 2950 2794 2693 2848 3072 3183 3126 2895 2640 2387 2176 1948 1579 1027 316 242 216 259 223
2624 3091 3067 3012 3525 3115 3807 3728 4033 3954 3947 3932 3925 3978 3987 3946 4011 4092 4061 4036 4007 3968 3663 3514 3425 3294 3117 3008 2693 2649 2902 3068 2937 2563 2363 2141 1971 1791 1155 412 210 172 210
3249 3207 3968 3810 4020 3690 3680 3946 4084 4264 4153 4098 4089 4041 3843 3882 3969 3914 3867 4054 4078 4033 4017 3924 3796 3608 3476 3258 3077 2948 2715 2605 2522 2591 2464 2219 2058 1768 1396 934 366 239 193
3497 4408 4578 4166 4213 4140 3666 4031 4137 4028 4225 4240 4155 3999 4106 3981 3786 3626 3749 3993 3874 3715 3748 3815 3863 3806 3686 3538 3449 3331 3097 3080 2459 2063 1821 1776 1606 1512 1571 1543 803 370 109
4230 4422 4540 4137 4005 4245 4071 3515 3276 4086 3960 3941 3925 3985 3787 3630 3472 3383 3358 3222 3072 3267 3284 3154 3063 2981 3157 3156 3097 3030 2907 2811 2488 2117 1657 1635 1473 1175 1049 876 819 361 108
3377 4062 3676 3789 3657 4104 4175 4010 3601 2825 3688 3855 3684 3256 3068 3455 2854 2995 2836 2904 2848 2817 2746 2808 2892 2869 2783 2738 2742 2709 2542 2240 1911 1448 1262 1142 1081 1001 615 352 111 190 7
3288 3239 3420 3609 3410 3912 3665 3973 3809 3327 2997 3071 2923 2941 3006 2902 2838 2797 2650 2449 2142 1896 1559 1438 1710 1886 1935 1980 1881 1376 1087 961 752 603 549 560 529 513 306 61 169 41 104
3073 3148 3085 3264 3286 3675 3699 3472 3884 3694 3024 3060 3019 2875 2760 2590 2302 1324 356 0 1 15 185 657 757 797 680 747 465 337 191 302 238 229 251 281 145 126 45 16 58 88 40
1679 2475 2572 2577 2776 3109 3552 3397 3388 3282 3033 2935 2841 2530 2027 328 0 0 0 0 0 0 0 0 5 21 33 8 0 0 0 0 0 17 69 36 10 6 6 2 32 78 81
1235 1284 1731 2069 2125 2045 1985 2163 2163 2119 2173 2156 1541 57 0 0 0 0 0 0 0 0 0 0 0 0 0 0 8 8 33 33 51 35 40 25 4 0 1 7 52 53 67
551 790 481 443 417 594 820 440 118 608 125 0 0 0 0 1 0 0 0 0 0 1 0 0 0 0 0 1 5 8 11 6 13 29 70 57 25 10 0 0 3 8 13
718 715 569 189 170 251 275 241 128 44 1 0 0 3 7 8 6 1 0 0 0 1 5 5 0 0 0 0 1 1 5 5 10 45 58 52 35 19 15 13 12 0 0
737 502 303 118 102 81 82 124 105 5 0 0 4 3 5 6 5 1 5 4 18 11 26 3 0 0 0 0 0 0 0 3 10 19 33 41 32 3 8 23 13 16 9
433 452 255 77 66 2 0 0 0 3 2 5 3 9 19 8 5 2 0 0 0 0 0 2 0 0 1 0 0 0 0 6 17 31 36 34 37 50 49 30 22 11 6
170 149 75 69 97 17 2 1 1 4 1 4 3 2 1 1 0 0 0 0 0 0 0 0 0 0 1 7 15 19 20 18 31 41 50 44 50 52 42 53 44 33 22

GFSGL_con_mucape_048.txt.gz
CAPE
823 1158 1004 732 605 1603 1465 742 472 870 1187 1014 1270 1417 1767 1846 1827 1595 1359 1850 2202 1907 1972 1861 1357 941 656 304 249 177 0 0 0 0 32 99 149 63 64 97 27 7 0
1030 1107 1331 1231 934 640 1451 1943 1282 621 745 1188 1212 1594 1681 1832 1858 1756 1440 1620 2136 2281 2038 2090 2022 1640 1180 747 265 241 155 20 0 0 0 302 75 98 53 24 21 41 32
1175 1275 1382 1567 1524 1214 763 1259 1855 1632 1012 1225 1689 1676 1737 1820 1859 1843 1621 1641 1752 2024 2240 2194 2154 1927 1643 1369 1105 219 203 169 80 22 14 172 200 96 102 42 43 46 43
1454 1543 1463 1673 1928 1857 1565 1070 1296 1788 1510 1117 1537 2069 2075 2063 1909 1870 1977 1997 1902 1929 2001 2040 2016 2114 1985 1746 1392 1139 295 336 444 141 123 103 172 140 48 47 46 44 65
1788 1858 1912 1809 1867 2151 2112 1847 1460 1277 1714 1726 1141 1768 2225 2289 2233 2131 1994 1952 2087 2043 1956 2062 2110 2101 2080 1961 1860 1685 1056 748 166 504 260 173 172 215 138 37 32 44 60
1891 2018 2031 2144 2087 2075 2267 2315 2054 1816 1383 1677 1836 1675 1983 2287 2347 2377 2255 2151 2124 2117 1930 1838 1848 2098 2220 2296 2268 2222 2078 1807 915 142 324 353 161 91 266 168 81 54 75
1832 1879 2177 2196 2416 2380 2357 2409 2546 2425 2196 1744 1739 1935 1854 2109 2402 2463 2477 2379 2267 2178 2117 2027 1956 1843 2104 2104 2162 2292 2382 2336 2157 1564 625 185 246 202 98 163 115 75 72
1378 2085 2197 2541 2537 2703 2636 2602 2589 2673 2784 2651 2304 2127 2290 2074 2180 2493 2673 2594 2463 2393 2386 2358 2335 2296 2167 2061 2145 2071 2192 2289 2407 2267 1832 1446 779 280 79 55 39 61 53
1309 1371 2245 2399 2808 2850 2925 2915 2859 2948 2899 2954 3013 2853 2628 2628 2608 2504 2581 2771 2826 2782 2683 2633 2621 2601 2566 2539 2394 2261 2218 2061 1988 2203 2209 1996 1505 1088 673 392 89 56 42
1521 1533 1572 2087 2633 2882 2983 2971 3104 3081 3115 3103 3117 3250 3238 3109 2972 2989 2939 2842 2792 2762 2781 2894 2921 2925 2888 2817 2739 2629 2521 2385 2305 2211 2127 2025 1925 1819 1554 1180 763 119 37
2085 1879 1845 1814 1977 2542 2753 2922 2921 3086 3094 3085 3107 3098 3178 3335 3338 3270 3305 3261 3146 2995 2878 2776 2796 2891 2944 2974 3013 3030 2902 2712 2610 2560 2545 2516 2444 2308 2019 1508 1148 761 34
2341 2263 2540 2576 2362 2477 2653 2723 2916 2960 3120 3155 3142 3199 3200 3180 3360 3427 3416 3441 3465 3447 3289 3213 3168 3082 3003 2898 2906 2943 3076 3037 3011 2935 2771 2586 2640 2635 2519 2151 1765 1215 273
1306 2010 2534 2805 2932 2991 2992 2916 2976 3154 3203 3286 3322 3327 3351 3417 3487 3599 3680 3708 3756 3800 3757 3543 3475 3419 3380 3431 3303 3217 3064 2864 2788 2754 2721 2688 2547 2332 2122 2061 1952 1883 1356
2969 2078 2485 2782 2625 2896 3015 3108 3218 3405 3442 3441 3496 3507 3498 3627 3794 3849 3867 3875 3912 3979 4032 4000 3982 3985 3971 3981 3889 3780 3650 3481 3365 3067 2801 2659 2427 2352 2286 2071 1989 2021 1479
3134 3673 3201 3087 3183 3024 2968 3285 3412 3687 3653 3669 3756 3771 3784 3829 3812 3762 3796 3827 3839 3844 3916 3908 3923 3895 3867 3855 3822 3753 3697 3672 3550 3202 2926 2642 2214 1962 1667 1569 1377 1179 951
2333 3093 3459 3953 3992 3562 3377 3210 3479 3706 3848 4090 4011 3981 4065 4036 3971 3828 3810 3811 3493 3417 3317 3498 3560 3479 3297 3083 2918 2765 2823 2846 2832 2717 2535 1910 1322 1276 1229 1180 948 909 640
1501 2432 3038 3531 4041 3924 3821 3641 3390 3347 3866 4002 4030 4139 4102 3957 3993 3944 3644 3248 3059 2895 2690 2822 2817 2752 2742 2699 2559 2431 2532 2518 2162 2192 1506 967 1274 906 683 603 708 671 190
1323 1712 2881 2949 3346 3678 3963 3754 3553 3340 3098 3197 3862 3777 3775 3525 3254 3149 2894 2772 2832 2757 2778 2566 2278 1903 1148 1040 914 745 583 527 446 279 358 348 271 191 179 118 69 179 57
1597 1479 2019 2241 2810 3316 3615 3962 3924 3696 3607 3325 2944 2458 2837 3085 2758 2896 2879 2664 2338 1643 398 23 28 66 128 153 214 169 134 46 12 7 11 12 3 8 45 7 67 117 5
1501 1242 1490 2009 2313 2861 3256 3591 3811 3935 3712 3482 3215 2867 2881 2793 2764 2586 2204 772 0 0 0 0 0 0 0 0 0 0 0 0 0 0 4 2 0 0 0 5 3 17 28
1240 1111 1069 1311 1219 2031 2591 3041 3221 3362 3063 2808 2925 3029 2719 2441 2033 1311 3 0 0 0 0 0 0 0 0 0 0 0 0 3 2 0 0 0 0 0 0 3 12 25 15
1254 682 924 949 906 1034 1253 1417 2093 2298 2368 2168 2443 2406 1921 1409 625 0 0 0 0 0 0 0 0 0 0 0 2 3 2 11 9 5 4 5 4 3 3 1 6 19 13
1268 1037 770 931 743 409 320 328 557 865 1113 1036 685 528 730 429 0 0 2 2 3 0 2 4 1 0 0 0 0 1 2 0 1 2 26 5 2 3 2 2 1 7 8
1015 1005 753 605 760 545 305 179 128 26 0 0 1 4 3 0 0 0 0 0 0 1 0 6 5 8 6 0 0 0 0 0 0 0 0 16 5 9 8 2 0 20 16
873 852 727 492 520 508 414 300 180 103 42 0 1 6 4 2 3 0 0 0 0 0 0 0 0 1 12 6 5 0 0 0 1 0 0 1 9 10 21 29 32 32 32
39 152 294 133 429 286 122 90 87 30 2 2 7 7 9 8 7 3 2 0 0 0 0 0 0 0 0 0 2 13 12 8 20 18 20 44 39 51 64 68 54 53 66

GFSGL_con_mucape_051.txt.gz
CAPE
451 406 401 413 401 428 448 416 361 340 339 375 738 1010 1426 1321 1466 1638 1623 1388 1471 1614 1653 1514 1223 942 814 461 169 235 283 25 0 0 18 67 126 175 152 65 50 34 20
473 497 493 545 664 749 529 516 488 509 561 339 633 939 1206 1489 1522 1532 1617 1635 1409 1545 1744 1766 1753 1650 1491 1051 470 240 210 262 110 13 0 0 46 76 25 37 34 46 36
347 575 646 590 550 637 1139 1078 774 728 647 617 827 923 1111 1325 1458 1499 1515 1591 1600 1449 1605 1809 1862 1816 1851 1861 1657 1194 360 138 261 211 119 54 24 20 20 23 18 27 38
515 533 761 887 827 637 560 823 1231 1217 1163 1001 709 679 1009 1250 1479 1578 1610 1642 1706 1598 1516 1673 1822 1992 1997 1929 1944 1810 1496 980 179 164 198 204 140 63 28 31 26 23 10
695 779 774 975 1098 1122 985 759 693 1133 1178 1263 1263 1075 1273 1356 1520 1638 1672 1724 1721 1618 1518 1534 1616 1733 1921 1916 1733 1761 1758 1688 1431 736 154 61 224 238 113 65 27 12 3
883 910 970 1001 1218 1429 1421 1344 1113 973 1151 1174 957 921 1181 1555 1752 1853 1877 1880 1772 1744 1657 1652 1674 1806 1923 2006 2013 1962 1828 1795 1672 1679 1571 1132 524 37 135 135 56 22 0
1175 1170 1218 1284 1291 1494 1750 1797 1673 1489 1337 1234 1341 1195 1035 1303 1707 2060 2079 1978 1992 2023 1971 1873 1787 1753 1810 1828 1854 1980 1989 2021 2037 1667 1480 1187 1129 1055 691 241 52 64 35
1502 1555 1623 1687 1738 1695 1741 1965 2050 1971 1821 1732 1563 1402 1481 1398 1586 1800 2126 2169 2042 2087 2071 2041 2054 2084 2083 2051 2034 2029 1894 1793 1712 1749 1744 1652 1524 1405 1157 1044 848 509 281
1407 1743 1866 1942 1939 2087 2110 2031 2166 2256 2320 2219 2104 1914 1715 1626 1657 1767 2004 2085 2055 2132 2149 2180 2246 2270 2332 2378 2437 2483 2483 2419 2316 2219 2124 2031 1903 1813 1769 1692 1527 1324 991
1249 1653 1844 1992 2179 2202 2380 2418 2344 2425 2419 2496 2568 2553 2476 2451 2396 2357 2285 2155 2086 2152 2233 2351 2437 2501 2584 2654 2693 2729 2793 2731 2612 2536 2478 2451 2462 2450 2443 2429 1976 1558 1221
1298 1282 1521 2108 2244 2456 2508 2574 2683 2669 2673 2751 2772 2789 2898 2951 2983 2991 2980 2887 2845 2864 2876 2873 2886 2881 2875 2848 2870 2828 2744 2724 2640 2634 2689 2665 2643 2598 2584 2516 2295 1814 1504
1955 1929 1894 1828 2016 2301 2557 2737 2794 2884 2961 2969 2979 3003 3059 3089 3199 3242 3247 3218 3185 3207 3209 3236 3263 3241 3138 3013 2974 2947 3105 2946 2948 2955 2945 2902 2848 2761 2651 2441 2300 2268 2182
1858 2171 2184 2178 2223 2258 2313 2501 2709 2843 2826 2866 2928 2935 2945 3000 3092 3148 3226 3310 3361 3430 3487 3557 3461 3390 3277 3269 3432 3473 3421 3827 3456 3311 3352 3194 3105 2918 2841 2730 2592 2147 2002
3208 2786 2149 2316 2461 2593 2614 2592 2561 2593 2737 2780 2863 2967 3002 3094 3206 3299 3356 3418 3526 3620 3605 3759 3758 3722 3762 3839 3887 3841 3808 3749 3850 3777 3731 3586 3371 2870 2432 2502 2182 1671 1210
2245 2854 3172 3429 2947 2470 2624 2928 2963 2985 2972 2968 3050 3107 3201 3288 3368 3401 3515 3664 3735 3538 3538 3555 3665 3677 3705 3757 3765 3713 3561 3401 3107 2803 2667 2463 2395 2186 1886 1537 1351 1144 874
1137 1318 2446 2925 3352 3585 3278 2768 2681 3105 3240 3325 3393 3359 3406 3545 3611 3711 3845 3894 3816 3760 3809 3795 3743 3659 3603 3540 3383 3083 2760 2582 2501 2394 2216 1941 2038 1219 792 788 807 593 425
1047 1168 1445 2564 2919 3520 3818 3609 3240 2746 3020 3366 3623 3836 3890 3993 4061 4071 3901 3790 3757 3615 3277 2925 2886 2672 2646 2629 2513 2260 1969 1781 1686 1412 1065 667 496 490 150 61 0 0 1
1261 1310 1267 2086 2479 2834 3383 3723 3604 3423 3361 3323 3508 3864 4074 4059 3999 3801 3691 3612 3258 2977 2866 2778 2763 2612 2210 1264 698 547 472 285 143 183 52 7 3 1 2 0 0 94 0
856 1288 1152 1592 1796 2032 2865 3354 3680 3696 3475 2886 2874 3212 3196 3615 3586 3619 3049 2885 3143 2901 2710 2506 1639 184 26 26 8 1 0 0 0 1 2 121 3 0 0 0 0 0 0
506 1037 1219 1193 1694 2023 2421 3054 3584 3604 3309 3291 3239 3182 2488 2473 2278 2061 2620 3085 2866 2457 1670 79 0 0 0 0 0 0 0 6 5 4 2 2 1 0 0 0 0 0 0
507 655 944 953 961 1660 2268 2598 2935 3377 3664 3536 3187 2845 2446 2442 3371 3048 2857 2355 1942 1077 0 0 0 0 0 0 0 2 1 4 0 3 0 0 0 6 0 6 4 0 10
469 614 932 607 875 983 1601 2144 2519 2878 3013 2947 2709 2467 2295 2122 2002 2140 1816 1629 1054 181 0 0 0 1 0 0 0 2 2 2 2 0 2 0 0 2 4 15 9 0 1
289 448 984 825 860 817 836 1081 1561 1901 1995 1989 1942 1777 1402 1543 1715 1884 1193 919 736 374 5 4 7 4 3 0 0 0 1 0 1 5 6 17 5 4 7 6 2 1 2
372 448 712 1034 996 617 365 478 320 397 471 525 603 619 448 257 90 14 0 0 0 0 1 4 4 0 0 2 0 0 0 0 0 0 3 10 6 5 6 7 2 12 6
92 117 416 938 1023 857 721 490 417 170 73 19 0 0 0 0 4 2 0 0 0 0 0 0 0 0 0 0 0 0 0 0 0 0 0 3 16 5 4 1 0 11 15
158 279 431 501 749 622 432 211 171 244 135 23 1 19 8 0 0 2 4 3 0 0 0 0 0 0 0 0 0 0 4 4 5 5 1 33 37 89 53 49 26 33 45

GFSGL_con_mucape_054.txt.gz
CAPE
128 123 99 128 144 54 27 55 42 27 0 135 412 583 794 975 1098 1149 1283 1553 1356 1319 1237 1243 1305 1328 661 580 394 117 77 138 113 63 23 0 25 96 134 139 134 119 44
261 209 192 198 193 141 103 115 105 102 64 52 284 506 872 1144 1147 1204 1319 1477 1598 1515 1534 1484 1537 1586 1449 1358 1309 1005 355 157 101 168 201 174 115 88 66 101 101 66 27
310 315 290 266 280 249 210 194 197 205 203 152 185 380 603 1051 1331 1287 1361 1350 1414 1565 1608 1576 1672 1647 1604 1608 1590 1575 1525 1199 413 120 81 95 181 210 164 94 43 59 10
260 353 350 377 397 450 455 437 304 337 377 352 306 398 636 890 1252 1450 1490 1483 1372 1401 1549 1586 1639 1729 1779 1847 1605 1652 1642 1667 1649 1527 1114 474 130 29 78 143 137 70 44
273 408 473 461 424 429 571 895 919 491 450 434 400 424 540 890 1134 1426 1540 1542 1532 1484 1466 1554 1687 1689 1471 1598 1826 1865 1692 1532 1377 1351 1278 1084 1113 1027 540 239 48 168 134
330 382 507 626 619 563 435 427 635 1034 923 730 673 642 677 756 729 880 1191 1620 1644 1578 1549 1542 1627 1639 1607 1593 1603 1626 1607 1587 1510 1323 1101 1205 1161 894 791 816 697 543 252
519 504 525 624 856 883 906 834 631 590 851 1049 955 817 821 1018 1072 1083 1174 1446 1701 1769 1792 1787 1746 1677 1606 1758 1637 1666 1771 1888 1924 1916 1572 1494 1365 1241 1152 1076 927 812 842
676 710 805 842 884 1060 1237 1250 1221 1012 869 848 1071 1096 932 860 862 1130 1258 1302 1608 1782 1838 1899 1951 2004 1844 1867 1891 1896 1871 1992 2029 2023 2034 2054 2016 1934 1851 1804 1874 1835 1786
959 991 1040 1107 1126 1205 1381 1560 1619 1621 1478 1281 1215 1205 1319 1349 1164 1083 1190 1203 1619 1847 2028 2091 2097 2105 1914 1851 1903 1942 1999 2155 2284 2395 2439 2442 2481 2426 2354 2357 2305 2191 1933
1243 1324 1412 1434 1533 1568 1530 1588 1811 1935 2004 1972 1860 1707 1603 1561 1527 1465 1404 1335 1451 1684 1971 2118 1950 1958 2005 2028 2131 2259 2370 2503 2608 2641 2623 2637 2532 2457 2392 2363 2337 2312 2079
1200 1542 1690 1805 1800 1857 1923 2004 1997 2093 2205 2311 2403 2398 2245 2120 2187 2242 2308 2371 2394 2424 2437 2472 2542 2631 2702 2774 2818 2832 2850 2888 2889 2806 2765 2743 2737 2623 2595 2524 2496 2318 2377
1059 1389 1703 1837 2037 2090 2114 2251 2413 2376 2431 2498 2537 2601 2666 2742 2630 2701 2740 2803 2810 2836 2855 2889 2958 3051 3091 3152 3126 2932 2824 2828 2818 2954 2991 3038 2887 2848 2768 2984 3036 3055 2681
1363 1501 1664 1762 2046 2222 2391 2473 2540 2654 2749 2786 2829 2848 2914 2904 2916 2889 2956 3015 3052 3081 3093 3124 3188 3281 3292 3285 3266 3249 3264 3305 3329 3329 3093 3164 3063 3176 3189 2520 2411 2186 1943
1908 1947 2003 2064 2100 2117 2262 2492 2680 2782 2855 2941 2944 2929 2890 2837 2831 2828 2909 3032 3132 3189 3237 3345 3356 3304 3221 3367 3471 3506 3575 3605 3425 3683 3635 3843 3508 3206 2156 1966 1774 1385 1299
2895 2957 2737 2284 2187 2187 2214 2360 2391 2508 2704 2815 2761 2781 2901 2845 2814 2848 2970 3090 3189 3338 3429 3522 3471 3284 3199 3275 3369 3338 3417 3581 4220 3668 3179 2946 2613 2293 1587 1481 1149 1061 587
1455 1540 2044 2620 3164 2906 2368 2411 2605 2634 2591 2741 2798 2845 2884 2901 2917 3038 3172 3342 3537 3646 3760 3732 3622 3360 3454 3409 3377 3326 3227 2988 2731 2849 2375 1776 1000 829 675 358 169 19 45
1145 1162 1087 1422 2232 2583 3226 3052 2715 2472 2639 2986 3053 3052 3182 3302 3432 3519 3642 3805 3918 3951 3869 3717 3537 3459 3100 2856 2793 2693 2616 2449 2172 1641 1603 637 308 123 2 2 6 8 0
662 1092 1059 1347 1897 2306 2652 3222 3560 3486 3222 3071 3082 3084 3419 3601 3843 3938 3905 3854 3659 3514 3643 3532 3243 3132 3000 2824 2585 2457 1964 419 284 214 26 4 7 0 0 4 6 8 2
488 653 1107 1105 1739 1820 1920 2372 2883 3300 3323 3245 3036 2801 3259 3558 3697 3733 3669 3631 3479 3237 3036 2796 3037 2997 2409 2251 768 45 8 0 0 7 3 12 2 0 0 0 0 0 0
150 531 766 1088 1017 1359 1699 2862 2642 3063 3268 3026 2664 2216 2487 2417 2290 2836 2224 2304 2299 2694 2549 2406 2247 2082 718 0 0 0 0 1 3 5 3 0 8 2 0 0 1 0 0
0 482 524 859 823 870 1097 1642 2009 2373 3011 3260 3128 3054 2873 2121 2323 1948 2169 2230 2263 2364 2205 2030 1587 526 0 0 0 1 2 1 4 0 4 1 0 4 6 7 0 0 0
0 8 409 604 747 616 762 1303 1732 1763 2113 2404 2613 3279 2366 2035 2044 1849 1758 1989 1389 1681 1606 1484 1068 596 203 2 8 8 5 6 4 1 15 13 13 14 19 15 1 3 1
0 0 4 333 780 744 718 826 1251 1541 1640 1706 1613 1979 2843 2113 2003 1608 1101 1037 837 1111 1502 966 837 631 250 3 9 6 6 2 4 9 8 4 6 5 2 1 2 1 0
0 0 37 150 639 849 823 763 723 1239 1476 1294 1136 714 1358 1213 1103 1056 732 767 743 729 291 30 8 5 6 1 0 0 1 0 0 0 0 3 3 4 14 1 3 3 3
0 0 26 188 368 727 965 904 575 485 635 631 671 670 457 351 189 36 0 0 0 0 0 0 0 0 0 0 0 0 0 0 0 0 0 0 10 2 2 6 17 1 21
0 4 2 2 8 208 300 628 589 311 257 158 146 78 2 1 0 0 0 0 0 0 0 0 0 0 0 0 0 0 0 0 3 3 3 4 9 25 6 14 16 20 37

GFSGL_con_mucape_057.txt.gz
CAPE
831 940 1044 1063 924 999 1016 1165 1526 1045 1067 1197 1496 1635 1855 2018 2214 2527 2476 2354 2600 2618 2460 2302 2349 2294 1977 1778 1283 1055 830 599 593 566 639 608 922 1224 1017 992 846 876 593
980 1053 1033 1104 1139 844 1186 1098 1373 1592 1097 1191 1434 1691 1777 1797 1947 2194 2147 1806 2314 2660 2755 2703 2474 2217 2627 2591 2100 1995 1582 1343 917 1849 1313 923 1286 1559 1441 1394 1026 511 557
933 718 939 953 992 1373 1331 1283 1368 1447 1430 996 1167 1563 1571 1689 1895 2073 2146 2200 2292 2470 2740 2915 2891 2747 2826 2424 2567 2286 2137 2017 1621 1314 1423 1139 1008 797 1113 1325 1083 1200 694
674 730 1168 1300 1357 1328 1605 1644 1327 1606 1535 1424 1391 1531 1526 1616 1720 1894 2065 2231 2377 2424 2620 2746 2844 2902 2990 3021 2843 2883 2721 2538 2487 2083 1825 1741 1733 1945 1176 939 897 857 714
1161 1140 1315 1473 1528 1648 1748 1775 1538 1698 1759 1882 1498 1373 1478 1382 1237 1851 1912 2136 2409 2552 2576 2749 2781 2572 2267 2580 2772 3497 3447 2687 2250 1848 1759 1566 1469 1403 1568 1247 1125 1066 1207
1361 1407 1585 1709 1774 1818 1913 1846 2027 1800 1670 1663 1658 1754 1651 1278 658 762 1486 1932 2473 2653 2672 2707 2684 1992 1830 1672 1664 1717 2130 3493 3026 2554 2279 2359 3292 2624 2232 2030 1826 1672 1725
1454 1557 1811 1900 1894 1953 1999 2163 2304 2299 1732 1802 1672 1752 2030 2275 931 715 833 1651 2134 2628 2749 2661 2613 2317 2139 2639 2264 1838 1671 1633 1678 2988 3495 3506 3643 3572 3592 3188 3028 2583 2179
1539 1595 1839 1985 1984 2046 2085 2090 2143 2079 2483 2311 2164 2349 2214 2231 1301 871 645 1164 2237 2654 2822 2928 3235 3233 3231 2592 2728 2856 3017 2952 2363 1897 2402 2880 3455 3745 3979 3656 3782 3362 2611
1704 1727 1791 1954 2103 2218 2281 2316 2273 1949 2009 2018 2040 2248 2426 2546 1392 1028 916 1431 1966 2646 2767 2891 3044 3119 2547 2232 2530 3010 3413 3407 2364 2227 2125 2158 2336 2516 2510 2466 2399 2281 2306
1985 1957 1998 1998 2113 2302 2476 2624 2679 2421 2105 1914 1905 2205 1956 2659 1845 1224 948 1411 2102 1973 2781 3115 2022 2075 2324 2144 2239 2832 3368 3040 3156 3332 3422 2968 2785 2645 2526 2455 2389 2282 2165
1803 1742 2234 2358 2451 2529 2722 2875 2630 2683 2766 2761 2557 2745 2514 2167 2376 1695 1333 1578 1909 2195 2224 2267 2418 2004 2049 2193 2330 3025 3300 3169 3176 3407 3563 3415 3355 3365 3119 3140 2507 2583 2619
2514 2237 2638 2778 2272 2215 3023 2778 2996 3125 3222 3316 3176 3055 2971 3013 2187 2070 1935 2063 2078 2472 2770 2878 3133 2542 2682 2842 2941 3033 3115 3046 2909 2892 2974 2824 2968 3117 3428 3282 3043 2865 2529
2756 3015 2950 3023 2801 3269 3298 3225 2890 3194 2944 3035 3065 3115 3161 3271 3424 2752 2441 2503 2581 2669 2713 2799 2832 2867 2963 3045 3012 2928 2953 3094 3167 3114 3029 3079 2941 3028 3335 2996 2919 2872 2587
2592 2907 2908 2865 2935 3189 2923 2950 2968 3079 3129 3126 3301 3365 3396 3512 3581 3664 3021 2765 2766 2864 2914 2940 3004 3061 3134 3082 2958 2896 2987 3109 3239 3389 3409 3376 3380 3412 3414 2707 2356 1824 1643
2090 2072 2194 2325 2677 3017 3115 2811 3184 3515 3151 3395 3397 3541 3604 3666 3650 3361 3519 3602 3146 2831 2956 2972 3077 3188 3240 3213 3060 2852 2810 3066 3214 3300 3434 3509 3061 3137 2843 1398 1281 798 320
2293 2352 2378 2860 2240 2549 2642 2091 2393 2570 2520 2726 2885 3069 3508 3059 3059 2948 2893 2940 2903 2998 3189 3313 3314 3287 3390 3113 2738 3014 3153 3121 3028 2906 2781 2623 2255 1891 1226 671 278 126 40
1361 1292 1142 1512 2725 2595 2213 2362 2384 1945 2187 2364 2371 2493 2608 2960 2830 2979 3080 3210 3279 3379 3518 3508 3818 3689 3321 3279 3203 2960 2796 2784 2678 2570 2272 1752 1101 618 390 111 96 21 7
700 452 784 1195 1737 2700 2465 2831 2883 2852 2679 2628 2531 2655 2807 2953 2958 3179 3463 3509 3531 3584 3732 3784 3520 3245 3376 3141 2704 2993 3101 2430 2389 1651 794 400 208 254 60 69 70 10 11
31 784 1359 1546 1850 2122 2689 2664 2756 2920 3136 3032 3002 2938 3116 3040 3290 3474 3776 3776 3489 3723 3628 3395 3305 3284 2771 2512 2664 2696 2258 1537 49 15 1 18 46 15 44 19 10 0 0
1 184 356 1188 1477 1876 2485 2359 2009 2385 2780 3110 3109 2930 2719 3185 3438 3427 3215 3230 3151 3418 3318 3003 2616 2526 2293 2335 2022 1888 299 3 6 6 8 8 4 21 24 19 13 10 8
0 0 267 798 1243 1238 1510 2000 1829 1823 2368 2695 2946 2855 2496 2276 2370 2079 2550 2416 1795 1594 1565 1524 1664 1481 1625 1847 1154 189 6 5 8 8 10 8 25 11 10 30 30 16 18
0 0 0 144 914 1110 1148 1475 1505 1252 1300 1722 2214 2901 2929 2833 2558 1942 1742 1583 1596 1505 1631 1365 1376 1588 1493 1275 990 629 274 100 9 2 2 14 29 24 23 25 28 24 15
0 0 0 20 318 644 831 1171 1264 1109 910 1326 1494 1929 2060 2200 2344 1716 1646 1783 1702 1472 1239 1107 856 860 1127 1205 852 628 467 242 21 3 3 6 9 9 6 8 20 20 14
0 0 7 48 287 574 784 848 577 624 706 953 1112 1209 1342 1238 867 1512 1536 1549 1474 1223 751 507 569 651 799 705 332 158 16 0 0 0 0 13 4 4 10 4 14 12 13
0 0 0 0 41 32 251 487 740 749 626 747 965 1007 881 649 266 398 675 498 293 532 505 401 258 41 0 0 0 0 0 0 0 0 0 0 20 36 7 11 12 1 5
11 3 0 2 4 5 85 373 682 760 678 594 410 481 493 462 242 375 459 109 24 0 0 0 0 0 0 0 0 0 0 0 0 5 3 3 42 55 73 79 52 24 7

GFSGL_con_mucape_063.txt.gz
CAPE
2652 2710 2437 2374 1997 2461 2948 3126 3050 2813 3270 3045 2695 2336 2014 2151 2740 3717 3695 2793 3332 3375 3212 2437 3249 3821 2073 1205 1020 943 867 822 763 738 607 1346 2956 3413 2760 2559 1882 2366 1593
2262 2754 2633 2829 2228 2183 2633 2739 3382 3453 3186 3430 3050 2957 2361 2089 2940 3612 2884 2564 2553 2766 3066 3721 2680 2103 3970 3912 2377 3825 1993 2326 1171 2822 1945 1781 3029 3199 3358 3642 2117 1764 1793
2069 1891 2484 2596 2636 2271 2904 2757 3225 3552 3636 2357 3092 3547 2952 2454 2921 3469 3792 3286 3022 3155 3146 3463 3483 3692 4305 2902 3553 2229 1732 2497 2453 2239 2543 2521 2564 2177 2710 3489 3704 3261 2494
1241 1460 2061 2512 2525 2381 2803 3143 3140 3574 3705 3553 3687 3630 3261 2712 2585 2552 3054 3430 3476 2844 3149 3230 3505 3858 4311 4734 3998 4723 3918 3520 2659 2522 2402 2331 2381 2933 2629 2188 2325 2372 2453
1885 1669 2093 2682 2682 2793 2635 3211 3216 3587 3644 3871 3898 3744 3616 2666 1862 2629 2903 3215 3641 3211 3205 3098 3271 3304 2541 3649 3332 4099 4249 3718 2863 2684 2532 2467 2294 2186 2803 2757 2515 2976 3401
2306 1906 2111 2877 2991 2966 2926 3171 3576 3711 3862 3991 3898 3944 3718 2155 1300 1015 1752 2433 2975 3306 3593 3768 3673 2646 2310 2184 2420 2566 2583 4011 4894 3084 2613 2463 3610 3208 3028 2999 3635 3475 3811
2855 2517 2609 2977 3089 3134 3117 3396 3647 3905 4090 4245 4108 4078 4103 3862 1528 1099 698 1734 2498 3003 3382 3851 3328 1845 2669 3842 2851 2477 2450 2264 2015 2927 3516 3730 3858 4229 4658 4828 3842 3969 4131
2825 3557 2984 3355 3442 3568 3627 3617 3882 4051 4100 4183 4241 4245 4290 3949 2426 1591 1085 2007 2121 2503 3228 3531 3797 3524 3604 3671 4141 3810 3716 3781 3270 2608 2841 3278 3830 4124 4294 4155 4474 4190 4115
3679 3244 3590 3538 3676 3904 3877 3975 4074 4171 4199 4143 4264 4390 4410 4212 2368 2036 1572 2134 2196 2957 3025 2977 3250 3849 3450 2739 3222 3186 3339 3503 2176 1595 1556 1849 2364 2623 2557 2885 3089 3113 3771
3683 3571 3769 3782 4032 4086 4116 4189 4261 4320 4236 3400 3860 4291 3913 4473 3363 2264 1823 2085 2514 2251 3301 3587 2558 2380 2615 2561 3278 3684 3723 3835 3784 3365 3554 2971 2934 3598 3592 3663 3374 3799 3928
3341 3649 4086 4066 4186 4309 4426 4472 4473 4384 3629 4321 4233 4252 4306 3938 4253 2732 2242 2720 2245 2185 2188 2017 2265 1988 1977 1803 1791 3180 3463 3749 3289 3329 3712 3994 4152 4812 4899 4305 4556 4687 4309
3549 3691 4087 4273 3688 3822 4474 4513 4549 4508 4451 4664 4442 4319 3584 4508 3207 3134 2732 2412 2415 2835 2519 1381 1764 1219 1413 1786 1822 1911 2131 2279 2348 2837 3279 3636 3685 3787 3748 4556 4988 4704 4167
3907 3990 4115 4207 4222 4189 4392 4530 4007 4377 3521 3565 3344 3013 2786 2833 3483 2580 2504 2529 2385 2270 2528 1775 1647 2365 2750 2738 2807 2867 2956 2821 2850 3302 3802 4018 3796 3635 4671 4284 3893 3341 3362
4145 4305 4208 4184 4137 4173 3665 3684 3374 3128 3423 3223 3205 3172 2668 2464 2220 3085 2515 2455 2436 2265 2066 1937 2186 2452 2875 3091 3349 3276 3147 3270 3539 3986 4066 3563 3554 3911 3787 3290 3257 3289 2820
3920 3767 4029 3321 3406 3985 3620 3536 3254 3404 2719 2920 2241 2206 2245 2867 2873 3072 3338 3546 3101 2626 2501 2782 2686 2874 3197 3462 3749 3987 3843 4124 3975 3887 3535 3860 3580 2950 3094 3184 2998 2682 2551
3079 3205 3003 3053 3206 3161 3445 2676 2483 2486 2474 2446 2553 2502 2877 2779 2947 3049 3168 3527 3913 3746 3199 3260 3464 3623 3765 3810 3686 3725 3933 3910 4336 4225 3895 3028 2970 3132 3238 2803 3061 2659 1583
3093 3255 3319 2730 3349 3735 3610 3418 3163 2728 2700 2666 2581 2627 2793 3117 3131 3120 3193 3414 3531 3749 3729 3938 3715 3664 4141 3894 3685 3821 4069 4072 4431 3831 3352 3234 3337 3243 2765 2325 2159 1435 1045
2202 2575 3000 3330 3464 3672 3785 3737 3454 3228 3042 2863 2457 2369 2517 2689 2815 2916 2753 2757 2853 3028 3662 3789 3754 3927 3970 4353 4512 4049 4164 3951 3995 3672 3538 3184 3331 2702 2303 1829 1408 1154 944
2159 2298 2372 2469 2758 3310 3181 3132 2869 3245 2983 2780 1517 1350 1781 1919 1841 1824 2118 2720 3295 3734 3619 3605 3858 3888 4090 4166 3738 3645 4051 3740 3137 2864 2857 3053 3100 2518 1558 1073 804 378 415
1684 1661 1713 1691 2056 1815 1414 1259 1351 1745 2208 2817 2565 2567 614 1276 1516 1971 2240 2154 2942 4091 4746 4463 4042 3674 3387 2830 2768 3143 2631 2685 2176 1917 2027 1821 1786 938 593 642 601 628 774
412 573 427 553 1355 554 406 1277 1416 1275 1602 2618 2537 2398 2665 2363 3050 3108 2202 2521 2773 2769 3110 3449 3113 2705 2838 2861 2506 2281 1736 1824 1814 1314 1154 1195 714 433 430 527 509 574 487
154 184 140 417 622 1635 1648 1407 763 1074 1644 2352 2431 1818 2177 2369 2324 3088 2667 2809 3160 3022 2752 2268 1808 1513 1594 1519 1130 1284 1341 1190 1234 1329 1358 1192 997 824 590 415 335 219 306
8 4 5 26 400 595 1034 719 674 1133 1260 1114 2013 1946 1311 1929 1750 1968 2126 1794 1884 1938 1760 1870 1838 1633 1464 1340 1336 1373 1386 1197 915 568 421 354 388 479 506 500 487 435 337
0 3 0 0 0 12 96 336 499 396 666 622 742 903 946 791 1689 2004 2143 2150 2422 2104 2107 1891 1670 1458 1339 1223 1310 1385 1328 922 583 348 287 233 113 26 17 69 454 119 93
0 0 3 1 0 0 9 134 252 416 499 514 595 489 387 367 230 393 882 1471 1501 1699 1169 760 836 860 875 1056 1131 935 359 199 42 0 0 0 0 14 41 36 58 85 36
0 0 0 0 3 1 0 0 124 228 248 169 81 103 77 24 40 48 90 246 475 451 334 230 222 174 111 75 94 7 0 0 0 0 0 1 6 10 20 20 23 111 75

GFSGL_con_mucape_066.txt.gz
CAPE
2285 1936 1917 1619 1258 1141 1616 1283 2098 2105 4008 3311 3729 3208 3175 2970 3717 3618 3099 2837 2944 2787 3240 3424 3258 2997 2908 2863 2405 1979 1829 2162 1721 1561 2012 2021 3120 3281 2166 2277 2517 2225 1877
2398 2194 2046 2300 1675 1405 884 2044 2625 3407 2866 4310 3346 3799 3060 3021 3160 3277 3143 2147 2991 2843 3324 3426 3520 3046 3479 3264 3031 3229 3443 3721 3079 2589 2595 2243 2125 2211 3030 3414 3052 2021 1652
2446 2355 2244 2123 2208 1814 1086 1508 2408 2155 2806 2672 3699 3064 3339 2786 2748 2918 3270 3111 2928 3294 3314 3676 3511 3711 3863 3292 3364 2716 2256 2546 2586 2410 2183 2707 2849 3062 2677 3236 3560 2754 2212
2119 2216 2278 2215 2174 1882 1914 1158 1959 2837 2580 2767 2738 3177 3079 2880 2595 2480 3307 3195 3236 2924 3457 3145 3457 3562 3706 3941 3623 3481 3529 3670 3181 3200 2545 2290 2334 2492 2899 2776 2697 2990 2835
1634 1844 2190 2326 2199 2270 1929 2099 1865 2008 2490 2916 2915 3064 3117 2981 2604 2330 2346 3024 3180 3280 3159 3143 3253 3185 2888 3471 3416 3784 3692 3686 3415 3184 2928 2741 2722 2821 2581 2509 2611 3028 3082
1463 1694 1985 2207 2319 2430 2240 2246 2373 2340 2645 2915 3050 3078 3133 2901 2162 1582 1888 2092 3098 2985 2939 2942 3382 2287 2024 2046 1957 2326 2523 3239 3253 3522 3335 2887 2844 3041 3152 2954 2791 2501 2799
1821 1823 1905 2338 2297 2327 2504 2108 2595 2472 2632 2907 3060 3225 3243 3178 2209 1389 1292 1917 2053 2431 3082 2890 2921 2451 2322 3021 2273 1874 1899 2060 2208 2496 2650 2592 2454 2430 2569 3146 3152 3195 3174
1948 2360 2068 2349 2284 2509 2372 2509 2174 2605 2609 2963 3092 3237 3346 3409 2839 2033 1212 1248 1920 2337 2554 2544 2887 2844 2744 3227 3280 3163 2774 2613 2522 2352 2289 2355 2596 2872 3257 3320 3404 3489 3120
2859 2234 2516 2071 2459 2523 2592 2553 2463 2514 2862 2862 3054 3331 3336 3382 3057 2637 2002 1200 1486 1812 1881 2111 2783 3058 2497 2185 1912 2189 2434 2769 2850 2755 2871 3071 2922 2888 2913 3010 2551 2868 2984
2274 2827 2839 2310 2601 2665 2676 2696 2672 2759 2779 3000 3077 3246 3276 3437 3239 2818 2452 1824 1751 1833 2221 2376 2089 1705 1781 2113 2681 2993 2942 2885 2864 2817 2882 2770 2821 2928 2912 3142 3410 3564 3530
2725 2498 3087 3567 2719 3121 3175 3161 3150 3103 3131 3337 3331 3351 3622 3451 3659 3145 2547 2191 2052 2164 2091 2145 2392 2300 2161 1875 1882 2271 2431 2519 2824 3126 3144 2800 3141 3821 3898 4145 3959 3748 3844
3482 3004 3670 3120 3518 3321 3612 3703 3545 3598 3573 3562 3616 3588 3464 3796 3313 3438 3156 2437 2219 2364 2217 2300 2226 1956 2276 2167 1989 1756 1656 1934 2143 2379 2405 2515 2982 3370 3476 4289 4730 4258 3843
3487 3521 3558 4016 3654 3586 3880 3859 3899 3839 3686 3549 3606 3530 3629 3620 3809 3123 3083 3043 2617 2215 2408 2298 2052 1743 1696 1591 1449 1594 1773 2074 2451 2817 2919 3209 3550 3693 4561 4584 4391 3543 3093
3296 4043 3663 4104 3919 3700 3688 3798 3856 3777 3783 3683 3394 3683 3526 3461 3501 3763 3084 2928 2890 2669 2467 2371 2305 1972 2012 2531 2991 3016 2887 2933 3084 3354 3555 3804 4000 4083 4121 4175 3547 2932 3052
4210 3976 3721 3760 3434 3839 3390 3740 3769 3746 3624 3617 3454 3173 3541 3271 2946 2882 2987 2552 2502 2501 2416 2309 2497 2450 2214 2596 3439 3909 3426 3391 3384 3419 3562 3767 3876 4058 3475 3111 2822 2874 2682
3526 3731 3637 3390 3545 3530 3456 3134 3213 3390 3183 3127 3017 3085 2598 2516 2387 2117 1739 2498 2390 2859 3216 2950 2862 2903 2976 2967 3211 3659 4000 3919 4221 4488 4642 4450 3817 3355 3317 3058 3027 2759 2412
2395 2703 3245 2789 3155 3311 3407 3401 2772 2909 3027 2571 2753 2499 2800 2408 2639 2569 2650 2679 3180 3529 3300 3107 3283 3684 3728 3830 4263 4375 4135 4230 4234 3820 4153 3547 4259 4007 3248 2966 2708 2452 2536
1966 2259 2443 2616 2735 3375 3396 3186 3192 2510 2472 2158 2114 2173 2290 2391 2475 2736 2731 2826 2579 2656 2845 3636 3928 4030 4011 4159 4478 4229 4184 4191 4368 4069 3915 3800 3571 3383 2870 2825 2830 2730 2005
1839 2040 2098 2380 2571 2698 3489 3222 3477 3398 3186 3344 2476 2369 2244 2275 2223 1762 1644 2279 3160 2756 2769 2662 2738 3538 4798 4360 3651 4195 3837 4013 4177 4052 3615 2985 2703 2899 2693 2380 2114 1093 631
1445 1629 1543 1671 1872 2277 2167 2518 2746 2377 2268 2608 2230 1784 1442 1173 1106 864 633 568 1929 2482 3140 2433 3996 3776 3801 4002 3397 3703 3371 3300 2898 2567 2283 2026 2266 1904 1531 1469 986 910 935
1126 868 1111 1387 1274 1708 1613 1412 1341 957 454 979 1127 1104 435 739 2065 2259 1708 1528 1825 2276 2495 3110 3315 3105 3062 2679 2895 2427 2548 2103 2252 2272 1580 1077 1206 896 964 775 670 546 595
539 667 782 956 1056 1072 959 1033 893 681 753 565 1706 1066 1632 1535 2586 2717 2252 1953 1908 1738 2024 2221 2233 2288 2060 2495 2057 1723 1501 1166 1198 1067 963 883 803 680 416 382 410 331 281
328 349 365 317 355 692 611 596 751 478 165 46 202 830 1059 1130 1346 1869 1811 1257 971 1278 1756 2026 2015 2241 2034 1428 1403 1448 1295 1046 1057 1148 1082 906 580 306 188 153 140 89 29
151 217 176 98 302 117 25 7 143 224 393 513 963 872 149 310 975 1363 1344 1136 1123 1011 1351 1364 1611 1763 1430 1507 1526 1466 1312 1183 1061 1032 938 702 405 131 31 30 71 96 12
15 4 0 4 1 76 76 75 81 71 89 28 358 474 408 340 736 1040 934 939 1115 1647 1255 1470 1841 1782 1888 1681 1363 1203 1113 647 454 172 0 0 0 0 5 15 71 78 87
0 1 2 0 0 0 0 1 19 40 68 103 41 296 261 290 252 107 0 0 0 10 208 383 538 603 342 214 182 87 22 13 17 0 0 0 0 0 1 7 9 5 8

GFSGL_con_mucape_069.txt.gz
CAPE
510 711 142 24 772 898 539 303 1079 981 1365 2061 1938 2208 2389 2232 1653 1751 1309 1549 1436 1342 1308 1694 1999 1612 1189 1419 2242 1873 1656 808 595 534 872 1380 1429 1325 1317 1274 1229 1342 1297
716 740 816 146 250 628 755 260 511 920 912 1954 2003 2060 1837 1689 2102 2206 1637 1575 1882 1561 1566 1895 1979 1831 1579 1674 1914 1567 1796 2028 1827 1286 1090 889 1520 2053 1919 1907 1906 2086 2093
1065 702 998 869 106 405 303 610 312 1517 707 1123 1770 1895 1868 1869 1674 1845 2140 1668 1631 1806 1599 1793 2016 2108 2016 2051 1840 1679 1782 1741 2378 2679 2385 2303 2523 2207 2066 1919 1977 2177 2366
1213 1245 969 996 966 204 186 53 1059 944 2042 1778 1873 1726 1960 1590 1599 1758 1889 2039 2048 1958 2147 2084 2204 2499 2275 2337 2641 2623 2414 2262 2079 2146 2249 2232 2452 2418 2278 2265 2185 2376 2697
1534 1500 1362 1169 1093 1184 658 408 16 1246 926 1588 1838 2056 1997 1975 1780 1585 1693 2061 2157 2209 2108 2038 2340 2193 2439 2580 2684 2661 2655 2617 2631 2715 2701 2814 3046 2724 2279 2328 2573 2259 1721
1506 1735 1620 1446 1318 1261 1298 1013 748 337 1647 1071 1107 1694 2035 2094 2070 1871 1572 1614 2417 2222 2262 2336 2333 2288 2289 2403 2369 2786 2910 2947 3040 3162 2875 2488 2415 2328 2014 2062 1885 1739 2285
1051 1607 1669 1647 1545 1399 1383 1279 1175 932 546 1722 1787 1806 1816 2048 2116 2134 1933 1454 1182 2000 2266 2181 2258 2122 2230 2226 2118 1942 1775 1746 1879 1955 1881 1875 1902 1912 1933 2237 2179 2225 2433
1048 1248 1589 1609 1571 1570 1483 1473 1280 1291 971 989 1252 1761 1986 1993 2280 2204 2063 1717 1426 1203 1946 2293 2143 2087 2060 2012 1989 2031 2053 1943 1827 1843 1908 2052 2281 2455 2574 2383 2268 2511 2810
1249 1183 1419 1535 1590 1605 1496 1499 1562 1487 1591 1318 1616 1847 2046 2124 2359 2427 2246 1769 1334 1339 1340 1432 1714 2060 2095 2143 2019 2167 2495 2849 3091 3134 3082 2890 2578 2384 2240 2275 2606 2684 2582
1171 1500 1472 1399 1618 1478 1612 1468 1663 1576 1378 1745 1564 1804 2093 2133 2312 2546 2458 2155 1734 1290 1124 1383 1810 1900 1957 1933 1805 1831 1809 1739 1555 1458 1825 2035 2233 2410 2749 2654 2508 2653 3162
1348 1721 1773 1505 1542 1588 1565 1633 1543 1653 1534 1406 1784 1774 2005 2308 2373 2509 2681 2518 1963 1433 1229 1066 1221 1308 1278 1187 1321 1386 1758 2000 2236 2386 2410 2630 2812 2547 2490 2996 3234 3378 3473
1528 2054 2077 2022 1618 1816 1718 1816 1778 1735 1742 1683 1677 1936 1988 2198 2415 2618 2654 2635 2415 2015 1520 1313 1152 1352 1600 1616 1558 1525 1536 1440 1504 1719 2025 2125 2187 2593 2600 2764 3171 3693 3764
1766 1937 2190 2373 2066 1838 2009 1942 2002 1973 1940 1916 1994 2022 2169 2304 2553 2738 2732 2858 2752 2439 2039 1751 1583 1735 1774 1812 1852 1975 2002 1848 1692 1587 1537 1868 2450 2768 2836 3568 3702 3600 3207
1596 2027 2653 2604 2714 2214 2517 2253 2329 2285 2316 2214 2249 2318 2418 2426 2599 2778 3009 3041 2989 2949 2744 2394 1952 1804 1726 1665 2123 2259 1859 1507 1456 1586 1938 2686 2917 3130 3396 3877 3464 3292 2823
1463 1891 2790 2610 3004 2794 2734 2836 2558 2638 2601 2535 2488 2485 2393 2637 2630 2765 3031 3068 3061 2903 2805 2711 2414 2204 2022 1967 1974 1985 2241 2664 2596 2545 2814 2950 3080 3213 3506 3436 3259 2963 2555
1759 2540 3141 2854 3149 3017 2781 2721 3035 3010 2997 2902 2752 2707 2759 2619 2875 2881 2870 3164 3059 2975 2602 2544 2441 2342 2223 2144 2027 1814 2743 2838 2966 3037 3160 3172 3558 3709 3698 3096 2783 2714 2677
1845 2916 2967 3105 3067 3181 3064 2843 2552 2773 3128 3079 2981 2925 2867 2939 2593 2643 2924 2562 2857 2961 2646 2274 2493 2838 2731 2414 2214 2279 2346 3070 3337 3567 3533 3484 3625 3241 3009 2536 2550 2908 2553
1176 1835 2282 2395 2751 2740 2946 3039 2832 2545 2686 3153 2952 3081 2999 2513 2477 2495 2365 2326 2068 2249 2331 2356 2550 2547 2888 2962 3140 3197 3224 3517 3590 3370 3283 3224 3133 2937 2686 2812 2820 2325 2092
1001 1327 1622 1912 2369 2487 2548 2708 2737 2640 2498 2491 2706 2586 2473 2794 2398 2364 2480 2476 2321 2112 2349 2298 2337 2454 2613 3020 2967 2945 2725 2558 2601 3126 3295 3168 2994 2863 2383 2138 2007 1890 1127
421 1153 1456 1586 1704 1719 2239 2815 2829 2573 2521 2459 2507 2517 2139 2136 2260 2203 2047 1874 2100 2196 2284 2006 1657 1141 694 1396 1325 1452 2303 2474 2207 2562 2880 2588 2506 2021 1815 1005 1052 976 940
839 646 760 630 931 1712 1719 2243 2227 2050 2154 2394 1869 1794 1804 1689 1682 1004 533 662 637 1116 813 1366 2109 1442 548 946 969 1142 523 1565 1752 2001 1454 1401 1230 1216 509 585 689 510 236
326 241 471 843 963 1328 1158 1689 1573 1327 1298 1341 1236 1061 236 351 1115 1596 1432 1206 1311 1410 1816 2047 1494 1404 1320 1492 1536 1408 1407 1508 1494 807 1247 927 672 623 578 498 349 213 90
392 316 266 376 554 569 968 922 944 891 926 959 545 244 192 372 884 1358 1545 1227 1169 1280 1143 1540 1132 840 945 1171 1177 1141 919 974 785 823 862 766 880 756 780 474 303 102 32
141 261 128 140 165 177 360 461 440 485 521 533 242 78 82 275 349 748 667 597 842 732 682 611 740 790 936 1160 1082 885 822 906 879 877 738 814 386 527 450 202 48 0 8
0 12 70 10 96 11 41 12 149 142 112 242 181 149 106 65 135 272 598 201 497 419 537 612 699 485 421 570 903 796 856 730 596 598 563 167 0 0 0 0 0 0 5
0 3 6 3 3 14 13 18 44 71 26 13 23 87 155 175 82 12 44 213 417 421 408 296 175 362 54 364 387 304 459 163 31 5 0 0 0 0 0 0 4 2 6

GFSGL_con_mucape_072.txt.gz
CAPE
333 158 63 16 183 792 335 265 808 1220 1094 1199 1371 1496 1397 1320 1352 1359 1364 1122 1088 1094 830 1116 859 1420 1477 946 1138 1428 1528 1194 801 611 527 971 1123 763 1611 2057 1840 1767 1751
388 345 151 20 30 480 804 255 223 635 911 1454 1450 1470 1399 1497 1284 1159 1194 1008 999 1255 1041 1028 1139 1586 1680 1623 1189 1365 1040 1217 1525 1306 1081 1841 2091 2073 2037 1806 1900 2080 1918
377 385 394 166 0 94 503 755 431 394 788 1559 1581 1698 1578 1596 1626 1340 1183 1251 1240 1489 1466 1388 1198 1392 1439 1694 1407 1581 1443 1492 1788 2208 2580 2201 1958 1778 2194 2363 2419 1901 1902
477 458 516 552 230 7 159 353 660 454 350 699 1688 1534 1462 1617 1916 1937 1885 1766 1549 1334 1370 1476 1479 1412 1406 1614 1830 1880 1814 2074 2081 1837 1621 1616 1990 2360 2679 2707 2378 2195 1768
640 672 450 744 696 349 81 153 173 496 360 661 816 1620 1698 1595 1385 1193 1220 1335 1489 1517 1529 1598 1725 1873 1995 2103 2142 1942 2135 2212 2171 2115 2186 2345 2610 2974 2980 2544 1995 1456 1630
808 839 812 567 873 832 627 374 65 18 517 620 1197 1100 1356 1464 1439 1368 1394 1392 1408 1452 1432 1584 1794 1788 1871 2041 2109 2248 2248 2163 2208 2346 2404 2533 2659 2590 1886 1639 1637 1960 2170
1053 1079 1117 1050 858 899 976 849 698 451 17 601 656 1367 1508 1615 1639 1601 1498 1268 1231 1487 1576 1553 1671 1815 2001 2049 2107 2124 2037 2125 2434 2526 2538 2403 2033 1689 1676 1921 2242 2211 2014
788 1122 1526 1457 1339 1134 1039 1177 1118 981 875 467 982 741 827 1310 1680 1857 1783 1651 1470 1356 1328 1787 1949 1877 1820 1943 1897 1755 1751 1760 1775 1743 1715 1676 1660 1796 2370 2697 2337 2011 2095
750 929 1019 1750 1652 1502 1406 1308 1266 1231 1162 1066 843 1237 1422 1172 1265 1544 1756 1841 1772 1701 1582 1374 1406 1498 1634 1794 1796 1788 1717 1736 1779 2062 2437 2758 2894 2956 2690 2166 2122 2177 2461
929 1024 1003 1033 1554 1689 1630 1543 1447 1364 1263 1186 1125 949 751 1271 1588 1672 1759 1648 1659 1719 1683 1551 1415 1331 1545 1799 1835 1701 1627 1583 1403 1322 1305 1382 1615 1726 1995 2137 2568 2613 2426
487 520 807 930 1365 1550 1654 1599 1520 1496 1391 1311 1273 1130 1147 1285 1395 1679 1847 1851 1573 1444 1619 1447 1304 1192 1214 1241 1208 1146 1283 1309 1292 1440 1674 1906 2114 2195 2374 2615 2492 2396 2543
179 112 457 1006 1485 1753 1590 1581 1467 1431 1518 1387 1371 1483 1369 1378 1682 1754 1869 1997 1848 1677 1469 1240 1097 1015 941 986 1284 1409 1418 1361 1071 1048 1090 1250 1430 1679 1853 2337 2512 2814 3129
150 239 323 865 1471 1663 1805 1515 1540 1453 1464 1487 1380 1261 1442 1531 1592 1855 1956 2015 2058 2073 1838 1677 1471 1335 1262 1186 1095 1057 1106 1148 1373 1530 1585 1546 1441 1347 1896 2575 2789 2913 3529
134 353 707 939 1381 1835 1804 1790 1682 1488 1420 1401 1501 1422 1354 1470 1752 1810 1915 2125 2243 2223 2208 2091 1989 1895 1834 1768 1541 1517 1590 1558 1254 1029 1048 1147 1192 1669 2468 2693 3066 3508 3436
10 199 915 1455 1462 2125 1772 1875 1883 1721 1568 1526 1564 1571 1663 1695 1741 1953 2070 2157 2278 2365 2478 2467 2300 2310 2310 2219 2004 1756 1534 1569 1668 1742 1587 1432 1733 2375 2744 2955 3287 3366 3139
25 160 770 1722 1888 2279 2407 2051 2003 2063 1919 1805 1777 1739 1811 1918 2041 2162 2172 2373 2475 2513 2450 2404 2440 2535 2444 2328 2213 2129 1978 1816 1783 1742 1637 2004 2233 2749 2888 3168 3346 3206 2499
10 128 541 1911 2378 2611 2606 2555 2356 2319 2274 2264 2110 2177 2222 2273 2238 2216 2416 2483 2584 2673 2683 2654 2729 2548 2382 2209 2451 2353 2143 1970 1846 1729 1724 2244 2729 3085 3142 3380 2798 2421 2402
6 93 278 702 2341 2705 2961 2851 2616 2587 2729 2779 2791 2737 2664 2604 2603 2667 2702 2610 2634 2674 2622 2739 2844 2772 2541 2234 2483 2374 2582 2796 2791 2697 2649 2710 2915 3043 2938 2765 2521 2511 2594
11 86 438 574 1208 1892 2457 2844 2716 2435 2390 2471 2795 3079 2993 2972 2887 2878 2763 2183 2304 2332 2352 2387 2465 2277 2320 2056 2585 2717 2718 2630 2366 2171 1825 1368 1394 1085 1269 1506 2051 2142 2035
22 91 104 399 848 1226 1572 2109 2048 2341 2375 2247 2217 2130 2806 2872 2427 2785 2619 2059 2056 1990 1801 1622 1649 1847 1923 1916 1992 1935 1719 1127 854 1236 1301 902 183 139 0 612 1143 1064 717
53 152 186 262 754 1358 1486 1557 1571 2079 1964 2167 2028 2124 2169 2485 2235 2430 2355 2046 2006 1914 1676 1629 1692 1779 1442 1186 771 727 251 204 603 865 347 17 1 1 194 1013 623 482 455
84 207 342 467 573 542 624 761 1228 1827 2225 2208 2268 2186 1620 1654 1684 2066 2035 2014 1848 1503 1079 1320 1384 1237 953 645 248 333 132 128 60 31 189 52 3 241 495 508 447 385 285
102 231 244 380 264 415 803 1013 1254 1309 1519 1712 1670 1320 1282 1334 1469 1441 1569 1098 582 315 264 338 285 334 455 703 384 46 35 144 241 145 139 180 207 259 405 360 358 262 290
50 306 213 211 209 393 643 660 757 842 852 863 858 1054 1075 1190 689 554 288 206 295 485 538 515 519 419 318 195 115 245 448 373 438 617 448 341 378 411 350 373 294 313 289
13 128 196 308 250 277 119 213 463 337 274 443 841 903 791 732 507 335 391 501 683 525 418 464 468 514 327 379 405 387 399 398 444 401 517 602 632 275 299 369 7 0 0
0 3 30 234 227 130 89 119 136 187 189 131 326 354 170 68 78 84 68 154 155 109 238 100 145 209 362 425 402 260 260 292 288 442 534 391 244 104 0 0 0 0 0

GFSGL_con_mucape_075.txt.gz
CAPE
234 112 78 109 219 338 201 81 177 768 1020 913 996 1484 1513 1661 1404 1132 1107 1099 1009 983 909 1059 1121 997 1129 1092 800 1084 1101 1251 1110 864 823 1061 1193 1912 1915 1663 1830 2295 2293
237 252 106 30 50 159 289 310 260 159 615 1202 1026 1165 1311 1464 1508 1158 1112 1242 1222 989 1141 1066 932 921 1414 1666 1575 1072 1111 959 1107 1027 1023 1339 2090 1835 1588 1810 2306 2573 1970
177 226 222 56 27 31 99 254 311 320 174 608 913 1129 1275 1267 1346 1299 1257 1121 1284 1128 1112 1513 1514 1253 1073 1208 1441 1440 1335 1505 1408 1678 2013 2032 1576 1430 1867 2399 2604 2512 1967
185 258 189 190 117 68 26 53 261 327 332 216 906 1181 1315 1308 1334 1332 1257 1194 1236 1214 1333 1301 1403 1380 1527 1314 1081 1324 1644 1744 1676 1874 1862 1839 1837 1996 2175 2365 2317 1788 1519
211 244 268 238 235 165 78 2 21 179 226 287 347 1215 1412 1418 1433 1374 1466 1521 1622 1573 1664 1572 1426 1397 1475 1712 1739 1501 1846 1880 1857 1950 1961 1991 2068 2147 2142 2327 2076 1548 1669
338 364 357 317 341 419 335 188 33 0 85 139 220 275 1105 1436 1405 1367 1408 1586 1727 1653 1433 1359 1392 1485 1614 1717 1834 2048 2198 2171 2006 1935 1883 1873 1829 2025 2051 1877 1515 1652 2193
491 416 433 476 503 526 619 493 296 117 44 10 107 358 390 744 1289 1461 1445 1430 1250 1120 1187 1248 1229 1240 1424 1542 1705 1738 1791 1923 2039 2057 2064 2040 2003 1905 1739 1609 1737 2316 2551
614 720 700 708 641 599 672 642 546 423 241 182 152 63 490 571 839 1115 1359 1402 1273 1209 1136 1142 1197 1211 1351 1594 1735 1734 1742 1791 1756 1689 1652 1596 1676 1737 1927 2325 2476 2628 1922
263 686 729 1006 1011 1053 1020 955 873 767 670 562 512 471 354 215 820 1207 1335 1355 1352 1332 1312 1310 1251 1316 1387 1505 1580 1517 1474 1603 1596 1526 1537 1541 1611 1818 2221 2270 2239 1839 1712
386 405 476 972 1377 1407 1378 1474 1376 1176 1025 1009 919 864 793 718 391 661 1293 1194 1280 1366 1334 1199 1259 1331 1439 1445 1365 1293 1153 1178 1339 1354 1256 1291 1264 1249 1345 1602 1855 1945 2098
428 377 752 794 874 1042 1136 1392 1461 1441 1408 1226 1151 1092 1063 914 834 874 811 769 795 908 956 938 927 1043 1288 1448 1408 1328 1271 1224 1156 1024 1044 1160 1265 1365 1512 1698 1865 2081 2291
173 193 170 889 840 657 932 1262 1485 1487 1454 1455 1321 1205 1156 1100 944 883 1144 1364 1200 1148 1007 923 816 891 930 1011 1075 1058 1074 1122 1129 1194 1292 1369 1101 954 1116 1297 1485 1686 2342
92 131 124 182 825 943 734 1347 1443 1516 1554 1504 1418 1328 1182 1192 1147 1098 1027 980 1121 1185 1158 1285 1266 1191 1077 1001 976 940 976 1049 977 944 944 928 1142 1364 1368 1285 1322 1976 2632
131 162 123 186 203 420 775 1359 1431 1467 1557 1490 1466 1379 1188 1213 1306 1272 1228 1330 1398 1438 1540 1585 1586 1576 1607 1622 1618 1600 1584 1602 1393 1225 1258 1524 1320 998 892 1059 1834 2484 2901
0 115 209 221 217 593 1042 1295 1577 1477 1529 1518 1493 1380 1287 1229 1175 1312 1385 1389 1436 1516 1678 1711 1654 1693 1793 1868 1920 1934 1934 1939 1809 1527 1438 1337 1285 1307 1341 1656 2506 2814 3148
0 5 90 64 136 682 1198 1367 1772 1714 1600 1553 1568 1401 1424 1467 1306 1195 1442 1581 1528 1524 1552 1618 1524 1525 1597 1704 1777 1874 2012 2144 2123 1949 1745 1627 1559 1567 1471 1829 2651 2853 3016
0 0 0 0 1 511 1005 1584 2028 2073 1811 1674 1644 1593 1627 1822 1732 1563 1590 1584 1700 1901 1982 2052 2071 2044 1886 1904 1927 2017 2072 2080 1974 1928 1920 1874 1785 1666 1494 2304 2722 2927 2468
0 0 0 0 0 73 1063 1797 1992 2278 2261 2176 1818 1775 1899 2052 1952 1732 1750 1844 2105 2097 2226 2284 2279 2317 2375 2323 2428 2442 2255 2183 2095 2016 1963 1932 1668 1586 2131 2366 2322 1866 1336
0 0 0 0 0 3 299 1207 1926 2673 2672 2692 2636 2317 2201 2189 2263 2303 2161 2267 2324 2304 2292 2518 2493 2357 2336 2524 2496 2447 2343 2073 2410 2269 2278 2376 2287 2173 2005 1716 1519 1206 772
0 0 0 0 0 5 20 484 1172 1919 2377 2558 2535 2235 2178 2017 2361 2424 2373 2360 2189 2281 2513 2529 2371 2310 2202 2178 2163 2055 2044 2083 2036 2068 2029 2152 1918 1276 1205 1201 337 182 181
0 0 0 0 0 3 18 185 701 1203 1624 1867 1995 1967 1936 1759 1974 2129 2205 2123 2013 1540 2089 2201 1884 1853 1763 1635 1518 1715 1688 1536 1424 1494 1164 847 760 196 68 100 110 58 77
0 0 0 0 2 5 179 353 762 586 852 1098 1692 1829 1745 1641 1385 1643 1657 1837 2222 1946 1854 1904 1751 1608 1398 1489 1649 1613 1349 1050 778 383 469 711 408 47 45 72 209 59 148
0 0 0 0 6 52 146 212 184 180 318 533 890 1324 1500 1657 1750 1447 1386 1649 1935 1921 1993 1749 1627 1481 1500 1535 1321 1141 887 551 185 122 145 35 71 24 80 305 400 272 105
0 0 0 0 9 92 127 139 129 402 642 921 865 553 906 1635 1842 1533 1534 1641 1718 1733 1604 1130 1320 761 834 726 601 514 292 122 135 87 71 147 159 186 264 197 161 127 109
1 0 0 0 50 82 44 96 218 473 561 517 471 540 671 899 1345 1067 1242 1194 893 1086 992 1025 213 144 123 92 53 81 97 91 38 100 257 211 219 322 268 267 315 264 130
9 2 8 22 14 155 223 334 253 281 187 319 673 216 362 967 662 752 749 696 758 574 404 244 177 181 137 155 103 94 107 125 173 209 231 168 195 99 222 45 4 186 61

GFSGL_con_mucape_078.txt.gz
CAPE
177 226 188 49 28 0 0 41 302 424 675 800 953 1290 1175 995 1024 1096 991 936 1034 939 899 828 968 1012 995 962 873 923 853 897 1049 1147 1017 1035 1200 1858 2238 2011 1890 2401 2216
236 290 269 184 39 0 0 0 3 259 380 694 898 1036 1168 998 1085 1156 1179 1094 890 888 974 875 895 836 1028 1271 1559 1550 1356 907 1038 1327 1174 1376 1762 1829 1879 2059 2260 2174 2025
235 341 271 195 133 84 68 1 0 36 102 252 565 989 1068 1110 1045 1119 1240 1218 1078 1001 1040 985 1140 1218 1285 1174 1187 1191 1471 1403 1445 1414 1507 1722 1701 1678 2111 2258 2374 2366 1791
246 230 293 200 154 117 30 59 34 6 33 86 414 752 1015 1103 1141 1183 1106 1188 1086 982 1053 1081 1249 1204 1401 1479 1413 1471 1319 1410 1571 1680 1786 1791 1783 1826 1760 1856 2495 2399 2016
204 205 240 239 95 101 0 0 0 0 0 47 206 621 1009 1197 1123 1279 1257 1178 1150 1098 1063 1067 1180 1304 1354 1384 1526 1822 1764 1785 1886 2075 2060 1882 2159 2088 2319 2180 1828 1816 1826
232 285 268 218 142 81 56 48 18 0 0 0 46 366 821 1078 1127 1189 1179 1406 1437 1463 1495 1421 1406 1446 1420 1329 1368 1369 1506 2173 2272 2013 2312 2075 2365 2059 2152 1847 1659 1708 1876
211 216 238 282 274 236 226 139 114 121 75 22 10 50 334 687 916 1153 1227 1320 1376 1392 1492 1517 1269 1147 1031 1508 1254 1173 1301 1508 1561 2154 2213 2321 2298 2397 2201 2080 1698 1750 1644
234 416 296 323 356 357 357 370 368 350 348 282 190 83 115 190 320 871 1060 1067 1194 1190 1171 1195 1230 1337 1201 1283 1436 1515 1536 1543 1452 1436 1468 1764 2102 2142 2024 1892 1545 1552 1492
174 445 586 656 451 426 457 518 457 532 526 485 425 331 248 205 86 204 601 595 894 1158 1079 1069 1150 1242 1045 1034 1327 1610 1702 1640 1268 1169 1200 1301 1346 1313 1265 1337 1211 1442 1652
266 293 666 593 708 752 814 762 655 715 837 785 761 714 663 594 521 454 336 242 336 589 967 1080 901 1029 1106 1119 1108 1433 1499 1520 1542 1385 1112 1047 1116 1056 922 974 1026 1307 1660
322 340 287 371 577 1090 1074 1030 894 903 955 1073 1154 1065 947 947 936 848 753 579 508 499 687 737 1172 925 1033 1002 950 1175 1184 1429 1333 1122 1310 1151 1026 960 986 1083 995 1068 1699
9 114 321 362 554 683 779 1254 1645 1222 1220 1176 1155 1241 1175 1154 1112 1044 1030 838 696 604 588 631 710 546 670 716 699 686 779 898 1004 1089 994 964 1075 1142 1198 1264 1661 1197 1477
0 0 22 101 110 299 726 344 319 987 1337 1161 1154 1166 1261 1258 1241 1200 1108 1045 792 689 718 721 701 741 757 719 764 818 765 741 784 777 781 810 934 953 996 1099 1162 1327 1294
0 0 0 15 65 48 9 33 195 941 1393 1296 1396 1353 1283 1323 1292 1232 1165 1043 1004 905 826 843 943 919 949 1116 1227 1295 1286 1262 1218 1152 1219 1340 1316 1083 1088 1187 1110 1311 1767
0 0 0 0 20 5 21 94 233 555 1320 1445 1533 1544 1460 1266 1350 1284 1198 1152 1104 1032 982 973 997 1023 1084 1156 1257 1379 1453 1513 1562 1583 1575 1645 1639 1318 1247 1156 1067 1591 2429
0 0 0 0 0 2 0 22 315 694 1037 1346 1343 1374 1459 1280 1239 1249 1174 1167 1183 1127 1082 1103 1114 1101 976 1209 1105 1388 1090 1044 1178 1364 1623 1810 1869 1727 1421 1221 1386 2074 2462
0 0 0 0 0 4 0 0 80 500 853 1598 1655 1434 1305 1318 1297 1310 1307 1200 1227 1235 1320 1275 1272 1329 1331 1487 1921 1452 1442 1062 1118 1395 1693 1843 1863 1848 1762 1660 1681 1974 2071
0 0 0 0 0 0 0 0 2 222 436 887 1579 1642 1492 1301 1322 1313 1263 1421 1437 1419 1403 1527 1612 1664 1652 1937 2070 2034 1823 1731 1878 2038 1978 1862 1908 1853 1759 1697 1697 1974 2208
0 0 0 0 0 0 0 0 0 9 370 552 1316 1719 1690 1725 1550 1419 1441 1484 1578 1569 1639 1651 1632 1692 1642 1699 1690 2031 1690 1858 2010 2213 2206 1881 1985 1793 1695 1578 1711 1610 2108
0 0 0 0 0 0 0 0 0 0 82 442 920 1571 1765 1590 1705 1715 1789 1698 1736 1883 1893 1880 2032 2076 1939 1799 1963 1988 2097 1899 1956 2063 2072 2166 2176 2005 2015 1658 1623 1665 1425
0 0 0 0 0 0 0 0 0 0 0 268 664 1066 1467 1428 1555 1679 1864 1909 1926 1926 1957 1917 2023 1956 1711 1830 1809 2021 1706 1780 1702 1757 1926 1952 1702 1676 1576 1586 1410 1142 983
0 0 0 0 0 0 0 1 0 0 43 49 540 834 922 1376 1405 1519 1494 1540 1538 1616 1783 1795 1896 1974 1659 1588 1744 1635 1502 1504 1527 1651 1686 1438 1280 1300 1239 865 245 122 119
0 0 0 0 0 0 0 0 0 0 11 219 223 388 671 1015 978 1308 1398 1318 1068 1022 1112 1069 1454 1896 1883 1646 1469 1392 1137 1188 1317 1566 1176 945 750 596 623 436 136 76 51
0 0 0 0 0 0 0 0 0 0 12 132 155 327 484 812 942 737 861 965 1138 1174 1030 1140 1314 1622 1736 1466 1363 1242 801 797 940 622 696 632 457 293 161 69 58 47 216
2 10 9 1 0 0 0 1 0 0 4 49 44 258 364 624 576 445 467 627 874 1123 1168 985 1173 1397 1446 1266 1051 757 490 461 390 364 381 218 120 59 76 53 87 177 229
7 14 22 18 7 2 0 2 9 2 7 46 73 212 324 365 347 206 108 491 631 706 741 294 435 531 279 370 662 507 105 121 126 98 106 90 105 97 142 107 177 120 83

GFSGL_con_mucape_081.txt.gz
CAPE
604 1036 1011 768 609 745 799 1067 1444 1602 1884 2091 2236 2320 2415 2293 2463 2482 2314 1998 2211 2222 2208 2305 2262 2364 1767 1653 1781 1604 1535 1415 1251 1040 1802 1934 2611 3077 2915 3012 2447 2402 1950
649 839 940 1042 805 582 689 807 1163 1490 1665 1958 2238 2318 2408 2436 2509 2451 2371 1910 2235 2181 2130 2160 2103 1770 2289 2403 2150 2569 2259 2293 1927 2004 2107 2007 2618 2969 3116 3274 2751 1949 2778
390 344 487 600 778 804 775 769 814 1017 1368 1449 1894 2226 2439 2441 2450 2482 2576 2392 2419 2299 1993 2200 2180 2279 2464 2147 2358 2137 2028 2370 2459 2323 2264 2178 2570 2521 2782 2593 2701 2864 2199
441 464 480 590 573 684 1189 1071 868 912 1086 1129 1508 1688 1947 2437 2459 2375 2437 2546 2488 2380 2269 2136 2176 2265 2457 2789 2547 2743 2555 2580 2272 2423 2128 2244 2289 2441 2759 2090 1984 1753 2344
378 515 558 943 934 697 547 1142 1071 1025 998 1114 1374 1345 1617 1699 1814 2361 2440 2486 2478 2459 2328 2274 2176 1978 1762 1946 2103 2351 2540 2633 2365 2242 2102 2036 1993 1868 2055 1945 1791 1929 2431
508 531 855 804 929 1064 871 719 1322 1190 1049 1120 1028 1195 1373 1094 618 998 1837 2301 2409 2433 2478 2448 2353 1470 1233 1114 1230 1247 1375 2516 2468 2062 1580 1735 2430 2429 1837 1884 1894 1990 1576
441 688 924 881 865 930 861 995 1216 1084 1023 1039 1005 1065 1535 1721 718 598 998 1700 2187 2472 2556 2566 2375 1934 1878 2363 1694 1186 1076 1041 1098 2228 2409 2361 2504 2359 2550 2715 2506 2241 2201
482 620 920 902 915 1010 973 876 1036 774 917 1118 954 1160 1306 1197 603 540 731 1391 2131 2301 2372 2533 2664 2478 2392 2168 2282 2239 2167 2205 1883 1297 1707 2203 2459 2539 2855 2630 2639 2477 2272
388 276 227 531 765 987 1091 1063 938 770 714 711 714 950 1073 1356 310 213 298 1005 1307 2343 2415 2329 2388 2521 2125 1522 1855 2079 2176 2145 1442 1365 1311 1441 1382 1202 1135 1624 1748 1726 1463
313 350 215 375 470 522 1016 1347 1318 1266 926 778 651 877 578 1298 589 209 124 370 883 936 1661 2401 1414 1547 1563 1316 1423 1920 2164 1881 1615 1545 1873 1363 1155 997 915 913 1667 1738 1548
42 257 281 315 308 393 556 794 1214 1535 1616 1496 1043 1079 1123 910 878 596 490 520 721 892 824 847 766 592 706 861 921 2026 2196 1605 1212 1594 1481 1614 1719 1906 1927 1528 1543 1703 1584
12 74 100 180 215 303 429 506 608 1139 1189 1916 1724 1447 1280 1259 1020 1034 888 834 727 921 1324 1053 1186 600 584 581 602 607 914 1001 1290 1154 995 1126 1328 1382 1463 1719 2196 2270 1925
0 3 10 47 116 138 284 371 571 610 817 1028 1631 1361 1634 1634 1638 1001 1050 1031 965 920 1031 1091 831 721 530 449 633 451 454 476 863 1051 1009 912 1007 1172 1754 1967 1891 2032 2287
0 0 0 1 0 33 84 167 463 414 224 551 1275 1305 1707 1285 1890 1872 1165 1052 1120 1097 975 889 670 621 624 744 603 598 666 850 1091 1131 1052 1020 1169 1460 1576 1715 1701 1751 1923
0 0 0 0 0 0 0 1 61 273 73 97 463 1282 1305 1625 1896 1624 1650 1429 1025 1062 977 931 972 1184 1249 1253 1221 1410 1484 1148 1087 1291 1444 1392 1403 1509 1653 1912 1881 1800 1810
0 0 0 0 0 0 0 0 0 0 36 37 117 396 732 1238 1627 1517 1272 1153 1106 1008 1028 1150 1345 1536 1141 1107 1183 1302 1359 1165 1534 1297 1348 1379 1394 1560 1721 1922 1935 1851 1826
0 0 0 0 0 0 0 0 0 0 0 0 141 332 727 787 964 1390 1301 1052 946 933 997 1373 1307 1182 1131 1300 1440 1389 1189 1710 2272 1428 1336 1384 1510 1682 1859 1998 2135 2106 2057
0 0 0 0 0 0 0 0 0 2 0 0 5 320 478 1083 1130 1066 996 1022 903 1001 1223 1393 1861 1417 1620 1689 1428 1547 1533 1424 1669 1871 1731 1704 1898 2033 2166 2157 2112 2345 2261
0 0 0 0 0 0 0 0 0 0 8 0 0 29 354 586 906 1131 905 1340 1166 1367 1138 1207 1479 1803 2153 2038 2191 2191 1893 1589 1831 2319 2419 1994 1780 2016 1939 1764 1899 1791 1714
0 0 0 0 0 0 0 0 0 0 0 0 0 0 194 380 721 971 942 1040 1080 1661 1873 1638 1640 1835 2224 2395 2126 2375 2511 1994 1607 1913 2185 2258 2112 2261 1989 1833 1933 1974 1579
0 0 0 0 0 0 0 0 0 0 0 0 0 0 9 237 311 665 1100 1037 1063 1190 1196 1582 1329 1232 1551 1718 1839 1811 1805 1568 1575 1700 1794 2518 2461 2286 1983 2010 1926 1673 2309
0 0 0 0 0 0 0 0 0 0 0 0 0 13 10 80 269 420 781 896 863 867 720 862 830 969 1265 1193 1358 1444 1538 1593 1302 1409 1382 1910 2241 2583 2396 2341 1709 1699 1635
0 0 0 0 0 0 0 0 0 0 0 0 6 3 15 46 176 357 561 825 750 604 444 483 698 677 880 915 1030 1394 1506 1569 1438 1281 1416 1254 1239 1012 1103 1273 781 999 847
0 0 0 0 0 0 0 0 0 0 0 0 3 18 22 111 131 246 444 763 723 664 679 635 635 634 661 736 905 976 1430 1460 1338 1076 1070 693 496 566 741 828 548 484 473
10 6 0 0 0 0 0 0 0 0 0 9 9 8 32 39 197 247 541 437 386 415 517 501 486 501 653 701 730 470 619 664 792 768 430 661 275 268 308 304 248 221 174
3 0 0 0 0 1 0 0 0 0 0 10 3 0 1 17 228 318 443 378 323 291 213 293 405 512 627 329 274 269 347 143 201 250 325 334 160 99 89 94 81 65 58

GFSGL_con_mucape_084.txt.gz
CAPE
1546 1418 1479 1514 1598 1770 1598 1520 1532 1542 1739 2332 2396 2472 2033 2229 2530 2730 2132 1943 1937 1892 2004 2220 2482 2321 1755 995 1172 1206 1035 933 937 638 799 1090 2322 2647 2821 3140 2827 2235 1069
1527 1635 1556 1582 1540 1423 1554 1349 1382 1636 1609 2109 2439 2567 2383 2110 2454 2727 2255 1510 2164 2178 2044 2231 2337 2032 2521 2198 1484 1795 1931 1578 1408 2205 2118 1224 2107 2192 2725 3250 2546 1742 1916
1135 1086 1323 1398 1490 1418 1298 1433 1395 1519 1652 1631 1984 2375 2321 2020 2421 2967 2633 2392 2371 2180 2278 2343 2220 2197 2461 1892 1897 1597 1719 1931 1923 1727 1461 1345 1505 1887 2406 3321 2511 2307 1273
1000 1082 1085 1061 1097 1122 1293 1297 1376 1564 1570 1429 1660 1898 2171 2186 1838 2315 2701 2787 2558 2655 2688 2564 2322 2149 2440 2757 2492 2464 2635 2576 2672 2026 1675 1494 1571 1974 2239 1923 1237 1045 1119
895 1032 1197 1331 1251 1154 1542 1216 1246 1498 1603 1621 1494 1464 1668 1800 1892 2065 2201 2699 2915 2891 2757 2838 2615 2078 1599 1893 2077 3177 3030 2561 1860 1544 1439 1402 1392 1458 2161 1160 1123 1009 1643
868 1133 1116 1304 1375 1504 1577 1473 1256 1512 1697 1748 1720 1491 1285 806 593 954 1693 2776 2421 2925 2729 2821 2824 1885 1732 1585 1483 1256 1309 2505 2418 1566 773 952 2669 2063 1247 1063 1109 1085 1103
289 820 1020 1433 1523 1589 1483 1643 1715 1518 1438 1929 1773 1702 1909 1870 398 288 690 1455 1747 2421 2695 2511 2373 1895 2160 2529 1790 1243 1109 1108 1127 2131 2427 2219 2714 2135 2668 2580 3240 2122 2009
289 220 357 370 915 1439 1678 1887 1655 1614 1639 1640 1689 1973 2022 1938 946 529 357 1252 1892 2444 2472 2365 2853 2681 2077 2113 2494 2361 2460 2505 2050 1623 1822 2115 2677 2372 2833 2907 3225 3020 2412
324 397 225 119 233 594 1428 1593 1846 1811 1987 1602 1569 1711 2079 2043 1124 758 531 1016 1043 1986 2403 2823 3103 3184 2454 1674 2253 2266 2335 2247 1220 1389 1344 1314 1409 1439 1390 1637 1466 1094 708
10 181 214 191 132 325 558 1082 1936 2677 1651 1544 1535 1665 1380 1871 1385 1027 609 917 985 799 1513 2643 1766 1768 1968 1772 2486 2669 2708 1798 1118 1301 1558 1233 1178 1326 918 1161 1768 1534 863
0 0 10 174 195 149 195 324 899 1797 2089 2425 2171 2029 2056 1666 1677 1073 850 988 970 985 860 686 648 641 1087 1091 1446 2917 2463 1370 746 1033 1019 1002 1024 1124 1715 2021 2465 1974 1348
0 0 0 2 29 234 200 242 252 597 1181 1514 1829 2190 2201 2327 1326 1084 953 719 687 1098 1420 1018 1313 827 523 543 719 617 996 818 536 233 242 448 464 345 524 1173 3411 3299 2549
0 0 0 0 0 19 43 70 87 119 518 909 514 1055 1810 2034 2190 1686 1400 1021 928 901 1212 1030 993 959 902 783 676 538 297 543 676 544 368 496 520 224 1707 2418 2542 3988 3675
6 0 0 0 0 0 0 0 20 48 99 316 556 699 1489 2586 2071 2164 1756 1523 1388 1022 943 854 844 851 998 993 841 590 426 845 896 757 673 735 607 313 363 767 1093 1105 1612
6 1 0 0 0 0 0 0 0 0 12 43 205 305 511 895 1942 1091 1263 1845 2606 1503 744 852 1190 1200 1328 1533 1413 1243 1246 1141 1027 1108 1131 1094 842 535 475 625 833 1025 1318
19 1 0 0 0 0 0 0 0 0 0 0 7 66 122 194 190 385 327 750 927 1173 994 1081 1558 1768 1787 1798 1784 1572 1371 1021 1335 1318 1257 1197 1040 765 581 598 776 1073 1440
21 33 5 0 0 0 0 0 0 0 0 0 0 0 26 105 100 213 270 541 522 695 1174 2125 1790 1852 1974 2340 2007 1602 1561 1881 2620 1757 1489 1221 1052 925 763 732 779 1195 1508
43 14 23 6 0 0 0 0 0 0 0 0 0 0 0 11 17 49 190 622 704 605 652 1327 2051 2112 2242 2181 1699 1794 2050 2010 2117 2218 2245 1761 1377 1280 1187 1273 1466 1877 1902
5 2 7 20 9 0 0 0 0 0 0 0 0 0 6 3 3 0 216 485 552 951 622 1307 1995 2232 2278 2269 2362 2464 2551 2520 2450 2444 2404 2491 2468 2351 2105 2011 1982 1726 1913
0 0 0 0 0 0 0 0 0 0 0 0 0 0 20 8 0 0 58 328 423 863 1635 1997 1529 2165 2320 2411 3603 3322 3131 3262 3498 3182 2620 2288 2028 1837 2069 2312 2403 2621 2455
0 0 0 0 0 0 0 0 0 0 0 0 0 0 0 0 0 0 1 121 278 369 797 1945 2093 2412 2433 2810 3056 2740 2895 3007 2836 2413 2555 2356 2010 1647 1938 2035 2443 2481 2335
0 0 0 0 0 0 0 0 0 0 0 0 0 0 0 0 0 0 0 33 188 294 293 347 822 1660 1603 1382 1030 1036 1135 1472 1652 1669 1816 1643 1590 1603 1471 1683 2039 2128 2100
0 0 0 0 0 0 0 0 0 0 0 0 0 0 0 0 0 0 0 1 171 213 290 210 300 515 581 595 673 719 695 735 892 1146 1201 1168 1054 1281 1483 1477 1703 1629 1629
0 0 0 0 0 0 0 0 0 0 0 0 0 0 0 0 0 0 0 12 189 388 269 236 303 358 327 274 333 367 413 402 390 458 625 978 863 1192 1004 855 928 1229 1121
0 0 0 0 0 0 0 0 0 0 0 0 0 0 0 0 12 25 8 20 214 251 415 430 478 441 487 421 331 247 250 347 383 361 722 457 966 836 576 419 356 464 483
0 0 0 0 0 0 0 0 0 9 0 0 0 0 0 6 14 12 13 63 205 369 413 274 274 301 337 355 363 310 234 241 213 309 313 309 406 447 343 210 151 193 214

GFSGL_con_mucape_087.txt.gz
CAPE
2155 2194 2237 2068 2120 2309 2009 1796 1818 1618 1711 1748 2711 2080 2436 2322 2383 2845 3275 2325 2346 2269 2612 2182 2803 3598 1835 863 830 819 839 873 829 815 852 1555 3432 3393 3149 3208 2866 3383 2093
1966 2163 1974 1873 2029 1947 2200 2013 2244 2248 1791 2101 1966 2271 2211 2301 2887 2788 2234 1710 1885 2040 1990 2333 2103 1738 3690 3496 1662 3190 1913 2518 1529 3084 2165 1413 2903 3121 3677 4430 3152 2125 2156
1661 1792 2007 1949 1902 1867 2126 2048 2248 2209 2270 1505 2070 2946 2137 2234 2833 2635 2670 2603 2093 2205 2162 2572 2300 2680 3196 2521 2949 1608 1233 1946 2266 1847 1759 1402 1643 1691 2165 3708 4260 3259 2186
942 1249 1757 1859 1965 1959 2462 2249 1905 2649 2371 2179 2407 2891 2760 2378 2260 2256 2588 2910 3014 2648 2658 2689 2596 2498 3374 3529 2960 3772 3055 2883 2433 1646 1458 1542 1505 2363 1839 2007 1877 1393 1332
838 1216 1019 1753 1811 1793 1862 1980 1834 2690 2618 2447 2644 2534 2715 1970 1756 2819 2769 2720 3230 2857 3371 3101 3096 2321 1612 2310 1974 3257 3430 2936 1862 1450 1260 1161 1108 1611 2324 1491 1431 1352 1846
438 620 811 1407 1761 2281 2110 1908 1967 1802 2746 3401 2879 2729 2617 1247 530 703 1828 2565 3092 3122 3102 3387 3814 1996 1792 1532 1259 1294 1475 3207 4036 1687 855 837 3261 1865 909 924 1338 1106 1048
142 502 531 636 811 1038 1674 2430 2670 2787 2417 3190 3334 3014 3187 3091 1177 194 563 1545 2483 3183 3448 3387 3319 1750 2363 3224 2000 1323 1210 1014 907 2747 3587 3411 3329 3739 3701 3968 2747 2852 2025
208 102 243 443 615 768 941 1657 2391 2439 2446 3021 2691 3305 3465 3046 1711 1046 287 1561 2052 2549 2905 3579 3618 3499 3477 3237 3330 3060 2912 2954 2452 1419 1981 2621 3154 3601 3781 3367 3906 4342 3229
31 132 170 142 209 261 780 807 1034 2151 2722 2293 2487 2768 3214 3314 1967 1397 1040 1307 1198 1899 2368 2672 3012 3683 3059 2267 2927 3382 3519 3533 1615 1980 2010 2141 1991 1605 1485 1690 1452 1045 786
0 0 0 52 75 119 120 182 416 615 1774 2695 2271 2534 2235 2991 2272 1797 1377 1366 1745 1511 2117 2244 1254 1444 2173 2378 2865 3213 3368 3261 3265 2122 1801 1553 1514 1189 822 911 1452 1427 984
0 0 0 0 0 52 78 145 267 320 308 1438 2229 2877 2637 2279 2636 1687 1504 1860 1558 1607 1627 1614 1677 894 608 937 1388 3139 3060 3065 2779 2358 2071 1596 1212 1777 2192 2377 2697 1992 1558
0 0 0 0 0 0 0 6 82 132 283 482 1727 2103 2112 3074 1854 1685 1544 1366 1456 1761 1980 1531 1589 855 513 445 519 577 1040 1603 1958 1517 1026 560 492 557 491 1112 3088 3468 2730
0 0 1 0 0 0 0 0 0 17 36 84 345 784 1454 1917 2446 1450 1369 1478 1095 990 1672 1538 1130 932 801 786 783 700 660 649 1185 1375 1321 1176 834 557 936 1676 2297 4524 4307
0 0 0 0 0 0 0 0 0 0 4 40 46 120 190 552 1492 2613 1733 937 1259 1078 1136 936 878 813 924 910 1054 946 861 790 1196 1402 1395 1307 1211 882 648 943 742 645 1052
2 0 0 0 0 0 0 0 0 0 0 0 2 26 35 103 298 621 705 825 911 1069 967 810 1463 1746 1280 1741 1957 2107 1959 1594 1356 1289 1528 1552 1326 1140 1050 1069 745 664 1009
33 6 0 0 0 0 0 0 0 0 0 0 0 0 0 2 14 56 226 661 737 819 822 979 964 2284 2164 2081 2208 2482 2230 1790 2017 1899 1777 1672 1607 1596 1532 1418 1078 898 1043
33 45 26 7 4 3 0 0 0 0 0 0 0 0 0 0 0 0 12 59 198 498 417 291 995 1482 1907 2354 2134 1898 2033 2511 2448 1874 1782 1964 1793 1713 1424 1366 1330 1237 1201
0 0 0 8 27 12 4 1 1 0 0 0 0 0 0 0 0 0 0 0 35 71 88 262 976 1488 1917 2143 2222 2586 2300 2682 2315 2456 2661 2551 2552 2142 1934 1742 1586 1605 1486
0 0 0 0 1 19 17 8 6 0 0 0 0 0 0 0 0 0 0 0 0 35 98 231 722 1505 980 835 2014 2088 2794 2942 2595 2903 2888 2641 2839 2669 2529 2195 1979 1088 1184
0 0 0 0 0 9 5 25 23 16 3 2 0 0 0 0 0 0 0 8 5 0 11 195 1752 1451 1009 1786 2534 1757 2142 2262 2794 2855 2382 2729 2724 2792 2619 2695 2696 2274 2792
0 0 0 0 0 0 0 0 21 27 17 8 4 0 0 0 0 0 0 0 0 0 0 78 450 1051 1056 1182 1692 2381 2055 2176 2473 2775 3034 3164 2935 2894 2473 2563 2389 2330 2175
0 0 0 0 0 0 0 0 0 0 21 24 14 7 0 1 0 0 0 0 0 0 0 9 153 519 665 541 594 601 688 672 960 1129 1932 2393 1950 1940 2014 1928 1984 1637 1439
0 0 0 0 0 0 0 0 0 0 0 10 15 8 11 8 0 0 0 0 0 0 0 2 77 124 241 424 445 394 695 753 386 391 462 708 1007 1103 1358 1338 1327 1117 1032
0 0 0 0 0 0 0 0 0 0 0 0 0 0 0 0 0 0 0 0 0 0 1 17 150 158 146 125 72 134 242 227 150 260 347 397 491 549 671 712 533 490 576
0 0 0 0 0 0 0 0 0 0 0 0 0 0 0 0 0 0 0 0 0 0 8 52 55 227 234 140 162 190 93 96 196 248 265 191 196 190 255 266 266 297 413
0 0 0 0 0 0 0 0 0 0 0 0 0 0 0 0 0 0 0 0 2 4 25 53 162 151 399 347 244 209 251 253 264 258 194 191 181 183 173 170 191 179 211

GFSGL_con_mucape_090.txt.gz
CAPE
2790 2801 2670 2644 2873 3179 3092 3231 2824 2584 1219 636 0 261 1844 2912 3081 3476 2375 1627 2514 2495 3143 2605 3134 3224 2642 2484 2460 2182 2307 2055 2056 1719 2492 2173 2698 2806 2435 2936 3188 3187 2715
2579 2958 2907 2806 2779 2901 3003 2987 3334 3288 3045 2309 1307 1599 2509 3086 2574 2665 3162 2350 2536 2790 2997 2769 2630 2385 3469 3270 2580 2472 2513 2608 2202 1975 1886 1579 1702 1713 3299 3842 3077 2549 2354
1671 2641 2712 2672 2844 2898 3163 2939 3295 3241 3109 2433 2609 3247 3247 2858 3249 2817 2636 3071 2624 2604 2974 3172 3019 3060 2999 2524 3283 2893 2283 2297 2389 2247 1733 2741 1934 1850 2127 3103 3721 3596 3579
397 1172 1222 2422 2446 2608 3138 3048 3012 3244 3009 2701 2967 3094 2866 2740 3067 3152 3304 2731 2778 2534 2943 2891 3226 3077 3265 3404 2955 2930 2746 2944 2633 2642 2021 1592 1715 1903 3022 2963 2459 1423 1450
141 559 398 630 1893 3164 2999 2826 2853 3345 2961 2976 3045 2841 3264 2796 2549 2633 2848 3237 2957 2804 2727 2791 2926 2835 2695 3023 2816 2952 2891 2878 2396 2135 1943 2138 1977 2385 1871 1685 1460 2120 1485
253 344 186 378 495 1099 1699 2617 2512 2696 2682 2803 2891 2956 2755 2077 1173 861 2182 2460 3017 3057 2614 2875 3048 2664 2409 1696 1264 1211 1233 2827 2815 3129 2440 1556 1771 2618 2256 2229 1896 1227 1083
195 256 321 170 353 853 1008 1044 2063 2545 2787 2765 2345 2939 2801 2906 1891 1080 552 1869 2812 2798 3153 2721 2285 1824 1673 2472 1512 1403 1184 952 840 1183 1688 2187 2428 2403 2876 2778 2714 2751 2240
57 68 86 187 290 488 544 617 793 1045 2159 2671 2502 2473 2577 2645 2366 1901 1439 1006 1495 1984 2731 3020 2941 2452 2347 2843 3001 2927 2225 1937 1632 1229 987 846 1135 1502 2062 2027 2050 2421 2573
0 14 74 125 78 120 176 384 472 541 799 1618 2168 2498 2692 2555 2139 1917 1807 1514 1409 1420 1595 2055 2132 2661 2835 2298 1957 2512 2935 2996 2743 2309 2135 1669 1230 992 1183 1662 1575 1264 885
0 0 0 1 0 39 61 87 113 327 247 598 900 1984 2066 2021 1928 1822 1762 1663 1840 1744 1603 1501 1024 1271 1472 1367 1846 2254 2009 1902 2115 2315 2007 1415 1478 1384 1467 1524 1464 1369 901
0 0 1 1 2 12 0 36 50 56 88 129 494 1226 1843 1879 1863 1589 1541 1624 2019 1843 1729 1657 1692 1250 913 852 802 1224 1948 2228 2103 2030 2171 1942 1538 1483 1757 1508 1109 990 858
2 0 0 4 0 0 2 0 1 48 54 81 278 668 1111 1601 1355 1321 991 1053 1214 1396 1835 1786 1794 1512 1202 1064 956 710 544 1005 1238 1553 1737 1526 1128 780 581 533 1318 1565 1387
9 3 1 0 0 0 0 0 0 0 75 47 44 62 134 415 709 618 857 715 789 903 1113 1130 1065 1211 1219 1112 1038 916 663 563 533 625 840 1037 1110 1005 760 549 448 1881 2360
16 19 6 0 0 0 0 0 0 0 0 0 0 0 0 1 65 518 860 780 817 819 874 977 815 941 900 937 855 871 944 899 743 646 646 727 851 919 862 754 393 110 277
14 12 6 0 0 1 4 3 0 0 0 0 0 0 0 0 11 29 342 642 681 523 640 783 785 646 781 1673 1502 1292 1415 1071 939 896 900 1005 1081 1062 918 715 482 275 518
3 5 4 1 0 0 0 0 0 0 0 0 0 0 0 0 0 0 8 21 50 44 162 387 544 679 504 1093 1795 2021 1709 1435 1502 1253 1165 1077 947 880 927 1000 886 636 586
0 0 1 3 5 3 0 0 0 0 0 0 0 0 0 0 0 0 0 0 0 0 8 17 41 264 607 772 1105 1226 1340 1666 1604 1686 1643 1637 1368 1190 982 849 732 723 979
0 0 0 0 3 20 18 6 0 2 0 0 0 0 0 0 0 0 0 0 0 0 0 0 0 44 108 176 559 1271 1343 1474 1316 1442 1722 1248 906 1550 1498 1205 1018 928 881
0 0 0 0 0 0 0 34 19 7 5 3 4 0 0 0 0 0 0 0 0 0 2 4 15 39 168 470 856 1347 1194 926 1133 1371 1087 1248 1345 1433 1407 1324 1376 1377 1055
0 0 0 0 0 0 0 0 1 23 19 14 18 19 17 15 19 36 41 16 3 18 4 3 0 1 0 1 557 1132 1116 1258 1607 1363 1076 966 939 1110 1029 1067 1187 1127 960
0 0 0 0 0 0 0 0 0 0 0 0 0 0 0 1 10 2 0 4 9 3 0 0 0 0 0 0 164 717 949 1349 1487 1563 1065 744 790 876 1089 1113 1157 1177 1236
0 0 0 0 0 0 0 0 0 0 0 0 0 0 0 4 28 46 45 16 0 1 0 0 0 0 0 0 4 332 504 700 585 294 169 248 172 107 356 725 740 987 1101
0 0 0 0 0 0 0 0 0 0 0 0 0 0 0 0 1 2 4 0 0 0 0 0 0 0 0 0 2 49 165 339 256 90 86 211 134 75 196 320 395 694 1109
0 0 0 0 0 0 0 0 0 0 0 0 0 0 0 0 2 0 0 0 0 0 0 0 0 0 0 0 4 45 101 118 201 229 178 101 50 57 138 216 218 298 492
0 0 0 0 0 0 0 0 0 0 0 0 0 0 0 0 0 0 0 0 0 0 0 0 0 0 0 1 7 7 59 89 139 97 46 62 13 27 69 90 65 46 107
0 0 0 0 0 0 0 0 0 0 0 0 0 0 0 0 0 0 0 0 0 0 0 2 0 2 3 25 26 53 54 123 140 146 176 115 42 63 69 114 75 68 100

GFSGL_con_mucape_093.txt.gz
CAPE
1449 1656 1789 1785 1697 1582 1566 1755 1577 830 685 463 612 1056 1102 1331 1589 1389 1356 1292 1091 1287 1389 1766 1136 1383 1360 1530 1817 1525 1256 1581 882 806 1487 1038 598 714 989 1067 1335 1820 1930
673 1118 1725 2042 1912 1797 1824 2115 1480 1087 962 929 723 402 869 898 1633 1714 1499 1459 1135 1031 1278 1529 1272 1376 1484 2118 1565 1590 1893 1630 1682 1167 879 979 1482 1532 1533 1523 2272 2417 2064
385 431 1335 2094 2037 1840 1899 2109 2120 1876 1161 1045 1018 1124 944 1281 1742 1498 1335 1322 1553 1237 1457 1562 1659 1688 1502 1557 1289 1340 1548 1641 1850 1897 1878 1638 1631 1282 1305 1335 1591 2084 1362
67 160 396 618 1206 1816 2221 2165 2382 2298 2119 1816 1723 1527 1926 1841 1646 1967 1581 1251 1375 1408 1815 1970 1772 1640 1450 1549 1626 1356 1453 1531 1583 1702 1482 1361 1438 1642 1380 1478 1192 1139 781
72 71 88 253 480 629 654 1655 1982 2125 2361 2058 1650 1723 2223 2087 1621 1885 1954 1878 1574 1474 1463 1668 1954 2039 2244 2120 1923 1778 1741 1708 1840 1931 1908 2037 1985 1527 1435 1830 1466 1631 1141
84 108 42 72 238 96 91 853 1512 1685 1832 2006 2150 2054 1842 1931 1998 1647 1797 1711 2121 1895 1593 1663 1986 1887 1802 1865 2132 2059 1919 1864 1507 1395 1562 1764 1668 1593 1757 1491 1746 1294 1173
124 139 160 115 65 165 248 537 943 1103 1484 1603 1506 1416 1711 2083 1834 1434 1281 1024 1670 1875 2067 1995 1667 1879 1858 1845 2000 1842 1557 1179 1056 965 783 610 611 583 815 1120 1055 1308 1337
91 96 97 129 134 220 305 429 561 760 987 1054 1179 1569 1562 1560 1753 1798 1771 1427 1312 1115 1383 2089 2057 1779 1663 1424 1918 2225 2118 1685 1623 1655 1497 1396 1411 1200 1031 767 757 1082 1400
6 9 61 71 82 84 122 306 263 428 515 593 683 768 1303 1372 1523 1736 1732 1745 1505 1409 1308 1100 1657 2154 2249 2168 1872 1544 1591 2029 2061 1897 1853 1934 2017 1766 1452 1355 1171 1247 924
0 0 0 0 0 0 21 58 76 87 185 241 283 356 643 1097 1092 1168 1182 1344 1274 1286 1393 1382 1249 1069 885 1396 1635 1563 1644 1903 2106 1914 1773 1817 1961 1890 1629 1489 1226 985 889
0 0 0 0 0 0 0 0 0 32 61 56 77 89 257 633 536 630 821 958 966 1180 1283 1374 1400 1383 1358 1278 1163 943 742 671 651 1479 1743 1689 1472 1392 1366 1276 1094 778 826
0 0 0 0 0 0 0 0 0 0 0 0 26 61 113 214 451 430 500 769 696 728 915 1071 1215 1357 1306 1326 1338 1218 1122 1104 1010 846 642 834 1100 1217 1227 1180 1029 973 796
0 0 0 0 0 0 0 0 0 0 0 0 0 0 3 33 53 46 55 183 585 545 564 660 714 832 838 1044 870 921 1080 1051 1004 954 615 561 440 518 702 853 852 750 617
0 0 0 0 0 0 0 0 0 0 0 0 0 0 0 0 0 10 16 11 249 444 440 518 536 576 562 505 588 746 760 804 833 807 846 774 658 610 589 632 698 684 620
0 0 0 0 0 0 0 0 0 0 0 0 0 0 0 0 0 0 0 0 0 45 222 339 258 209 218 186 462 510 1021 1390 1416 1058 720 651 763 763 744 692 665 722 704
0 0 0 0 0 0 0 0 0 0 0 0 0 0 0 0 0 0 0 0 0 0 0 14 97 52 0 3 37 184 364 791 1149 1290 1244 1069 916 852 802 785 819 829 728
0 0 0 0 0 0 0 0 0 0 0 0 0 0 0 0 0 0 0 0 0 0 0 0 0 0 0 0 2 15 38 370 507 738 1246 1265 1241 896 876 937 852 772 621
0 0 0 0 0 0 0 0 0 0 0 0 0 0 0 0 0 0 0 0 0 0 0 0 0 0 2 5 16 27 66 64 91 566 895 919 831 916 990 972 852 432 653
0 0 0 0 0 0 0 0 0 0 0 0 0 0 0 0 0 0 0 0 0 0 0 2 1 0 2 4 0 0 0 0 143 394 767 737 620 655 652 718 506 340 324
0 0 0 0 0 0 0 0 0 0 0 0 0 0 0 0 0 0 0 0 23 34 30 4 0 0 0 0 0 0 0 0 0 302 579 689 717 721 595 603 503 443 473
0 0 0 0 0 0 0 0 0 0 0 0 0 0 0 0 0 0 0 0 0 19 9 0 0 0 0 0 0 0 0 0 0 0 400 596 697 638 562 531 499 468 464
0 0 0 0 0 0 0 0 0 0 0 0 0 0 0 0 0 0 0 0 4 3 6 2 0 0 0 0 0 0 0 0 0 0 0 466 100 347 130 77 56 34 21
0 0 0 0 0 0 0 0 0 0 0 0 0 0 0 0 0 0 0 0 4 1 5 7 0 0 0 0 0 0 0 0 0 0 0 3 244 169 164 95 37 53 37
0 0 0 0 0 0 0 0 0 0 0 0 0 0 0 0 0 0 0 0 0 0 0 0 0 0 0 0 0 0 0 0 0 2 3 4 97 113 147 75 18 48 114
0 0 0 0 0 0 0 0 0 0 0 0 0 0 0 0 0 0 0 0 0 0 0 0 0 0 0 0 0 0 0 0 0 5 3 8 8 92 167 107 69 51 28
0 0 0 0 0 0 0 0 0 0 0 0 0 0 0 0 0 0 0 0 0 0 0 0 0 0 0 0 0 1 3 1 3 7 19 10 83 110 156 126 84 63 24

GFSGL_con_mucape_096.txt.gz
CAPE
732 1042 1007 1251 1116 607 848 1228 1164 926 1001 1242 1120 1155 1469 1595 1589 1145 1207 1193 1255 1141 1215 1242 1568 1051 1293 1372 1786 1048 1488 1293 1225 1183 1207 1003 1208 1407 1321 1186 1248 1261 1863
472 645 708 949 1163 1264 1164 1278 1047 925 692 1050 801 841 996 1171 1231 1531 1279 1241 1130 948 977 960 1152 1056 825 1039 1375 1127 1290 1238 1323 1260 1301 1335 1090 1145 1300 1044 978 1284 1120
195 274 405 643 1064 1054 1395 1475 1346 1190 781 669 731 608 642 791 903 1221 1575 1392 1323 1525 1065 927 1234 1244 1227 1038 1036 1003 884 1040 1214 1287 1177 1343 1019 1073 1169 1207 1090 830 792
19 84 94 250 418 846 1141 1169 1292 1346 1117 916 869 873 927 832 859 1208 1632 1339 1140 1101 1356 1360 1621 1507 1446 1323 1366 1226 1167 1144 1108 1306 1317 1476 1664 1783 1708 1248 1177 692 723
108 46 34 74 181 198 260 382 877 1221 1412 1480 1426 1430 1496 1417 1632 1621 1543 1686 1576 1394 1350 1140 1342 1657 1803 1842 1958 1970 1797 1527 1341 1286 1580 1377 1036 978 1014 1252 1193 615 462
4 6 29 52 69 127 134 68 417 796 1378 1429 1615 1566 1390 1449 2032 1813 1612 1448 1617 1707 1603 1451 1475 1323 1710 1798 1623 1661 1905 2008 1770 1444 1190 983 887 806 654 822 484 504 433
79 47 84 69 28 27 92 70 237 533 666 963 1356 1489 1510 1502 1664 1700 1611 1403 1409 1343 1483 1553 1553 1523 1516 1531 1522 1592 1575 1623 1746 1718 1454 1263 1144 1045 919 1098 926 982 920
100 98 131 99 78 86 81 123 221 246 301 653 814 1018 1175 1309 1443 1540 1545 1458 1274 1239 1164 1160 1419 1617 1699 1636 1552 1430 1239 1487 1592 1627 1448 1304 1340 1395 1426 1512 1487 1203 1109
103 161 142 147 147 114 147 124 131 180 140 217 478 692 771 804 943 974 1189 1417 1534 1425 1369 1326 1257 1177 1430 1759 1727 1709 1676 1656 1585 1521 1597 1643 1558 1443 1552 1772 1980 1822 1292
0 0 0 0 0 27 103 110 85 91 88 114 125 175 272 263 414 710 532 825 986 969 1044 1068 1060 1158 1230 1253 1138 1090 1193 1140 1172 1192 1352 1507 1623 1660 1700 1701 1505 1424 1083
0 0 0 0 0 0 0 0 0 3 38 48 52 52 172 195 333 350 378 536 625 738 826 873 968 1175 1199 1213 1228 1267 1177 1079 1010 926 818 842 999 1140 1233 1309 1295 1202 1044
0 0 0 0 0 0 0 0 0 0 0 0 0 11 28 25 79 119 136 182 222 441 519 514 606 711 834 774 977 1089 1108 1103 1080 1057 1053 1036 1008 953 888 1004 1118 1164 1140
0 0 0 0 0 0 0 0 0 0 0 0 0 0 0 0 0 1 34 48 33 44 86 211 257 321 418 453 428 479 531 672 848 760 810 970 932 910 919 824 699 847 852
0 0 0 0 0 0 0 0 0 0 0 0 0 0 0 0 0 0 0 0 0 13 18 15 12 48 141 164 126 117 230 260 343 448 539 771 847 737 608 542 667 697 655
0 0 0 0 0 0 0 0 0 0 0 0 0 0 0 0 0 0 0 0 0 0 0 0 1 0 0 0 0 69 50 51 281 526 582 664 840 1009 1180 980 684 563 610
0 0 0 0 0 0 0 0 0 0 0 0 0 0 0 0 0 0 0 0 0 0 0 0 0 0 0 0 0 0 0 2 8 163 355 408 464 548 756 839 864 859 840
0 0 0 0 0 0 0 0 0 0 0 0 0 0 0 0 0 0 0 0 0 0 0 0 0 0 0 0 0 0 20 19 4 9 38 169 416 467 542 648 743 713 700
0 0 0 0 0 0 0 0 0 0 0 0 0 0 0 0 0 0 0 0 0 0 0 0 0 0 9 4 0 0 0 0 0 0 0 0 135 447 643 695 725 731 643
0 0 0 0 0 0 0 0 0 0 0 0 0 0 0 0 0 0 0 0 0 0 0 0 13 11 9 6 0 0 0 0 0 0 0 0 0 76 454 444 494 613 800
0 0 0 0 0 0 0 0 0 0 0 0 0 0 0 0 0 0 0 0 0 0 0 0 8 16 10 0 0 0 0 0 0 0 0 0 0 0 65 287 354 306 258
0 0 0 0 0 0 0 0 0 0 0 0 0 0 0 0 0 0 0 0 0 0 0 0 1 5 2 3 0 0 0 0 0 0 0 0 0 0 0 72 286 289 446
0 0 0 0 0 0 0 0 0 0 0 0 0 0 0 0 0 0 0 0 0 0 0 0 0 3 4 0 0 0 0 0 0 0 0 0 0 0 0 0 0 201 30
0 0 0 0 0 0 0 0 0 0 0 0 0 0 0 0 0 0 0 0 0 0 0 0 0 0 0 0 1 0 0 0 0 0 0 0 0 0 0 2 0 0 150
0 0 0 0 0 0 0 0 0 0 0 0 0 0 0 0 0 0 0 0 0 0 0 0 0 0 0 0 0 0 0 0 0 0 0 0 0 0 0 0 0 14 128
0 0 0 0 0 0 0 0 0 0 0 0 0 0 0 0 0 0 0 0 0 0 0 0 0 0 0 0 0 0 0 0 0 0 0 3 1 1 2 0 0 2 111
0 0 0 0 0 0 0 0 0 0 0 0 0 0 0 0 0 0 0 0 0 0 0 0 0 0 0 0 0 0 0 0 0 0 2 1 1 2 1 3 4 13 142

GFSGL_con_mucape_102.txt.gz
CAPE
155 130 204 275 398 452 470 307 357 477 591 568 615 776 965 930 1065 1092 1022 1021 1144 958 897 961 1091 1053 1151 969 1400 1082 1057 933 997 1195 613 735 851 1099 1504 1357 1294 1734 1074
251 327 266 306 447 413 388 421 391 684 666 657 718 786 933 878 1075 1100 1062 1041 984 943 952 835 825 743 907 852 971 1013 1037 925 965 1102 768 831 1026 1036 1059 1214 1399 859 867
147 301 505 584 616 501 530 608 704 674 749 596 524 639 776 745 837 903 954 1149 1081 1017 800 791 956 766 1005 1028 1054 707 973 1078 1136 1184 1177 1157 1133 971 1131 1178 1031 1034 477
80 69 141 190 171 179 152 266 452 610 766 633 598 544 601 520 438 502 570 910 1103 1101 1064 929 898 837 925 1219 1267 1334 1337 1304 1398 1244 1462 1559 1416 1366 1229 1032 1140 1071 917
81 46 55 85 68 0 46 65 101 235 504 767 903 849 887 843 763 665 654 615 1082 1137 1240 1309 1229 1127 1069 1219 1394 1745 1262 1306 1328 1259 1283 1162 1228 1157 1263 1227 1216 881 805
121 109 70 41 67 53 44 42 30 43 80 265 511 745 938 970 992 1074 1125 1083 1235 1364 1476 1525 1384 1332 1291 1223 1153 1208 1204 1575 1767 1304 1407 1381 1522 978 1050 1016 979 929 985
88 115 125 126 69 26 2 18 41 37 54 78 87 197 391 606 783 846 992 1055 984 1172 1266 1301 1335 1263 1177 1192 1082 1089 1250 1395 1469 1670 1485 1584 1281 1261 1042 1150 1032 973 916
93 57 94 103 89 66 11 28 53 43 48 57 50 66 101 199 248 349 476 568 810 913 883 864 855 918 882 945 927 1075 1176 1119 963 927 1030 1056 1200 1257 914 947 889 788 752
100 91 174 99 67 21 32 20 73 28 27 61 34 114 104 96 123 140 203 311 414 448 555 655 660 756 796 894 908 886 939 968 993 1001 970 926 920 868 779 703 685 740 841
146 244 135 60 35 4 2 21 80 56 64 36 61 67 57 50 64 95 137 153 208 262 301 341 437 563 614 541 609 713 729 772 780 815 876 931 950 946 910 841 802 792 775
0 6 15 49 52 91 54 119 121 62 103 99 36 54 54 15 5 22 40 43 38 46 79 135 204 221 242 271 371 382 388 517 469 476 461 494 541 547 579 631 610 558 616
0 0 0 0 0 0 0 0 0 0 0 34 61 69 74 46 43 4 6 6 24 65 64 70 84 93 70 63 83 73 108 135 143 104 81 77 74 146 230 300 622 350 470
0 0 0 0 0 0 0 0 0 0 0 0 0 0 0 0 3 10 15 2 4 4 5 5 19 48 53 43 26 9 6 5 26 23 0 0 8 90 243 433 528 582 619
0 0 0 0 0 0 0 0 0 0 0 0 0 0 0 0 0 0 0 0 0 0 0 0 0 0 0 1 16 10 9 6 0 0 0 0 59 19 160 321 335 597 326
0 0 0 0 0 0 0 0 0 0 0 0 0 0 0 0 0 0 0 0 0 0 0 0 0 0 0 0 0 0 1 0 0 1 0 0 0 0 0 0 0 32 123
0 0 0 0 0 0 0 0 0 0 0 0 0 0 0 0 0 0 0 0 0 0 0 0 0 3 5 7 4 13 14 0 0 0 0 0 0 0 0 0 0 0 12
0 0 0 0 0 0 0 0 0 0 0 0 0 0 0 0 0 0 0 0 0 0 0 0 0 14 6 9 31 4 1 0 2 1 0 0 0 0 0 0 0 0 0
0 0 0 0 0 0 0 0 0 0 0 0 0 0 0 0 0 0 0 0 0 0 0 0 0 0 0 0 0 0 0 1 0 2 0 0 0 0 0 0 0 0 0
0 0 0 0 0 0 0 0 0 0 0 0 0 0 0 0 0 0 0 0 0 0 0 0 0 0 0 0 0 0 0 0 0 0 0 0 0 0 0 0 6 0 0
0 0 0 0 0 0 0 0 0 0 0 0 0 0 0 0 0 0 0 0 0 0 0 0 0 0 0 0 0 0 0 0 0 0 0 0 0 0 0 0 0 0 0
0 0 0 0 0 0 0 0 0 0 0 0 0 0 0 0 0 0 0 0 0 0 0 0 0 0 0 0 0 0 0 0 0 0 0 0 0 0 0 0 0 0 0
0 0 0 0 0 0 0 0 0 0 0 0 0 0 0 0 0 0 0 0 0 0 0 0 0 0 0 0 0 0 0 0 0 0 0 0 0 0 0 0 0 0 0
0 0 0 0 0 0 0 0 0 0 0 0 0 0 0 0 0 0 0 0 0 0 0 0 0 0 0 0 0 0 0 0 0 0 0 0 0 0 0 0 0 0 0
0 0 0 0 0 0 0 0 0 0 0 0 0 0 0 0 0 0 0 0 0 0 0 0 0 0 0 0 0 0 0 0 0 0 0 0 0 0 0 0 0 0 0
0 0 0 0 0 0 0 0 0 0 0 0 0 0 0 0 0 0 0 0 0 0 0 0 0 0 0 0 0 0 0 0 0 0 0 0 0 0 0 0 0 0 0
2 0 0 0 0 0 0 0 0 0 0 0 0 0 0 0 0 0 0 0 0 0 0 0 0 0 0 0 0 0 0 0 0 0 0 0 0 0 0 0 0 0 0

GFSGL_con_mucape_105.txt.gz
CAPE
552 984 1038 1204 1148 1255 1199 1134 1264 1294 1386 1252 1509 1490 1679 1988 2001 2290 2161 2198 2289 2320 2012 2134 2140 2378 1774 1823 2083 2274 1942 1766 1273 919 1523 1561 2224 2352 2261 2416 1734 1437 737
678 781 827 913 1088 1165 1255 1225 1119 1218 1565 1663 1717 1808 1953 1835 1966 2298 2089 1975 2141 2013 1961 1990 2009 1677 2073 2079 1893 2199 1714 1915 1736 1943 2085 2021 2387 2634 2715 2866 1859 1701 2164
559 731 921 1033 1168 1337 1263 1335 1591 1511 1691 1594 1351 1602 1682 1882 1993 2130 2144 2124 2088 2000 1948 1860 1739 1980 2245 2020 2253 2052 1511 1860 1997 2043 2180 2175 2393 2375 2558 2317 2514 2565 1715
163 159 258 591 625 532 582 700 1052 1416 1654 1548 1394 1256 1309 1132 1042 1087 1284 1380 1622 1517 1987 1968 1916 1867 2083 2239 1940 2161 2311 2746 2512 2556 1996 1874 1981 2215 2243 1956 1794 1718 1705
67 45 47 65 183 199 234 229 419 760 1017 1426 1620 1473 1196 887 760 924 1002 1177 1177 1729 1862 1875 2009 1644 1258 1333 2170 2709 2171 2497 1626 1228 1533 1581 1632 1488 1623 1682 1689 1481 1433
149 65 82 56 155 87 98 67 123 242 344 711 1031 1263 1268 990 661 775 849 1806 1994 2231 2181 2389 2225 1563 1416 1130 949 851 883 2269 2639 2741 2425 1900 2452 2217 1681 1673 1677 1492 1153
194 157 87 49 12 40 70 73 43 78 133 191 295 502 513 286 379 431 577 1465 1668 1748 1814 1893 1813 1499 1423 1696 1432 1144 1188 1078 970 2114 2358 2647 2582 2326 2273 2234 1902 1842 1754
102 140 154 129 95 71 37 32 78 36 19 121 263 322 68 98 168 231 285 1091 1226 799 743 709 871 777 644 528 770 1446 1802 2042 2122 1699 1705 1863 2052 2076 2159 2058 1918 1714 1650
95 113 69 82 73 96 89 50 54 59 43 110 156 71 59 36 51 112 178 226 247 251 269 315 418 426 381 333 343 429 569 1281 1140 682 664 713 765 777 793 826 1255 1542 1572
141 131 153 112 93 71 0 0 1 18 33 77 49 19 29 50 23 21 43 60 60 66 69 60 44 52 85 129 131 132 163 164 280 329 429 593 641 1003 507 551 1150 1643 1851
209 207 182 158 135 118 47 15 1 59 47 45 18 9 38 30 32 16 25 25 7 17 6 6 0 0 0 0 2 11 13 0 54 104 141 175 135 75 198 574 1031 1066 1098
0 0 24 22 27 0 2 6 0 98 19 6 1 2 9 4 27 11 44 34 15 1 1 0 0 0 0 7 9 9 3 0 6 11 25 44 24 0 36 147 350 590 905
0 0 0 0 0 0 0 0 0 0 0 0 0 0 7 7 2 0 0 1 2 14 10 0 0 0 0 0 1 8 5 0 0 6 11 5 1 3 4 7 44 278 929
0 0 0 0 0 0 0 0 0 0 0 0 0 0 0 0 0 0 0 0 0 0 0 0 0 0 0 0 0 0 0 4 3 0 0 0 0 6 0 0 0 0 0
0 0 0 0 0 0 0 0 0 0 0 0 0 0 0 0 0 0 0 0 0 0 0 0 0 0 0 0 0 0 5 16 7 5 1 1 0 0 0 0 0 0 0
0 0 0 0 0 0 0 0 0 0 0 0 0 0 0 0 0 0 0 0 0 0 0 0 0 0 0 6 6 10 12 15 16 12 7 7 5 4 3 0 0 0 0
0 0 0 0 0 0 0 0 0 0 0 0 0 0 0 0 0 0 0 0 0 0 0 0 0 0 0 0 5 5 0 5 13 11 13 13 14 10 7 5 5 3 0
0 0 0 0 0 0 0 0 0 0 0 0 0 0 0 0 0 0 0 0 0 0 0 0 0 0 0 0 0 0 0 0 0 0 0 0 0 0 0 0 10 12 8
0 0 0 0 0 0 0 0 0 0 0 0 0 0 0 0 0 0 0 0 0 0 0 0 0 0 0 0 0 0 0 0 0 0 0 0 0 0 0 0 0 0 0
0 0 0 0 0 0 0 0 0 0 0 0 0 0 0 0 0 0 0 0 0 0 0 0 0 0 0 0 0 0 0 0 0 0 0 0 0 0 0 0 0 0 0
0 0 0 0 0 0 0 0 0 0 0 0 0 0 0 0 0 0 0 0 0 0 0 0 0 0 0 0 0 0 0 0 0 0 0 0 0 0 0 0 0 0 0
0 0 0 0 0 0 0 0 0 0 0 0 0 0 0 0 0 0 0 0 0 0 0 0 0 0 0 0 0 0 0 0 0 0 0 0 0 0 0 0 0 0 0
0 0 0 0 0 0 0 0 0 0 0 0 0 0 0 0 0 0 0 0 0 0 0 0 0 0 0 0 0 0 0 0 0 0 0 0 0 0 0 0 0 0 0
0 0 0 0 0 0 0 0 0 0 0 0 0 0 0 0 0 0 0 0 0 0 0 0 0 0 0 0 0 0 0 0 0 0 0 0 0 0 0 0 0 0 0
2 0 0 0 0 0 0 0 0 0 0 0 0 0 0 0 0 0 0 0 0 0 0 0 0 0 0 0 0 0 0 0 0 0 0 0 0 0 0 0 0 0 0
3 1 0 1 1 0 0 0 0 0 0 0 0 0 0 0 0 0 0 0 0 0 0 0 0 0 0 0 0 0 0 0 0 0 0 0 0 0 0 0 0 0 0

GFSGL_con_mucape_108.txt.gz
CAPE
983 1009 884 894 711 1273 1247 908 1005 1358 2115 1459 1455 1513 1330 1612 2028 2160 1861 1477 1744 1836 1726 1920 1852 1925 1289 1040 1185 1226 1102 1045 1114 757 907 1078 2038 2206 2413 2603 1867 1262 740
990 902 1291 924 776 635 1001 817 1082 992 1595 1336 1360 1745 1481 1559 1825 1873 1692 1395 1737 1688 1665 1718 1707 1446 2230 2085 1452 1425 1665 1756 1381 2130 2239 1249 1666 2159 2193 2924 2020 1212 1237
1091 974 1046 1174 688 806 855 1127 1051 1150 1030 1202 1445 1272 1104 1323 1404 1417 1605 1559 1596 1352 1267 1398 1589 1593 1936 1816 2012 1541 1241 1255 1592 1527 1438 1052 1205 1596 1835 2418 2100 1750 824
1018 1081 1184 1143 653 960 1050 1298 1097 996 1215 1087 1059 1257 1142 1476 1276 1411 1346 1285 1350 1328 1406 1351 1428 1481 1709 1894 1828 2093 1886 1837 1450 1661 1187 987 927 1394 1570 954 770 704 828
205 728 924 1056 1233 1103 1216 1201 1269 1452 1393 1394 1186 1299 1431 1427 1072 1717 1710 1708 1835 1631 1694 1678 1440 1231 966 1246 1565 1704 2104 2102 1370 1250 1104 929 921 1895 1704 1039 806 672 1131
119 58 38 120 148 521 683 713 836 978 1193 1536 1548 1416 1337 1042 592 580 736 2071 1831 1815 1751 1761 1653 1231 1334 1333 1110 917 931 2327 2092 1777 1229 1394 2197 1887 1432 1187 1546 1400 1557
219 125 39 32 33 29 37 198 486 587 654 759 1081 1225 332 233 266 303 394 1455 1805 1665 1721 1904 1819 888 750 1206 1492 1217 1291 1269 1209 2158 2256 2269 2334 3444 3339 2603 2575 2266 2234
230 157 69 64 72 36 37 32 98 275 412 552 346 152 44 56 144 207 646 1330 1190 995 539 420 514 565 336 314 598 1493 1768 1839 1827 1949 2407 2310 2449 2021 2155 2565 2476 2439 2152
171 262 170 113 129 61 18 16 14 40 248 289 149 42 35 19 65 147 116 251 202 183 81 108 97 116 129 123 121 298 496 924 837 505 596 408 364 444 586 1050 1540 2357 1611
267 111 92 102 110 107 96 85 32 11 17 97 106 56 44 37 21 27 37 37 28 2 0 3 5 0 0 0 0 1 0 28 26 24 8 233 455 732 597 1084 1667 1592 2323
109 107 131 175 90 89 19 3 0 2 33 72 61 50 55 37 19 14 58 66 54 16 3 0 0 0 0 0 0 0 0 3 0 0 2 72 151 213 278 567 689 591 604
188 183 175 149 121 131 102 68 83 35 30 26 6 8 0 2 0 0 17 63 17 10 7 1 4 0 0 0 0 0 0 0 0 0 0 6 8 1 0 0 12 99 216
7 57 142 88 19 12 1 0 0 0 0 0 0 0 0 0 0 0 6 1 0 0 0 0 0 0 0 0 0 0 0 0 0 0 0 0 0 0 0 0 0 0 3
1 0 0 0 0 0 0 0 0 0 0 0 0 0 0 0 0 0 0 0 0 0 0 0 0 0 0 0 0 0 0 5 0 0 0 0 0 0 0 0 0 0 0
0 0 0 0 0 0 0 0 0 0 0 0 0 0 0 0 0 0 0 0 0 0 0 0 0 0 0 0 0 0 0 0 0 0 0 0 0 0 0 0 0 0 0
0 0 0 0 0 0 0 0 0 0 0 0 0 0 0 0 0 0 0 0 0 0 0 0 0 0 0 0 0 0 0 0 1 0 0 0 0 0 0 0 0 0 0
0 0 0 0 0 0 0 0 0 0 0 0 0 0 0 0 0 0 0 0 0 0 0 0 0 0 0 0 0 0 0 0 0 0 0 0 0 0 1 0 0 0 0
0 0 0 0 0 0 0 0 0 0 0 0 0 0 0 0 0 0 0 0 0 0 0 0 0 0 0 0 0 0 0 0 0 0 0 0 0 0 0 0 0 0 0
0 0 0 0 0 0 0 0 0 0 0 0 0 0 0 0 0 0 0 0 0 0 0 0 0 0 0 0 0 0 0 0 0 0 0 0 0 0 0 0 0 0 0
0 0 0 0 0 0 0 0 0 0 0 0 0 0 0 0 0 0 0 0 0 0 0 0 0 0 0 0 0 0 0 0 0 0 0 0 0 0 0 0 0 0 0
0 0 0 0 0 0 0 0 0 0 0 0 0 0 0 0 0 0 0 0 0 0 0 0 0 0 0 0 0 0 0 0 0 0 0 0 0 0 0 0 0 0 0
0 0 0 0 0 0 0 0 0 0 0 0 0 0 0 0 0 0 0 0 0 0 0 0 0 0 0 0 0 0 0 0 0 0 0 0 0 0 0 0 0 0 0
0 0 0 0 0 0 0 0 0 0 0 0 0 0 0 0 0 0 0 0 0 0 0 0 0 0 0 0 0 0 0 0 0 0 0 0 0 0 0 0 0 0 0
0 0 0 0 0 0 0 0 0 0 0 0 0 0 0 0 0 0 0 0 0 0 0 0 0 0 0 0 0 0 0 0 0 0 0 0 0 0 0 0 0 0 0
0 0 0 0 0 0 0 0 0 0 0 0 0 0 0 0 0 0 0 0 0 0 0 0 0 0 0 0 0 0 0 0 0 0 0 0 0 0 0 0 0 0 0
1 0 2 0 0 0 0 0 0 0 0 0 0 0 3 4 3 2 0 0 0 0 0 0 0 0 0 0 0 0 0 0 0 0 0 0 0 0 0 0 0 0 0

GFSGL_con_mucape_111.txt.gz
CAPE
1176 1222 1008 732 684 986 1087 1106 1267 1404 1589 1782 1720 1560 1679 1769 1738 1937 2704 2423 1835 1768 1809 1803 1672 2542 1547 952 1034 886 741 666 813 863 683 1007 3158 3140 2195 2701 1551 2706 821
1931 2284 1375 1218 814 562 776 945 1123 1425 1497 1620 1795 1779 1641 1727 2387 1947 1713 1772 1897 1618 1628 1522 1364 957 2595 3424 1091 2812 1565 1952 771 2511 1393 1258 2549 2880 3047 3907 1671 1046 1220
1843 1412 1332 2240 1203 831 645 677 978 1540 1662 1426 1530 1777 2072 1901 2141 2166 1952 1845 1734 1935 1956 1998 1444 1441 1872 2131 2294 1932 1257 1435 2007 1405 1278 794 1328 1335 1951 3161 3443 2736 673
1207 1217 1882 1823 1486 1070 1190 751 814 1154 1433 1531 1622 1507 1499 1745 1827 1746 1685 1762 1650 1356 1282 1276 1617 1469 1734 1944 1993 2644 2602 2201 1974 1357 1161 877 1025 2924 2760 1232 1260 923 998
335 922 975 1885 2268 1525 1443 1214 973 1088 1204 1201 1353 1391 1413 1396 1147 1304 1636 1755 1834 1575 1442 1511 1563 1272 930 940 1084 2647 3287 2100 1660 1516 1117 871 719 1602 1187 1038 1449 1352 2054
366 476 701 1210 824 1444 1650 1345 1610 1169 1269 1234 1187 1265 1400 567 393 406 596 1587 1639 1795 1714 1737 1227 1816 1587 944 1066 1028 977 2044 2816 2686 1616 1484 2860 2187 1664 1781 1931 1840 1710
348 301 166 317 341 407 325 684 1067 975 1061 1189 1275 953 618 483 216 237 292 891 1635 1616 1812 2177 1979 842 511 809 1094 845 1096 1095 954 1685 2138 2461 2706 3080 3136 2739 2701 2568 2102
342 232 106 41 32 30 75 129 118 269 818 1007 375 289 128 146 143 201 415 1565 1039 847 715 600 458 297 294 218 93 1004 1362 1434 2039 1595 2078 2013 1932 1591 1565 2120 2622 2641 2382
106 132 71 97 108 76 69 29 16 163 177 137 113 59 55 52 131 177 397 860 618 248 108 107 70 65 44 27 10 23 104 410 334 209 86 4 68 260 499 739 1661 2309 2158
88 151 156 193 126 108 166 168 253 82 79 49 41 53 73 69 58 81 87 114 199 131 72 1 0 0 0 0 0 0 0 0 0 0 3 229 265 456 377 645 1550 1454 842
236 217 240 110 84 115 151 103 47 43 20 56 31 19 62 50 63 57 36 45 21 39 54 49 22 2 3 0 0 0 0 0 0 3 35 46 53 185 146 117 357 19 3
148 207 178 66 111 79 28 3 0 1 22 29 104 30 24 28 46 31 31 9 2 26 35 18 17 1 0 0 0 0 0 0 0 0 0 0 0 0 0 0 13 129 0
95 83 159 187 113 87 54 32 4 7 6 0 0 0 6 0 0 0 0 0 0 14 3 2 0 0 0 0 0 0 0 0 0 0 0 0 0 0 6 0 1 17 2
219 244 238 253 205 173 117 54 0 0 0 0 0 0 0 0 0 0 0 0 0 0 0 0 0 0 0 0 0 0 0 0 0 0 0 0 0 0 0 0 0 0 0
4 0 0 0 0 0 0 0 0 0 0 0 0 0 0 0 0 0 0 0 0 0 0 0 0 0 0 0 0 0 0 0 0 0 0 0 0 0 0 0 0 0 0
0 0 0 0 0 0 0 0 0 0 0 0 0 0 0 0 0 0 0 0 0 0 0 0 0 0 0 0 0 0 0 0 0 0 0 0 0 0 0 0 0 0 0
0 0 0 0 0 0 0 0 0 0 0 0 0 0 0 0 0 0 0 0 0 0 0 0 0 0 0 0 0 0 0 0 0 0 0 0 0 0 0 0 0 0 0
0 0 0 0 0 0 0 0 0 0 0 0 0 0 0 0 0 0 0 0 0 0 0 0 0 0 0 0 0 0 0 0 0 0 0 0 0 0 0 0 0 0 0
0 0 0 0 0 0 0 0 0 0 0 0 0 0 0 0 0 0 0 0 0 0 0 0 0 0 0 0 0 0 0 0 0 0 0 0 0 0 0 0 0 0 0
0 1 0 0 0 0 0 0 0 0 0 0 0 0 0 0 0 0 0 0 0 0 0 0 0 0 0 0 0 0 0 0 0 0 0 0 0 0 0 0 0 0 0
0 0 0 0 0 0 0 0 0 0 0 0 0 0 0 0 0 0 0 0 0 0 0 0 0 0 0 0 0 0 0 0 0 0 0 0 0 0 0 0 0 0 0
0 0 0 0 0 0 0 0 0 0 0 0 0 0 0 0 0 0 0 0 0 0 0 0 0 0 0 0 0 0 0 0 0 0 0 0 0 0 0 0 0 0 0
0 0 0 0 0 0 0 0 0 0 0 0 0 0 0 0 0 0 0 0 0 0 0 0 0 0 0 0 0 0 0 0 0 0 0 0 0 0 0 0 0 0 0
0 0 0 0 0 0 0 0 0 0 0 0 0 0 0 0 0 0 0 0 0 0 0 0 0 0 0 0 0 0 0 0 0 0 0 0 0 0 0 0 0 0 0
6 3 1 0 0 0 0 0 0 0 0 0 0 1 1 0 0 0 0 0 0 0 0 1 2 0 0 0 0 0 0 0 0 0 0 0 0 0 0 0 0 0 0
6 1 1 0 15 0 0 0 0 0 0 0 8 16 12 10 11 0 0 4 5 6 7 11 8 4 0 0 0 0 0 0 0 0 0 0 0 0 0 0 0 0 0

GFSGL_con_mucape_114.txt.gz
CAPE
1490 1391 1618 1317 1432 2197 2206 2490 2580 546 87 1653 2331 2259 2339 2641 2603 2674 2246 2353 1937 2953 2930 2861 2467 2667 2544 2023 1731 1465 1060 1469 1346 1063 858 947 1595 2020 2774 2832 3163 1985 1590
1507 1317 1891 1548 1661 1551 1914 2042 1984 2226 1682 1944 2750 3042 2763 2392 2063 2528 2822 1699 1817 1932 2332 2642 2528 1596 2619 2947 2642 2703 2523 1984 2445 1903 2426 2005 2078 1959 3655 3632 2862 1593 1559
926 1882 1292 1470 1647 1980 1785 1998 2388 2604 2820 2283 2333 2806 2652 2484 2443 2211 2732 2682 2221 2318 2122 1946 1190 2020 2265 2614 2963 2831 2214 2305 1918 2194 2020 1627 1447 1746 1409 2495 1569 2629 983
1725 1555 1737 1751 1142 949 1743 2282 1962 2823 2329 2165 2079 2042 2785 2057 1937 2037 2225 1801 2676 2194 2544 2010 1939 1981 1714 2539 1940 2227 2277 2066 1673 1936 1041 866 1514 1627 1856 1593 1429 2003 1639
459 468 1165 903 790 1181 1022 1602 2367 1909 2489 2070 1788 1882 1978 879 661 521 655 915 1601 1620 2166 1626 1589 1008 644 793 1337 2406 2818 2535 2423 1546 1508 1392 1748 1782 1665 2092 1851 1934 1983
162 311 428 926 898 418 421 629 1622 1694 1680 1837 1571 1390 503 554 331 179 300 753 815 645 1222 1529 555 643 748 868 994 1016 913 1760 1958 1854 1530 1457 1694 1973 1920 1998 2075 1991 1598
534 605 677 455 252 266 288 437 278 863 1010 1004 855 483 343 198 145 114 121 747 1698 1723 1247 1086 944 431 258 393 421 346 1211 1094 1087 1211 1647 1650 1515 1428 1940 1420 1082 1770 1704
620 422 301 151 170 160 236 251 161 230 332 506 318 186 114 68 83 79 207 1265 1319 603 365 558 288 195 115 124 67 366 483 820 1127 470 827 446 218 296 467 639 1083 1433 1312
211 259 192 134 33 4 25 76 80 58 143 55 17 8 18 33 73 74 597 1309 264 119 71 66 53 61 41 1 2 3 7 9 17 11 0 31 80 196 263 366 888 749 743
109 98 91 40 74 128 24 1 1 18 10 14 3 1 1 33 85 91 151 344 273 102 26 17 8 0 9 0 0 0 0 0 0 0 0 181 170 168 81 325 87 0 0
106 92 112 71 126 122 43 17 8 0 18 24 25 33 21 20 41 80 80 85 79 46 24 17 35 17 10 11 3 0 0 0 0 0 4 111 5 4 0 0 0 5 0
189 166 220 123 216 28 64 81 52 0 2 8 11 14 17 15 39 58 67 66 63 56 22 28 38 15 0 2 1 0 0 0 0 0 0 0 0 0 0 0 14 36 4
54 99 122 230 158 81 54 14 16 0 0 2 2 9 13 1 2 2 1 1 1 3 3 16 2 2 0 0 0 0 0 0 0 0 0 0 0 0 0 0 0 0 0
109 102 100 121 75 164 74 16 72 41 2 32 0 0 0 0 0 0 0 0 0 0 0 0 0 0 0 0 0 0 0 0 0 0 0 0 0 0 0 0 0 0 0
147 126 117 130 157 169 115 73 72 34 0 0 0 0 0 0 0 0 0 0 0 0 0 0 0 0 0 0 0 0 0 0 0 0 0 0 0 0 0 0 0 0 0
62 60 55 166 11 11 3 0 0 0 0 0 0 0 0 0 0 0 0 0 0 0 0 0 0 0 0 0 0 0 0 0 0 0 0 0 0 0 0 0 0 0 0
0 5 0 0 0 0 0 0 0 0 0 0 0 0 0 0 0 0 0 0 0 0 0 0 0 0 0 0 0 0 0 0 0 0 0 0 0 0 0 0 0 0 0
0 0 0 0 0 0 0 0 0 0 0 0 0 0 0 0 0 0 0 0 0 0 0 0 0 0 0 0 0 0 0 0 0 0 0 0 0 0 0 0 0 0 0
0 0 0 0 0 0 0 0 0 0 0 0 0 0 0 0 0 0 0 0 0 0 0 0 0 0 0 0 0 0 0 0 0 0 0 0 0 0 0 0 0 0 0
0 1 0 2 9 0 0 0 0 0 0 0 0 0 0 0 0 0 0 0 0 0 0 0 0 0 0 0 0 0 0 0 0 0 0 0 0 0 0 0 0 0 0
0 0 0 0 0 0 0 0 0 0 0 0 0 0 0 0 0 0 0 0 0 0 0 0 0 0 0 0 0 0 0 0 0 0 0 0 0 0 0 0 0 0 0
0 0 0 0 0 0 0 0 0 0 0 0 0 0 0 0 0 0 0 0 0 0 0 0 0 0 0 0 0 0 0 0 0 0 0 0 0 0 0 0 0 0 0
0 0 0 0 0 0 0 0 0 0 0 0 0 0 0 0 0 0 0 0 0 0 0 0 0 0 0 0 0 0 0 0 0 0 0 0 0 0 0 0 0 0 0
0 0 0 0 0 0 0 0 0 0 0 0 0 0 0 0 0 0 0 0 0 0 0 0 0 0 0 0 0 0 0 0 0 0 0 0 0 0 0 0 0 0 0
1 0 0 0 0 0 0 0 0 0 0 0 0 1 0 0 0 0 0 0 0 0 0 5 7 6 0 0 0 0 0 0 0 0 0 0 0 0 0 0 0 0 0
8 16 7 10 11 3 0 0 0 0 0 0 0 0 0 21 14 14 13 13 0 0 3 11 7 8 0 0 0 0 0 0 0 0 0 0 0 0 0 0 0 0 0

GFSGL_con_mucape_117.txt.gz
CAPE
1038 926 796 772 1043 740 1099 851 831 492 344 0 421 675 853 1082 1006 1141 1067 838 1014 1131 1249 1349 1340 899 899 1098 1449 1433 1567 1132 823 780 848 890 796 1027 1023 1605 2266 1942 1540
885 851 777 958 787 1055 715 908 988 648 98 596 674 1033 1033 1077 1434 1313 1448 1139 989 1060 1365 1175 1084 1339 1329 1612 1073 1031 1348 1384 1042 1168 1093 1171 549 987 841 1455 1649 1428 1416
972 819 937 615 790 783 961 824 896 688 654 873 940 1351 1273 1262 1117 907 879 1093 1179 1024 996 932 994 1092 1320 850 831 964 1108 878 769 1035 1042 829 867 1233 1361 1422 1211 1318 1369
626 359 501 537 617 771 863 836 766 1039 1017 1057 1148 1045 1068 810 616 969 860 1140 851 1048 906 1062 1094 1030 1133 1061 703 993 1262 971 1246 872 1076 877 1012 1369 1317 1317 1060 1219 1221
186 267 382 388 447 553 487 424 594 982 849 726 723 744 436 659 680 535 572 657 515 331 443 531 575 659 586 404 431 562 714 712 932 892 757 918 1066 1001 1305 1309 1147 779 849
142 225 234 278 339 291 328 388 391 270 435 703 658 406 358 409 263 292 156 201 201 78 5 78 395 311 365 483 595 533 557 827 846 856 816 923 969 631 870 997 422 622 882
234 348 415 309 191 160 148 163 278 274 224 230 372 436 436 239 158 85 148 120 221 179 87 430 341 104 116 129 122 403 556 643 607 580 372 294 294 72 185 197 214 413 590
541 323 166 123 110 123 70 37 137 136 81 162 198 173 62 104 37 14 138 406 257 253 261 195 125 68 67 38 42 20 32 144 163 73 0 0 21 74 90 149 139 128 154
294 144 64 49 49 42 93 22 72 63 94 149 56 33 21 18 1 117 449 200 148 72 67 79 64 51 38 5 0 0 0 0 0 0 0 45 1 0 0 0 0 0 0
286 149 90 63 3 1 0 0 2 62 34 37 27 7 16 0 7 56 164 117 92 56 63 65 56 36 23 0 0 0 0 0 0 0 0 0 0 0 0 0 0 0 0
283 133 192 73 39 23 0 0 1 1 0 0 0 3 11 0 10 34 72 98 95 81 63 46 11 0 0 1 7 2 0 0 0 0 0 0 0 0 0 0 0 0 0
191 164 110 272 71 56 17 1 6 0 0 0 0 0 8 8 16 8 23 44 48 48 52 50 23 6 1 0 9 1 0 0 0 0 0 0 0 0 0 0 0 0 0
155 164 102 76 118 74 43 33 24 50 0 0 2 0 1 0 3 6 16 29 46 19 3 1 2 0 0 0 3 5 0 0 0 0 0 0 0 0 0 0 0 0 0
122 79 67 68 181 137 119 46 17 2 0 0 0 0 3 0 0 0 0 0 0 0 0 0 0 0 0 0 0 0 0 0 0 0 0 0 0 0 0 0 0 0 0
120 85 68 62 77 84 84 134 81 38 7 8 7 1 0 0 0 0 0 0 0 0 0 0 0 0 0 0 0 0 0 0 0 0 0 0 0 0 0 0 0 0 0
53 43 96 64 83 68 47 130 112 82 17 1 0 0 0 0 0 0 0 0 0 0 0 0 0 0 0 0 0 0 0 0 0 0 0 0 0 0 0 0 0 0 0
32 53 43 42 49 81 31 47 102 8 0 0 0 0 0 0 0 0 0 0 0 0 0 0 0 0 0 0 0 0 0 0 0 0 0 0 0 0 0 0 0 0 0
0 0 0 0 0 0 0 0 0 0 0 0 0 0 0 0 0 0 0 0 0 0 0 0 0 0 0 0 0 0 0 0 0 0 0 0 0 0 0 0 0 0 0
0 0 0 0 0 0 0 0 0 0 0 0 0 0 0 0 0 0 0 0 0 0 0 0 0 0 0 0 0 0 0 0 0 0 0 0 0 0 0 0 0 0 0
0 0 0 0 0 0 0 0 0 0 0 0 0 0 0 0 0 0 0 0 0 0 0 0 0 0 0 0 0 0 0 0 0 0 0 0 0 0 0 0 0 0 0
0 0 0 0 0 0 0 0 0 0 0 0 0 0 0 0 0 0 0 0 0 0 0 0 0 0 0 0 0 0 0 0 0 0 0 0 0 0 0 0 0 0 0
0 0 0 0 0 0 0 0 0 0 0 0 0 0 0 0 0 0 0 0 0 0 0 0 0 0 0 0 0 0 0 0 0 0 0 0 0 0 0 0 0 0 0
0 0 0 0 0 0 0 0 0 0 0 0 0 0 0 0 0 0 0 0 0 0 0 0 0 0 0 0 0 0 0 0 0 0 0 0 0 0 0 0 0 0 0
0 0 0 0 0 0 0 0 0 0 0 0 0 0 0 0 0 0 0 0 0 0 0 0 0 0 0 0 0 0 0 0 0 0 0 0 0 0 0 0 0 0 0
0 0 0 0 0 0 0 0 0 0 0 0 0 0 0 0 0 0 0 0 0 0 0 0 0 0 0 0 0 0 0 0 0 0 0 0 0 0 0 0 0 0 0
4 7 9 12 6 10 4 2 0 1 0 0 0 0 0 0 0 0 0 0 0 0 0 0 0 0 0 0 0 0 0 0 0 0 0 0 0 0 0 0 0 0 0

GFSGL_con_mucape_120.txt.gz
CAPE
342 888 557 575 592 810 531 455 208 526 629 693 596 663 842 893 1130 1131 932 661 724 828 781 974 938 996 930 867 834 971 1165 955 694 602 845 966 941 1217 1298 1126 1152 1214 1306
400 732 560 384 787 716 635 877 662 611 392 490 125 452 837 846 793 918 809 992 714 763 714 991 790 897 934 1206 799 864 801 845 666 672 761 725 1174 1241 1249 1133 1012 1018 935
476 722 758 564 485 673 617 692 817 784 538 146 513 754 995 940 1047 1121 1197 961 1056 866 712 720 597 730 783 927 598 613 759 505 672 738 623 588 702 1182 1122 1093 910 671 776
678 842 605 482 598 654 650 679 813 701 594 565 738 770 826 893 894 906 910 848 984 903 649 529 627 688 789 616 574 713 716 455 547 341 524 601 719 894 953 952 454 605 979
484 604 774 751 590 405 521 586 753 738 740 774 955 795 366 646 611 523 400 660 757 603 515 399 477 536 412 368 374 479 540 450 617 643 663 694 702 392 350 601 410 518 717
197 323 320 356 340 293 295 373 347 319 530 458 533 485 287 361 347 368 411 302 336 176 163 188 191 240 308 280 313 352 513 524 694 682 450 242 137 114 113 222 222 288 411
121 159 220 258 170 170 132 204 219 205 181 189 220 304 346 262 127 153 156 171 126 26 7 0 56 104 101 130 174 306 321 348 363 261 127 0 30 120 154 169 119 87 130
165 214 272 230 169 115 101 90 138 132 103 88 153 158 157 242 203 53 140 168 142 132 162 282 214 114 39 44 17 12 18 34 42 1 1 48 87 121 82 14 0 0 0
208 264 240 180 93 84 109 43 60 28 92 99 92 72 22 32 3 36 210 265 224 151 95 89 66 60 23 1 0 0 0 0 0 0 3 3 6 2 0 0 0 0 0
200 190 132 99 64 61 108 85 6 1 60 45 40 63 57 8 21 97 121 144 143 113 97 76 44 36 33 39 22 16 1 1 10 27 19 7 0 0 0 0 0 0 0
229 154 94 70 86 90 23 0 0 0 35 30 86 71 14 21 54 94 77 58 55 58 40 25 18 15 21 19 18 5 7 6 6 4 4 0 0 0 0 0 0 0 0
270 255 247 95 110 99 69 32 5 0 5 0 0 4 13 18 33 21 57 70 75 60 70 51 42 32 27 35 27 27 25 20 18 0 0 0 0 0 0 0 0 0 0
277 199 189 150 205 101 111 75 22 14 0 0 1 0 1 2 4 18 26 30 39 51 52 44 15 9 18 34 19 12 4 7 8 1 2 0 0 0 0 0 0 0 0
154 185 219 171 168 77 138 71 48 12 23 12 2 1 1 0 4 10 17 17 26 18 20 1 0 0 0 0 0 0 0 0 0 0 0 0 0 0 0 0 0 0 0
79 126 117 83 125 60 223 149 66 32 30 47 32 2 9 2 0 0 1 8 0 0 0 0 0 0 0 0 0 0 0 0 0 0 0 0 0 0 0 0 0 0 0
49 80 94 137 87 109 53 106 79 38 66 53 20 11 5 0 0 0 0 0 0 0 0 0 0 0 0 0 0 0 0 0 0 0 0 0 0 0 0 0 0 0 0
42 13 16 34 8 24 25 74 68 34 30 28 9 12 0 0 0 0 0 0 0 0 0 0 0 0 0 0 0 0 0 0 0 0 0 0 0 0 0 0 0 0 0
0 0 0 0 0 5 13 16 5 43 16 15 2 0 0 0 0 0 0 0 0 0 0 0 0 0 0 0 0 0 0 0 0 0 0 0 0 0 0 0 0 0 0
0 0 0 0 0 0 0 0 0 0 0 0 0 0 0 0 0 0 0 0 0 0 0 0 0 0 0 0 0 0 0 0 0 0 0 0 0 0 0 0 0 0 0
0 0 0 0 0 0 0 0 0 0 0 0 0 0 0 0 0 0 0 0 0 0 0 0 0 0 0 0 0 0 0 0 0 0 0 0 0 0 0 0 0 0 0
0 10 9 2 0 0 0 0 0 0 0 0 0 0 0 0 0 0 0 0 0 0 0 0 0 0 0 0 0 0 0 0 0 0 0 0 0 0 0 0 0 0 0
0 0 0 0 0 0 0 0 0 0 0 0 0 0 0 0 0 0 0 0 0 0 0 0 0 0 0 0 0 0 0 0 0 0 0 0 0 0 0 0 0 0 0
0 0 0 0 0 0 0 0 0 0 0 0 0 0 0 0 0 0 0 0 0 0 0 0 0 0 0 0 0 0 0 0 0 0 0 0 0 0 0 0 0 0 0
0 0 0 0 0 0 0 0 0 0 0 0 0 0 0 0 0 0 0 0 0 0 0 0 0 0 0 0 0 0 0 0 0 0 0 0 0 0 0 0 0 0 0
0 0 0 0 0 0 0 0 0 0 0 0 0 0 0 0 0 0 0 0 0 0 0 0 0 0 0 0 0 0 0 0 0 0 0 0 0 0 0 0 0 0 0
0 0 0 0 0 1 0 0 0 5 7 3 0 0 0 0 0 0 0 0 0 0 0 0 0 0 0 0 0 0 0 0 0 0 0 0 0 0 0 0 0 0 0

GFSGL_con_mucape_123.txt.gz
CAPE
344 359 318 276 208 269 507 574 561 322 555 631 640 658 552 614 714 947 988 868 680 821 842 794 737 702 714 699 741 897 955 757 656 525 643 810 1140 800 933 722 736 638 935
332 363 366 384 284 545 659 504 399 312 455 541 611 530 507 659 735 882 956 778 525 620 571 705 764 683 802 750 761 616 675 618 504 407 570 545 529 843 780 576 474 768 687
262 293 524 612 359 420 636 522 631 269 535 326 393 345 298 628 702 777 795 745 979 585 723 729 790 677 707 805 628 446 605 459 521 465 182 374 496 544 503 438 417 749 454
265 328 436 598 406 390 561 487 580 583 672 497 134 315 652 825 881 856 881 861 819 967 770 589 574 643 712 805 586 537 554 302 293 175 297 495 575 422 239 329 242 396 268
407 348 398 515 608 471 427 501 579 596 696 521 497 608 622 611 767 737 754 591 686 761 667 432 377 405 450 421 370 348 390 289 402 439 491 364 205 18 22 142 168 200 267
586 430 450 686 666 550 615 452 307 443 496 442 636 820 767 360 445 340 319 312 438 433 497 389 311 252 301 363 303 320 405 420 456 444 174 70 0 0 94 152 73 0 128
406 312 296 285 262 183 135 143 155 197 213 249 290 251 233 317 264 110 173 223 263 256 203 130 63 51 106 166 211 205 212 199 182 135 106 3 43 82 94 50 0 0 0
140 115 122 125 123 72 77 44 63 80 123 167 176 187 166 150 159 115 102 132 94 74 73 62 30 65 75 66 82 75 63 27 3 0 0 0 16 34 23 0 0 0 0
60 102 64 69 72 71 90 73 52 51 23 27 86 107 115 103 44 97 126 167 125 125 112 92 80 79 70 56 54 37 21 9 0 0 0 0 0 0 0 0 0 0 0
79 99 124 135 99 101 59 50 54 37 29 74 72 88 122 123 67 57 62 101 30 27 50 74 79 74 75 76 71 73 51 18 8 0 0 0 0 0 0 0 0 0 0
135 137 110 103 96 76 47 41 28 37 53 60 127 111 98 59 57 21 15 9 6 18 52 75 80 75 44 34 20 10 7 0 1 6 26 35 12 0 0 0 0 0 0
41 104 37 109 72 71 39 63 30 22 37 40 97 131 76 28 19 23 76 33 14 26 51 55 69 64 50 42 38 21 9 9 15 27 31 16 2 0 0 0 0 0 0
175 53 97 154 150 117 101 87 33 21 16 9 0 0 7 12 12 20 19 9 19 34 44 47 55 68 61 32 27 39 52 61 55 73 65 23 4 0 0 0 0 0 0
189 217 251 252 207 122 102 93 60 51 40 33 1 0 0 8 6 13 14 11 31 21 32 32 40 39 0 0 0 0 1 3 0 0 0 0 0 0 0 0 0 0 0
204 130 106 114 93 86 127 110 89 111 82 104 50 17 12 3 3 2 7 36 24 24 52 14 5 0 0 0 0 0 0 0 0 0 0 0 0 0 0 0 0 0 0
41 92 47 47 75 97 69 66 57 72 61 29 13 31 22 18 0 1 1 9 6 5 16 10 0 0 0 0 0 0 0 0 0 0 0 0 0 0 0 0 0 0 0
30 59 70 50 35 39 20 10 51 53 48 38 31 24 21 16 11 0 0 0 0 0 0 0 0 0 0 0 0 0 0 0 0 0 0 0 0 0 0 0 0 0 0
4 2 1 16 8 20 22 5 43 13 12 14 5 4 2 0 2 5 0 0 0 0 0 0 0 0 0 0 0 0 0 0 0 0 0 0 0 0 0 0 0 0 0
0 0 0 0 0 0 0 0 0 0 0 1 0 0 0 0 0 0 0 0 0 0 0 0 0 0 0 0 0 0 0 0 0 0 0 0 0 0 0 0 0 0 0
0 0 0 0 0 0 0 0 0 0 0 0 0 0 0 0 0 0 0 0 0 0 0 0 0 0 0 0 0 0 0 0 0 0 0 0 0 0 0 0 0 0 0
0 0 0 0 0 0 0 0 0 0 0 0 0 0 0 0 0 0 0 0 0 0 0 0 0 0 0 0 0 0 0 0 0 0 0 0 0 0 0 0 0 0 0
0 0 0 2 0 0 0 0 0 0 0 0 0 0 0 0 0 0 0 0 0 0 0 0 0 0 0 0 0 0 0 0 0 0 0 0 0 0 0 0 0 0 0
0 0 0 0 0 0 0 0 0 0 0 0 0 0 0 0 0 0 0 0 0 0 0 0 0 0 0 0 0 0 0 0 0 0 0 0 0 0 0 0 0 0 0
0 0 0 0 0 0 0 0 0 0 0 0 0 0 0 0 0 0 0 0 0 0 0 0 0 0 0 0 0 0 0 0 0 0 0 0 0 0 0 0 0 0 0
0 0 0 0 0 0 0 0 0 0 0 0 0 0 0 0 0 0 0 0 0 0 0 0 0 0 0 0 0 0 0 0 0 0 0 0 0 0 0 0 0 0 0
0 0 0 0 0 0 0 0 0 0 0 0 0 0 0 0 0 0 0 0 0 0 0 0 0 0 0 0 0 0 0 0 0 0 0 0 0 0 0 0 0 0 0

GFSGL_con_mucape_126.txt.gz
CAPE
171 116 86 180 154 187 170 257 388 324 299 353 549 534 548 589 641 710 732 792 810 650 913 701 643 640 438 538 746 779 740 584 479 525 462 598 858 1182 861 883 918 1009 877
126 107 99 153 221 253 146 253 387 434 337 318 434 514 480 487 549 777 825 958 671 558 611 663 749 626 695 617 602 579 621 642 491 485 472 606 633 597 750 808 624 473 688
170 167 177 233 238 199 257 523 421 366 188 326 330 398 378 399 527 616 727 752 826 645 585 596 767 608 699 825 767 598 514 539 398 624 474 450 408 446 512 545 446 91 92
177 196 243 291 249 317 269 348 499 403 227 353 417 177 225 470 600 764 829 897 935 876 748 693 654 679 858 793 664 525 647 442 439 244 353 402 495 376 226 249 255 152 35
243 198 230 242 246 454 289 345 418 383 422 475 453 316 297 395 622 716 770 746 738 694 751 702 457 372 417 434 613 472 430 318 427 428 485 205 121 14 66 85 85 196 53
306 253 220 195 254 398 366 340 370 410 466 480 515 475 599 547 422 496 551 475 475 570 594 598 410 318 308 276 263 259 243 310 332 403 132 55 4 21 77 34 0 63 0
452 388 269 221 291 425 469 397 437 388 218 233 325 341 292 334 409 323 136 153 223 280 361 240 283 119 85 132 145 126 134 126 109 106 73 17 9 38 11 0 0 0 0
445 302 283 271 276 370 362 148 100 64 42 66 114 155 189 137 94 116 106 105 112 142 136 109 54 30 18 66 64 47 43 33 13 0 0 0 0 6 0 0 0 0 0
231 228 192 142 12 55 71 59 59 56 32 15 20 77 120 133 138 141 63 100 102 75 72 66 41 38 40 18 2 9 5 9 5 9 3 0 0 0 0 0 0 0 0
178 144 61 61 53 40 47 60 36 22 32 18 30 78 62 70 50 53 46 91 89 78 57 84 66 37 27 8 19 13 12 11 6 0 5 10 13 7 0 0 0 0 0
177 102 72 59 115 68 66 63 42 33 59 57 56 119 97 80 65 73 44 32 10 25 6 2 7 38 69 51 41 11 1 0 0 0 0 8 17 32 20 0 0 0 0
30 111 33 47 65 59 29 41 30 48 80 103 133 144 152 114 72 55 51 13 48 29 11 6 1 55 52 25 22 8 4 8 2 1 6 2 17 32 22 0 0 0 0
105 51 42 95 30 16 92 50 87 83 69 92 79 53 46 45 26 43 77 66 53 29 13 14 23 45 39 37 44 21 20 18 4 14 22 39 22 0 0 0 0 0 0
145 7 22 47 79 104 121 128 77 69 48 8 16 20 13 11 15 40 43 57 24 46 25 22 35 54 52 67 28 0 0 0 0 14 4 0 0 0 0 0 0 0 0
148 162 122 139 106 129 86 140 117 115 46 33 31 31 33 1 10 5 7 3 13 8 26 44 23 46 57 35 3 0 0 0 0 0 0 0 0 0 0 0 0 0 0
111 67 109 130 101 129 114 180 103 79 69 21 13 14 58 6 3 7 6 1 8 17 22 30 13 31 33 13 0 0 0 0 0 0 0 0 0 0 0 0 0 0 0
46 54 91 91 83 80 104 62 81 106 88 71 48 38 7 8 13 14 12 11 3 17 12 13 37 22 1 0 0 0 0 0 0 0 0 0 0 0 0 0 0 0 0
19 13 90 91 72 41 90 70 28 20 10 15 10 8 3 16 7 1 0 0 0 3 19 2 4 5 0 0 0 0 0 0 0 0 0 0 0 0 0 0 0 0 0
0 0 0 0 0 0 0 1 4 6 21 29 9 14 2 0 0 0 0 0 0 0 0 0 0 0 0 0 0 0 0 0 0 0 0 0 0 0 0 0 0 0 0
0 0 0 0 0 0 0 0 0 0 0 0 0 0 0 0 0 0 0 0 0 0 0 0 0 0 0 0 0 0 0 0 0 0 0 0 0 0 0 0 0 0 0
0 0 0 0 0 0 0 0 0 0 0 0 0 0 0 0 0 0 0 0 0 0 0 0 0 0 0 0 0 0 0 0 0 0 0 0 0 0 0 0 0 0 0
0 0 0 0 0 0 0 0 0 0 0 0 0 0 0 0 0 0 0 0 0 0 0 0 0 0 0 0 0 0 0 0 0 0 0 0 0 0 0 0 0 0 0
0 0 0 0 0 0 0 0 0 0 0 0 0 0 0 0 0 0 0 0 0 0 0 0 0 0 0 0 0 0 0 0 0 0 0 0 0 0 0 0 0 0 0
0 0 0 0 0 0 0 0 0 0 0 0 0 0 0 0 0 0 0 0 0 0 0 0 0 0 0 0 0 0 0 0 0 0 0 0 0 0 0 0 0 0 0
0 0 0 0 0 0 0 0 0 0 0 0 0 0 0 0 0 0 0 0 0 0 0 0 0 0 0 0 0 0 0 0 0 0 0 0 0 0 0 0 0 0 0
0 0 0 0 0 0 0 0 0 0 0 0 0 0 0 0 0 0 0 0 0 0 0 0 0 0 0 0 0 0 0 0 0 0 0 0 0 0 0 0 0 0 0